Wetterdaten: Samstag, 16.12.2017
Datum Zeit Temp. A. Pool Temp. Feuchte A. Luftdruck Regen Wind Richtung Richtung Sonnenschein ET UV Solar Taupunkt Windchill Windben Empfang
16.12.2017 00:00 2,5 C 3,9 C 82 % 1002,1 hPa 0,0 l/m 1,9 km/h (1 Bft) S-SW 209 0 min 0,000 mm 0,0 UV-I 0 W/m -0,3 C 2,5 C 3,2 km/h (1 Bft) 100,00 %
16.12.2017 00:02 2,4 C 3,9 C 82 % 1002,0 hPa 0,0 l/m 2,8 km/h (1 Bft) W 268 0 min 0,000 mm 0,0 UV-I 0 W/m -0,4 C 2,4 C 4,8 km/h (1 Bft) 100,00 %
16.12.2017 00:04 2,4 C 3,9 C 82 % 1002,0 hPa 0,0 l/m 3,5 km/h (1 Bft) W 268 0 min 0,000 mm 0,0 UV-I 0 W/m -0,4 C 2,4 C 4,8 km/h (1 Bft) 98,00 %
16.12.2017 00:06 2,4 C 3,9 C 82 % 1002,0 hPa 0,0 l/m 4,9 km/h (1 Bft) W 261 0 min 0,000 mm 0,0 UV-I 0 W/m -0,4 C 2,4 C 9,7 km/h (2 Bft) 100,00 %
16.12.2017 00:08 2,4 C 3,9 C 82 % 1002,0 hPa 0,0 l/m 4,3 km/h (1 Bft) W-SW 258 0 min 0,000 mm 0,0 UV-I 0 W/m -0,4 C 2,4 C 9,7 km/h (2 Bft) 95,74 %
16.12.2017 00:10 2,4 C 3,9 C 82 % 1002,1 hPa 0,0 l/m 3,4 km/h (1 Bft) W-SW 258 0 min 0,000 mm 0,0 UV-I 0 W/m -0,4 C 2,4 C 4,8 km/h (1 Bft) 94,34 %
16.12.2017 00:12 2,4 C 3,9 C 82 % 1002,1 hPa 0,0 l/m 3,1 km/h (1 Bft) W-SW 258 0 min 0,000 mm 0,0 UV-I 0 W/m -0,4 C 2,4 C 4,8 km/h (1 Bft) 97,56 %
16.12.2017 00:14 2,4 C 3,9 C 82 % 1002,1 hPa 0,0 l/m 2,6 km/h (1 Bft) W-SW 258 0 min 0,000 mm 0,0 UV-I 0 W/m -0,4 C 2,4 C 3,2 km/h (1 Bft) 98,00 %
16.12.2017 00:16 2,4 C 3,9 C 82 % 1002,2 hPa 0,0 l/m 2,7 km/h (1 Bft) W-SW 258 0 min 0,000 mm 0,0 UV-I 0 W/m -0,4 C 2,4 C 4,8 km/h (1 Bft) 98,00 %
16.12.2017 00:18 2,2 C 3,9 C 83 % 1002,1 hPa 0,0 l/m 1,2 km/h (1 Bft) W-SW 258 0 min 0,000 mm 0,0 UV-I 0 W/m -0,4 C 2,2 C 3,2 km/h (1 Bft) 97,37 %
16.12.2017 00:20 2,1 C 3,9 C 84 % 1002,2 hPa 0,0 l/m 0,4 km/h (0 Bft) W-SW 258 0 min 0,000 mm 0,0 UV-I 0 W/m -0,3 C 2,1 C 3,2 km/h (1 Bft) 95,74 %
16.12.2017 00:22 1,8 C 3,9 C 85 % 1002,2 hPa 0,0 l/m 1,3 km/h (1 Bft) W-SW 258 0 min 0,000 mm 0,0 UV-I 0 W/m -0,4 C 1,8 C 3,2 km/h (1 Bft) 97,92 %
16.12.2017 00:24 1,7 C 3,9 C 86 % 1002,2 hPa 0,0 l/m 1,4 km/h (1 Bft) SW 222 0 min 0,000 mm 0,0 UV-I 0 W/m -0,4 C 1,7 C 3,2 km/h (1 Bft) 98,00 %
16.12.2017 00:26 1,6 C 3,9 C 87 % 1002,2 hPa 0,0 l/m 2,6 km/h (1 Bft) S 180 0 min 0,000 mm 0,0 UV-I 0 W/m -0,3 C 1,6 C 4,8 km/h (1 Bft) 97,62 %
16.12.2017 00:28 1,8 C 3,9 C 87 % 1002,1 hPa 0,0 l/m 3,2 km/h (1 Bft) S 178 0 min 0,000 mm 0,0 UV-I 0 W/m -0,1 C 1,8 C 4,8 km/h (1 Bft) 96,00 %
16.12.2017 00:30 1,9 C 3,9 C 85 % 1002,1 hPa 0,0 l/m 3,9 km/h (1 Bft) S 178 0 min 0,000 mm 0,0 UV-I 0 W/m -0,3 C 1,9 C 6,4 km/h (2 Bft) 93,62 %
16.12.2017 00:32 2,1 C 3,9 C 85 % 1002,0 hPa 0,0 l/m 4,1 km/h (1 Bft) S 191 0 min 0,000 mm 0,0 UV-I 0 W/m -0,2 C 2,1 C 8,0 km/h (2 Bft) 96,30 %
16.12.2017 00:34 2,1 C 3,9 C 84 % 1001,9 hPa 0,0 l/m 5,3 km/h (1 Bft) S-SW 209 0 min 0,000 mm 0,0 UV-I 0 W/m -0,3 C 2,1 C 6,4 km/h (2 Bft) 97,87 %
16.12.2017 00:36 2,2 C 3,9 C 84 % 1001,9 hPa 0,0 l/m 4,9 km/h (1 Bft) S-SW 209 0 min 0,000 mm 0,0 UV-I 0 W/m -0,2 C 2,2 C 6,4 km/h (2 Bft) 97,37 %
16.12.2017 00:38 2,1 C 3,9 C 84 % 1001,9 hPa 0,0 l/m 4,9 km/h (1 Bft) S-SW 211 0 min 0,000 mm 0,0 UV-I 0 W/m -0,3 C 2,1 C 8,0 km/h (2 Bft) 98,21 %
16.12.2017 00:40 2,1 C 3,9 C 84 % 1001,9 hPa 0,0 l/m 4,4 km/h (1 Bft) S-SW 196 0 min 0,000 mm 0,0 UV-I 0 W/m -0,3 C 2,1 C 8,0 km/h (2 Bft) 97,56 %
16.12.2017 00:42 2,1 C 3,9 C 84 % 1001,8 hPa 0,0 l/m 5,4 km/h (1 Bft) SW 216 0 min 0,000 mm 0,0 UV-I 0 W/m -0,3 C 2,1 C 8,0 km/h (2 Bft) 98,00 %
16.12.2017 00:44 2,1 C 3,9 C 84 % 1001,8 hPa 0,0 l/m 5,9 km/h (2 Bft) S-SW 212 0 min 0,000 mm 0,0 UV-I 0 W/m -0,3 C 2,1 C 8,0 km/h (2 Bft) 95,74 %
16.12.2017 00:46 2,1 C 3,9 C 84 % 1001,8 hPa 0,0 l/m 5,7 km/h (1 Bft) SW 220 0 min 0,000 mm 0,0 UV-I 0 W/m -0,3 C 2,1 C 8,0 km/h (2 Bft) 95,12 %
16.12.2017 00:48 2,1 C 3,9 C 84 % 1001,8 hPa 0,0 l/m 5,1 km/h (1 Bft) SW 227 0 min 0,000 mm 0,0 UV-I 0 W/m -0,3 C 2,1 C 6,4 km/h (2 Bft) 94,00 %
16.12.2017 00:50 2,1 C 3,9 C 84 % 1001,9 hPa 0,0 l/m 5,0 km/h (1 Bft) SW 227 0 min 0,000 mm 0,0 UV-I 0 W/m -0,3 C 2,1 C 8,0 km/h (2 Bft) 93,62 %
16.12.2017 00:52 2,0 C 3,9 C 84 % 1001,9 hPa 0,0 l/m 5,6 km/h (1 Bft) S-SW 204 0 min 0,000 mm 0,0 UV-I 0 W/m -0,4 C 2,0 C 8,0 km/h (2 Bft) 95,12 %
16.12.2017 00:54 2,0 C 3,9 C 84 % 1001,9 hPa 0,0 l/m 6,1 km/h (2 Bft) S-SW 211 0 min 0,000 mm 0,0 UV-I 0 W/m -0,4 C 2,0 C 8,0 km/h (2 Bft) 94,00 %
16.12.2017 00:56 1,9 C 3,9 C 84 % 1002,0 hPa 0,0 l/m 6,5 km/h (2 Bft) S-SW 213 0 min 0,000 mm 0,0 UV-I 0 W/m -0,5 C 1,8 C 9,7 km/h (2 Bft) 94,00 %
16.12.2017 00:58 1,8 C 3,9 C 84 % 1002,0 hPa 0,0 l/m 6,0 km/h (2 Bft) SW 214 0 min 0,000 mm 0,0 UV-I 0 W/m -0,6 C 1,8 C 8,0 km/h (2 Bft) 94,29 %
16.12.2017 01:00 1,8 C 3,9 C 85 % 1002,0 hPa 0,0 l/m 5,7 km/h (1 Bft) SW 232 0 min 0,000 mm 0,0 UV-I 0 W/m -0,4 C 1,8 C 8,0 km/h (2 Bft) 94,00 %
16.12.2017 01:02 1,9 C 3,9 C 85 % 1001,9 hPa 0,0 l/m 6,2 km/h (2 Bft) SW 228 0 min 0,000 mm 0,0 UV-I 0 W/m -0,3 C 1,9 C 8,0 km/h (2 Bft) 92,86 %
16.12.2017 01:04 1,9 C 3,9 C 85 % 1001,9 hPa 0,0 l/m 5,6 km/h (1 Bft) SW 235 0 min 0,000 mm 0,0 UV-I 0 W/m -0,3 C 1,9 C 8,0 km/h (2 Bft) 92,00 %
16.12.2017 01:06 1,9 C 3,9 C 84 % 1001,9 hPa 0,0 l/m 6,6 km/h (2 Bft) SW 236 0 min 0,000 mm 0,0 UV-I 0 W/m -0,5 C 1,7 C 8,0 km/h (2 Bft) 95,12 %
16.12.2017 01:08 1,8 C 3,9 C 85 % 1001,9 hPa 0,0 l/m 7,0 km/h (2 Bft) SW 231 0 min 0,000 mm 0,0 UV-I 0 W/m -0,4 C 1,2 C 8,0 km/h (2 Bft) 94,00 %
16.12.2017 01:10 1,7 C 3,9 C 85 % 1001,8 hPa 0,0 l/m 6,7 km/h (2 Bft) SW 225 0 min 0,000 mm 0,0 UV-I 0 W/m -0,5 C 1,4 C 8,0 km/h (2 Bft) 95,24 %
16.12.2017 01:12 1,6 C 3,9 C 86 % 1001,8 hPa 0,0 l/m 6,3 km/h (2 Bft) SW 231 0 min 0,000 mm 0,0 UV-I 0 W/m -0,5 C 1,6 C 8,0 km/h (2 Bft) 96,00 %
16.12.2017 01:14 1,4 C 3,9 C 86 % 1001,8 hPa 0,0 l/m 6,1 km/h (2 Bft) SW 235 0 min 0,000 mm 0,0 UV-I 0 W/m -0,7 C 1,4 C 8,0 km/h (2 Bft) 96,00 %
16.12.2017 01:16 1,3 C 3,9 C 87 % 1001,9 hPa 0,0 l/m 7,2 km/h (2 Bft) W-SW 242 0 min 0,000 mm 0,0 UV-I 0 W/m -0,6 C 0,5 C 9,7 km/h (2 Bft) 96,15 %
16.12.2017 01:18 1,3 C 3,9 C 87 % 1001,9 hPa 0,0 l/m 5,7 km/h (1 Bft) SW 225 0 min 0,000 mm 0,0 UV-I 0 W/m -0,6 C 1,3 C 8,0 km/h (2 Bft) 96,92 %
16.12.2017 01:20 1,3 C 3,9 C 87 % 1002,0 hPa 0,0 l/m 6,8 km/h (2 Bft) SW 219 0 min 0,000 mm 0,0 UV-I 0 W/m -0,6 C 0,9 C 9,7 km/h (2 Bft) 96,00 %
16.12.2017 01:22 1,3 C 3,9 C 87 % 1002,1 hPa 0,0 l/m 6,3 km/h (2 Bft) SW 214 0 min 0,000 mm 0,0 UV-I 0 W/m -0,6 C 1,3 C 9,7 km/h (2 Bft) 100,00 %
16.12.2017 01:24 1,3 C 3,9 C 87 % 1002,1 hPa 0,0 l/m 4,1 km/h (1 Bft) S-SW 213 0 min 0,000 mm 0,0 UV-I 0 W/m -0,6 C 1,3 C 6,4 km/h (2 Bft) 95,12 %
16.12.2017 01:26 1,3 C 3,9 C 87 % 1002,0 hPa 0,0 l/m 4,6 km/h (1 Bft) SW 230 0 min 0,000 mm 0,0 UV-I 0 W/m -0,6 C 1,3 C 8,0 km/h (2 Bft) 100,00 %
16.12.2017 01:28 1,3 C 3,9 C 86 % 1002,0 hPa 0,0 l/m 5,1 km/h (1 Bft) S-SW 211 0 min 0,000 mm 0,0 UV-I 0 W/m -0,8 C 1,3 C 8,0 km/h (2 Bft) 100,00 %
16.12.2017 01:30 1,4 C 3,9 C 86 % 1002,0 hPa 0,0 l/m 5,2 km/h (1 Bft) SW 232 0 min 0,000 mm 0,0 UV-I 0 W/m -0,7 C 1,4 C 6,4 km/h (2 Bft) 100,00 %
16.12.2017 01:32 1,5 C 3,9 C 86 % 1002,1 hPa 0,0 l/m 5,9 km/h (2 Bft) SW 234 0 min 0,000 mm 0,0 UV-I 0 W/m -0,6 C 1,5 C 6,4 km/h (2 Bft) 97,56 %
16.12.2017 01:34 1,4 C 3,9 C 86 % 1002,0 hPa 0,0 l/m 5,3 km/h (1 Bft) SW 235 0 min 0,000 mm 0,0 UV-I 0 W/m -0,7 C 1,4 C 6,4 km/h (2 Bft) 98,11 %
16.12.2017 01:36 1,3 C 3,9 C 86 % 1002,0 hPa 0,0 l/m 4,5 km/h (1 Bft) SW 228 0 min 0,000 mm 0,0 UV-I 0 W/m -0,8 C 1,3 C 6,4 km/h (2 Bft) 100,00 %
16.12.2017 01:38 1,2 C 3,9 C 86 % 1002,0 hPa 0,0 l/m 4,2 km/h (1 Bft) SW 228 0 min 0,000 mm 0,0 UV-I 0 W/m -0,9 C 1,2 C 6,4 km/h (2 Bft) 100,00 %
16.12.2017 01:40 1,1 C 3,9 C 87 % 1002,0 hPa 0,0 l/m 4,5 km/h (1 Bft) SW 227 0 min 0,000 mm 0,0 UV-I 0 W/m -0,8 C 1,1 C 6,4 km/h (2 Bft) 96,00 %
16.12.2017 01:42 1,1 C 3,9 C 87 % 1002,1 hPa 0,0 l/m 4,8 km/h (1 Bft) S-SW 213 0 min 0,000 mm 0,0 UV-I 0 W/m -0,8 C 1,1 C 6,4 km/h (2 Bft) 100,00 %
16.12.2017 01:44 0,9 C 3,9 C 87 % 1002,2 hPa 0,0 l/m 4,1 km/h (1 Bft) S-SW 201 0 min 0,000 mm 0,0 UV-I 0 W/m -1,0 C 0,9 C 6,4 km/h (2 Bft) 100,00 %
16.12.2017 01:46 0,8 C 3,9 C 88 % 1002,2 hPa 0,0 l/m 3,3 km/h (1 Bft) S-SW 200 0 min 0,000 mm 0,0 UV-I 0 W/m -1,0 C 0,8 C 4,8 km/h (1 Bft) 100,00 %
16.12.2017 01:48 0,9 C 3,9 C 88 % 1002,1 hPa 0,0 l/m 3,3 km/h (1 Bft) S-SW 201 0 min 0,000 mm 0,0 UV-I 0 W/m -0,9 C 0,9 C 4,8 km/h (1 Bft) 98,00 %
16.12.2017 01:50 0,9 C 3,9 C 88 % 1002,1 hPa 0,0 l/m 3,8 km/h (1 Bft) S-SW 205 0 min 0,000 mm 0,0 UV-I 0 W/m -0,9 C 0,9 C 4,8 km/h (1 Bft) 100,00 %
16.12.2017 01:52 1,1 C 3,9 C 87 % 1002,2 hPa 0,0 l/m 4,6 km/h (1 Bft) SW 221 0 min 0,000 mm 0,0 UV-I 0 W/m -0,8 C 1,1 C 6,4 km/h (2 Bft) 97,87 %
16.12.2017 01:54 1,1 C 3,9 C 87 % 1002,1 hPa 0,0 l/m 5,3 km/h (1 Bft) S-SW 211 0 min 0,000 mm 0,0 UV-I 0 W/m -0,8 C 1,1 C 8,0 km/h (2 Bft) 100,00 %
16.12.2017 01:56 1,2 C 3,9 C 87 % 1002,2 hPa 0,0 l/m 5,0 km/h (1 Bft) SW 218 0 min 0,000 mm 0,0 UV-I 0 W/m -0,7 C 1,2 C 8,0 km/h (2 Bft) 100,00 %
16.12.2017 01:58 1,2 C 3,9 C 87 % 1002,2 hPa 0,0 l/m 4,6 km/h (1 Bft) SW 225 0 min 0,000 mm 0,0 UV-I 0 W/m -0,7 C 1,2 C 6,4 km/h (2 Bft) 97,37 %
16.12.2017 02:00 1,2 C 3,9 C 87 % 1002,2 hPa 0,0 l/m 5,5 km/h (1 Bft) SW 232 0 min 0,000 mm 0,0 UV-I 0 W/m -0,7 C 1,2 C 8,0 km/h (2 Bft) 100,00 %
16.12.2017 02:02 1,1 C 3,9 C 87 % 1002,3 hPa 0,0 l/m 4,9 km/h (1 Bft) SW 236 0 min 0,000 mm 0,0 UV-I 0 W/m -0,8 C 1,1 C 6,4 km/h (2 Bft) 100,00 %
16.12.2017 02:04 1,0 C 3,9 C 87 % 1002,2 hPa 0,0 l/m 4,2 km/h (1 Bft) SW 236 0 min 0,000 mm 0,0 UV-I 0 W/m -0,9 C 1,0 C 6,4 km/h (2 Bft) 100,00 %
16.12.2017 02:06 0,9 C 3,9 C 87 % 1002,2 hPa 0,0 l/m 3,6 km/h (1 Bft) SW 236 0 min 0,000 mm 0,0 UV-I 0 W/m -1,0 C 0,9 C 4,8 km/h (1 Bft) 97,87 %
16.12.2017 02:08 0,9 C 3,9 C 87 % 1002,3 hPa 0,0 l/m 4,1 km/h (1 Bft) SW 234 0 min 0,000 mm 0,0 UV-I 0 W/m -1,0 C 0,9 C 6,4 km/h (2 Bft) 100,00 %
16.12.2017 02:10 0,9 C 3,9 C 87 % 1002,4 hPa 0,0 l/m 4,4 km/h (1 Bft) SW 234 0 min 0,000 mm 0,0 UV-I 0 W/m -1,0 C 0,9 C 6,4 km/h (2 Bft) 98,00 %
16.12.2017 02:12 0,9 C 3,9 C 88 % 1002,4 hPa 0,0 l/m 4,1 km/h (1 Bft) SW 234 0 min 0,000 mm 0,0 UV-I 0 W/m -0,9 C 0,9 C 6,4 km/h (2 Bft) 100,00 %
16.12.2017 02:14 0,9 C 3,9 C 87 % 1002,4 hPa 0,0 l/m 3,3 km/h (1 Bft) SW 234 0 min 0,000 mm 0,0 UV-I 0 W/m -1,0 C 0,9 C 4,8 km/h (1 Bft) 100,00 %
16.12.2017 02:16 0,9 C 3,9 C 87 % 1002,4 hPa 0,0 l/m 4,1 km/h (1 Bft) SW 234 0 min 0,000 mm 0,0 UV-I 0 W/m -1,0 C 0,9 C 6,4 km/h (2 Bft) 100,00 %
16.12.2017 02:18 0,9 C 3,9 C 87 % 1002,4 hPa 0,0 l/m 3,9 km/h (1 Bft) SW 234 0 min 0,000 mm 0,0 UV-I 0 W/m -1,0 C 0,9 C 4,8 km/h (1 Bft) 100,00 %
16.12.2017 02:20 0,8 C 3,9 C 87 % 1002,4 hPa 0,0 l/m 3,7 km/h (1 Bft) SW 234 0 min 0,000 mm 0,0 UV-I 0 W/m -1,1 C 0,8 C 6,4 km/h (2 Bft) 100,00 %
16.12.2017 02:22 0,7 C 3,9 C 87 % 1002,4 hPa 0,0 l/m 3,1 km/h (1 Bft) SW 229 0 min 0,000 mm 0,0 UV-I 0 W/m -1,2 C 0,7 C 4,8 km/h (1 Bft) 100,00 %
16.12.2017 02:24 0,5 C 3,9 C 88 % 1002,4 hPa 0,0 l/m 1,9 km/h (1 Bft) SW 220 0 min 0,000 mm 0,0 UV-I 0 W/m -1,3 C 0,5 C 3,2 km/h (1 Bft) 96,30 %
16.12.2017 02:26 0,5 C 3,9 C 89 % 1002,4 hPa 0,0 l/m 1,4 km/h (1 Bft) SW 220 0 min 0,000 mm 0,0 UV-I 0 W/m -1,1 C 0,5 C 3,2 km/h (1 Bft) 98,00 %
16.12.2017 02:28 0,6 C 3,9 C 89 % 1002,4 hPa 0,0 l/m 2,1 km/h (1 Bft) SW 220 0 min 0,000 mm 0,0 UV-I 0 W/m -1,0 C 0,6 C 3,2 km/h (1 Bft) 97,44 %
16.12.2017 02:30 0,6 C 3,9 C 89 % 1002,4 hPa 0,0 l/m 2,6 km/h (1 Bft) S-SW 211 0 min 0,000 mm 0,0 UV-I 0 W/m -1,0 C 0,6 C 4,8 km/h (1 Bft) 100,00 %
16.12.2017 02:32 0,7 C 3,9 C 89 % 1002,4 hPa 0,0 l/m 1,7 km/h (1 Bft) S-SW 209 0 min 0,000 mm 0,0 UV-I 0 W/m -0,9 C 0,7 C 3,2 km/h (1 Bft) 100,00 %
16.12.2017 02:34 0,6 C 3,9 C 88 % 1002,4 hPa 0,0 l/m 1,5 km/h (1 Bft) S-SW 209 0 min 0,000 mm 0,0 UV-I 0 W/m -1,2 C 0,6 C 3,2 km/h (1 Bft) 100,00 %
16.12.2017 02:36 0,4 C 3,9 C 89 % 1002,5 hPa 0,0 l/m 1,5 km/h (1 Bft) S-SW 209 0 min 0,000 mm 0,0 UV-I 0 W/m -1,2 C 0,4 C 3,2 km/h (1 Bft) 100,00 %
16.12.2017 02:38 0,3 C 3,9 C 89 % 1002,5 hPa 0,0 l/m 2,3 km/h (1 Bft) S-SW 209 0 min 0,000 mm 0,0 UV-I 0 W/m -1,3 C 0,3 C 3,2 km/h (1 Bft) 98,00 %
16.12.2017 02:40 0,2 C 3,9 C 89 % 1002,5 hPa 0,0 l/m 1,8 km/h (1 Bft) S-SW 209 0 min 0,000 mm 0,0 UV-I 0 W/m -1,4 C 0,2 C 3,2 km/h (1 Bft) 100,00 %
16.12.2017 02:42 0,0 C 3,9 C 89 % 1002,5 hPa 0,0 l/m 1,4 km/h (1 Bft) S-SW 209 0 min 0,000 mm 0,0 UV-I 0 W/m -1,6 C 0,0 C 1,6 km/h (1 Bft) 100,00 %
16.12.2017 02:44 -0,1 C 3,9 C 90 % 1002,5 hPa 0,0 l/m 1,7 km/h (1 Bft) S-SW 209 0 min 0,000 mm 0,0 UV-I 0 W/m -1,5 C -0,1 C 3,2 km/h (1 Bft) 100,00 %
16.12.2017 02:46 -0,1 C 3,9 C 90 % 1002,5 hPa 0,0 l/m 2,2 km/h (1 Bft) S-SW 209 0 min 0,000 mm 0,0 UV-I 0 W/m -1,5 C -0,1 C 4,8 km/h (1 Bft) 100,00 %
16.12.2017 02:48 0,0 C 3,9 C 90 % 1002,4 hPa 0,0 l/m 3,7 km/h (1 Bft) S-SW 209 0 min 0,000 mm 0,0 UV-I 0 W/m -1,4 C 0,0 C 4,8 km/h (1 Bft) 100,00 %
16.12.2017 02:50 0,0 C 3,9 C 90 % 1002,5 hPa 0,0 l/m 3,1 km/h (1 Bft) S-SW 209 0 min 0,000 mm 0,0 UV-I 0 W/m -1,4 C 0,0 C 4,8 km/h (1 Bft) 97,56 %
16.12.2017 02:52 0,0 C 3,9 C 90 % 1002,5 hPa 0,0 l/m 3,9 km/h (1 Bft) S-SW 209 0 min 0,000 mm 0,0 UV-I 0 W/m -1,4 C 0,0 C 4,8 km/h (1 Bft) 100,00 %
16.12.2017 02:54 -0,1 C 3,9 C 90 % 1002,6 hPa 0,0 l/m 2,6 km/h (1 Bft) S-SW 209 0 min 0,000 mm 0,0 UV-I 0 W/m -1,5 C -0,1 C 4,8 km/h (1 Bft) 100,00 %
16.12.2017 02:56 -0,3 C 3,9 C 90 % 1002,6 hPa 0,0 l/m 2,7 km/h (1 Bft) S-SW 209 0 min 0,000 mm 0,0 UV-I 0 W/m -1,7 C -0,3 C 4,8 km/h (1 Bft) 100,00 %
16.12.2017 02:58 -0,2 C 3,9 C 91 % 1002,6 hPa 0,0 l/m 4,3 km/h (1 Bft) S-SW 209 0 min 0,000 mm 0,0 UV-I 0 W/m -1,5 C -0,2 C 6,4 km/h (2 Bft) 100,00 %
16.12.2017 03:00 -0,2 C 3,9 C 90 % 1002,6 hPa 0,0 l/m 4,0 km/h (1 Bft) S-SW 209 0 min 0,000 mm 0,0 UV-I 0 W/m -1,6 C -0,2 C 4,8 km/h (1 Bft) 97,87 %
16.12.2017 03:02 -0,2 C 3,9 C 90 % 1002,6 hPa 0,0 l/m 3,7 km/h (1 Bft) S-SW 209 0 min 0,000 mm 0,0 UV-I 0 W/m -1,6 C -0,2 C 4,8 km/h (1 Bft) 100,00 %
16.12.2017 03:04 -0,1 C 3,9 C 90 % 1002,6 hPa 0,0 l/m 3,5 km/h (1 Bft) S-SW 209 0 min 0,000 mm 0,0 UV-I 0 W/m -1,5 C -0,1 C 4,8 km/h (1 Bft) 100,00 %
16.12.2017 03:06 -0,1 C 3,9 C 90 % 1002,5 hPa 0,0 l/m 3,3 km/h (1 Bft) S-SW 209 0 min 0,000 mm 0,0 UV-I 0 W/m -1,5 C -0,1 C 4,8 km/h (1 Bft) 96,23 %
16.12.2017 03:08 -0,2 C 3,9 C 90 % 1002,6 hPa 0,0 l/m 3,1 km/h (1 Bft) S-SW 209 0 min 0,000 mm 0,0 UV-I 0 W/m -1,6 C -0,2 C 4,8 km/h (1 Bft) 94,87 %
16.12.2017 03:10 -0,2 C 3,9 C 90 % 1002,6 hPa 0,0 l/m 3,0 km/h (1 Bft) S-SW 209 0 min 0,000 mm 0,0 UV-I 0 W/m -1,6 C -0,2 C 4,8 km/h (1 Bft) 95,74 %
16.12.2017 03:12 -0,3 C 3,9 C 91 % 1002,5 hPa 0,0 l/m 2,0 km/h (1 Bft) S-SW 209 0 min 0,000 mm 0,0 UV-I 0 W/m -1,6 C -0,3 C 3,2 km/h (1 Bft) 98,00 %
16.12.2017 03:14 -0,4 C 3,9 C 91 % 1002,5 hPa 0,0 l/m 1,2 km/h (1 Bft) S-SW 209 0 min 0,000 mm 0,0 UV-I 0 W/m -1,7 C -0,4 C 1,6 km/h (1 Bft) 98,11 %
16.12.2017 03:16 -0,5 C 3,9 C 91 % 1002,5 hPa 0,0 l/m 1,0 km/h (0 Bft) S-SW 209 0 min 0,000 mm 0,0 UV-I 0 W/m -1,8 C -0,5 C 1,6 km/h (1 Bft) 97,37 %
16.12.2017 03:18 -0,5 C 3,9 C 92 % 1002,6 hPa 0,0 l/m 0,7 km/h (0 Bft) S-SW 209 0 min 0,000 mm 0,0 UV-I 0 W/m -1,6 C -0,5 C 1,6 km/h (1 Bft) 98,11 %
16.12.2017 03:20 -0,4 C 3,9 C 92 % 1002,6 hPa 0,0 l/m 1,0 km/h (0 Bft) S-SW 209 0 min 0,000 mm 0,0 UV-I 0 W/m -1,5 C -0,4 C 3,2 km/h (1 Bft) 98,00 %
16.12.2017 03:22 -0,4 C 3,9 C 92 % 1002,6 hPa 0,0 l/m 2,3 km/h (1 Bft) S-SW 209 0 min 0,000 mm 0,0 UV-I 0 W/m -1,5 C -0,4 C 3,2 km/h (1 Bft) 97,56 %
16.12.2017 03:24 -0,3 C 3,9 C 92 % 1002,5 hPa 0,0 l/m 1,9 km/h (1 Bft) S-SW 209 0 min 0,000 mm 0,0 UV-I 0 W/m -1,4 C -0,3 C 3,2 km/h (1 Bft) 94,34 %
16.12.2017 03:26 -0,2 C 3,9 C 92 % 1002,5 hPa 0,0 l/m 2,6 km/h (1 Bft) S-SW 209 0 min 0,000 mm 0,0 UV-I 0 W/m -1,3 C -0,2 C 4,8 km/h (1 Bft) 97,56 %
16.12.2017 03:28 -0,2 C 3,9 C 91 % 1002,5 hPa 0,0 l/m 2,8 km/h (1 Bft) S-SW 209 0 min 0,000 mm 0,0 UV-I 0 W/m -1,5 C -0,2 C 3,2 km/h (1 Bft) 93,62 %
16.12.2017 03:30 -0,2 C 3,9 C 91 % 1002,5 hPa 0,0 l/m 3,1 km/h (1 Bft) S-SW 209 0 min 0,000 mm 0,0 UV-I 0 W/m -1,5 C -0,2 C 4,8 km/h (1 Bft) 97,87 %
16.12.2017 03:32 -0,2 C 3,9 C 91 % 1002,6 hPa 0,0 l/m 2,7 km/h (1 Bft) S-SW 209 0 min 0,000 mm 0,0 UV-I 0 W/m -1,5 C -0,2 C 3,2 km/h (1 Bft) 97,37 %
16.12.2017 03:34 -0,3 C 3,9 C 91 % 1002,6 hPa 0,0 l/m 2,6 km/h (1 Bft) S-SW 209 0 min 0,000 mm 0,0 UV-I 0 W/m -1,6 C -0,3 C 3,2 km/h (1 Bft) 98,00 %
16.12.2017 03:36 -0,3 C 3,9 C 91 % 1002,5 hPa 0,0 l/m 2,5 km/h (1 Bft) S-SW 209 0 min 0,000 mm 0,0 UV-I 0 W/m -1,6 C -0,3 C 3,2 km/h (1 Bft) 96,43 %
16.12.2017 03:38 -0,4 C 3,9 C 91 % 1002,5 hPa 0,0 l/m 2,9 km/h (1 Bft) S-SW 209 0 min 0,000 mm 0,0 UV-I 0 W/m -1,7 C -0,4 C 3,2 km/h (1 Bft) 97,37 %
16.12.2017 03:40 -0,4 C 3,9 C 91 % 1002,5 hPa 0,0 l/m 2,4 km/h (1 Bft) S-SW 209 0 min 0,000 mm 0,0 UV-I 0 W/m -1,7 C -0,4 C 3,2 km/h (1 Bft) 93,62 %
16.12.2017 03:42 -0,4 C 3,9 C 91 % 1002,5 hPa 0,0 l/m 2,0 km/h (1 Bft) S-SW 209 0 min 0,000 mm 0,0 UV-I 0 W/m -1,7 C -0,4 C 3,2 km/h (1 Bft) 96,00 %
16.12.2017 03:44 -0,3 C 3,9 C 91 % 1002,5 hPa 0,0 l/m 2,4 km/h (1 Bft) S-SW 209 0 min 0,000 mm 0,0 UV-I 0 W/m -1,6 C -0,3 C 3,2 km/h (1 Bft) 98,11 %
16.12.2017 03:46 -0,2 C 3,9 C 91 % 1002,6 hPa 0,0 l/m 2,7 km/h (1 Bft) S-SW 209 0 min 0,000 mm 0,0 UV-I 0 W/m -1,5 C -0,2 C 3,2 km/h (1 Bft) 100,00 %
16.12.2017 03:49 -0,2 C 3,9 C 91 % 1002,5 hPa 0,0 l/m 2,2 km/h (1 Bft) S-SW 209 0 min 0,000 mm 0,0 UV-I 0 W/m -1,5 C -0,2 C 3,2 km/h (1 Bft) 97,26 %
16.12.2017 03:50 -0,3 C 3,9 C 91 % 1002,5 hPa 0,0 l/m 2,4 km/h (1 Bft) S-SW 209 0 min 0,000 mm 0,0 UV-I 0 W/m -1,6 C -0,3 C 3,2 km/h (1 Bft) 100,00 %
16.12.2017 03:52 -0,3 C 3,9 C 91 % 1002,6 hPa 0,0 l/m 2,9 km/h (1 Bft) S-SW 209 0 min 0,000 mm 0,0 UV-I 0 W/m -1,6 C -0,3 C 4,8 km/h (1 Bft) 100,00 %
16.12.2017 03:54 -0,3 C 3,9 C 91 % 1002,6 hPa 0,0 l/m 1,6 km/h (1 Bft) S-SW 209 0 min 0,000 mm 0,0 UV-I 0 W/m -1,6 C -0,3 C 3,2 km/h (1 Bft) 100,00 %
16.12.2017 03:56 -0,4 C 3,9 C 91 % 1002,6 hPa 0,0 l/m 1,4 km/h (1 Bft) S-SW 209 0 min 0,000 mm 0,0 UV-I 0 W/m -1,7 C -0,4 C 3,2 km/h (1 Bft) 97,14 %
16.12.2017 03:58 -0,4 C 3,9 C 91 % 1002,5 hPa 0,0 l/m 1,2 km/h (1 Bft) S-SW 209 0 min 0,000 mm 0,0 UV-I 0 W/m -1,7 C -0,4 C 1,6 km/h (1 Bft) 98,46 %
16.12.2017 04:00 -0,4 C 3,9 C 92 % 1002,6 hPa 0,0 l/m 1,2 km/h (1 Bft) S-SW 209 0 min 0,000 mm 0,0 UV-I 0 W/m -1,5 C -0,4 C 1,6 km/h (1 Bft) 97,56 %
16.12.2017 04:02 -0,4 C 3,9 C 92 % 1002,5 hPa 0,0 l/m 1,0 km/h (0 Bft) S-SW 209 0 min 0,000 mm 0,0 UV-I 0 W/m -1,5 C -0,4 C 1,6 km/h (1 Bft) 100,00 %
16.12.2017 04:04 -0,3 C 3,9 C 92 % 1002,6 hPa 0,0 l/m 0,0 km/h (0 Bft) S-SW 209 0 min 0,000 mm 0,0 UV-I 0 W/m -1,4 C -0,3 C 0,0 km/h (0 Bft) 91,07 %
16.12.2017 04:06 -0,2 C 3,9 C 92 % 1002,6 hPa 0,0 l/m 0,0 km/h (0 Bft) S-SW 209 0 min 0,000 mm 0,0 UV-I 0 W/m -1,3 C -0,2 C 0,0 km/h (0 Bft) 97,37 %
16.12.2017 04:08 -0,1 C 3,9 C 92 % 1002,6 hPa 0,0 l/m 0,0 km/h (0 Bft) S-SW 209 0 min 0,000 mm 0,0 UV-I 0 W/m -1,2 C -0,1 C 0,0 km/h (0 Bft) 95,74 %
16.12.2017 04:10 -0,1 C 3,9 C 91 % 1002,6 hPa 0,0 l/m 0,0 km/h (0 Bft) S-SW 209 0 min 0,000 mm 0,0 UV-I 0 W/m -1,4 C -0,1 C 0,0 km/h (0 Bft) 98,11 %
16.12.2017 04:12 -0,1 C 3,9 C 91 % 1002,6 hPa 0,0 l/m 0,0 km/h (0 Bft) S-SW 209 0 min 0,000 mm 0,0 UV-I 0 W/m -1,4 C -0,1 C 0,0 km/h (0 Bft) 98,00 %
16.12.2017 04:14 0,0 C 3,9 C 91 % 1002,6 hPa 0,0 l/m 0,0 km/h (0 Bft) S-SW 209 0 min 0,000 mm 0,0 UV-I 0 W/m -1,3 C 0,0 C 0,0 km/h (0 Bft) 95,74 %
16.12.2017 04:16 -0,1 C 3,9 C 91 % 1002,6 hPa 0,0 l/m 0,0 km/h (0 Bft) S-SW 209 0 min 0,000 mm 0,0 UV-I 0 W/m -1,4 C -0,1 C 0,0 km/h (0 Bft) 95,74 %
16.12.2017 04:18 -0,2 C 3,9 C 91 % 1002,7 hPa 0,0 l/m 0,0 km/h (0 Bft) S-SW 209 0 min 0,000 mm 0,0 UV-I 0 W/m -1,5 C -0,2 C 0,0 km/h (0 Bft) 97,56 %
16.12.2017 04:20 -0,3 C 3,9 C 91 % 1002,7 hPa 0,0 l/m 0,2 km/h (0 Bft) S-SW 209 0 min 0,000 mm 0,0 UV-I 0 W/m -1,6 C -0,3 C 1,6 km/h (1 Bft) 98,11 %
16.12.2017 04:22 -0,4 C 3,9 C 91 % 1002,7 hPa 0,0 l/m 0,3 km/h (0 Bft) S-SW 209 0 min 0,000 mm 0,0 UV-I 0 W/m -1,7 C -0,4 C 1,6 km/h (1 Bft) 94,74 %
16.12.2017 04:24 -0,5 C 3,9 C 92 % 1002,7 hPa 0,0 l/m 0,2 km/h (0 Bft) S-SW 209 0 min 0,000 mm 0,0 UV-I 0 W/m -1,6 C -0,5 C 1,6 km/h (1 Bft) 97,87 %
16.12.2017 04:26 -0,6 C 3,9 C 92 % 1002,7 hPa 0,0 l/m 0,0 km/h (0 Bft) S-SW 209 0 min 0,000 mm 0,0 UV-I 0 W/m -1,7 C -0,6 C 0,0 km/h (0 Bft) 94,44 %
16.12.2017 04:28 -0,6 C 3,9 C 92 % 1002,6 hPa 0,0 l/m 0,3 km/h (0 Bft) S-SW 209 0 min 0,000 mm 0,0 UV-I 0 W/m -1,7 C -0,6 C 1,6 km/h (1 Bft) 96,88 %
16.12.2017 04:30 -0,6 C 3,9 C 93 % 1002,6 hPa 0,0 l/m 1,2 km/h (1 Bft) S-SW 209 0 min 0,000 mm 0,0 UV-I 0 W/m -1,6 C -0,6 C 1,6 km/h (1 Bft) 97,78 %
16.12.2017 04:32 -0,6 C 3,9 C 93 % 1002,6 hPa 0,0 l/m 1,0 km/h (0 Bft) S-SW 209 0 min 0,000 mm 0,0 UV-I 0 W/m -1,6 C -0,6 C 3,2 km/h (1 Bft) 92,11 %
16.12.2017 04:34 -0,6 C 3,9 C 93 % 1002,7 hPa 0,0 l/m 0,1 km/h (0 Bft) S-SW 209 0 min 0,000 mm 0,0 UV-I 0 W/m -1,6 C -0,6 C 1,6 km/h (1 Bft) 96,23 %
16.12.2017 04:36 -0,6 C 3,9 C 93 % 1002,6 hPa 0,0 l/m 1,2 km/h (1 Bft) S-SW 209 0 min 0,000 mm 0,0 UV-I 0 W/m -1,6 C -0,6 C 3,2 km/h (1 Bft) 98,00 %
16.12.2017 04:38 -0,4 C 3,9 C 93 % 1002,7 hPa 0,0 l/m 1,9 km/h (1 Bft) S-SW 209 0 min 0,000 mm 0,0 UV-I 0 W/m -1,4 C -0,4 C 3,2 km/h (1 Bft) 98,00 %
16.12.2017 04:40 -0,3 C 3,9 C 93 % 1002,7 hPa 0,0 l/m 2,4 km/h (1 Bft) S-SW 209 0 min 0,000 mm 0,0 UV-I 0 W/m -1,3 C -0,3 C 3,2 km/h (1 Bft) 97,56 %
16.12.2017 04:42 -0,3 C 3,9 C 93 % 1002,7 hPa 0,0 l/m 2,4 km/h (1 Bft) S-SW 209 0 min 0,000 mm 0,0 UV-I 0 W/m -1,3 C -0,3 C 3,2 km/h (1 Bft) 98,11 %
16.12.2017 04:44 -0,3 C 3,9 C 92 % 1002,7 hPa 0,0 l/m 3,2 km/h (1 Bft) S-SW 209 0 min 0,000 mm 0,0 UV-I 0 W/m -1,4 C -0,3 C 4,8 km/h (1 Bft) 95,74 %
16.12.2017 04:46 -0,3 C 3,9 C 92 % 1002,7 hPa 0,0 l/m 3,3 km/h (1 Bft) S-SW 209 0 min 0,000 mm 0,0 UV-I 0 W/m -1,4 C -0,3 C 4,8 km/h (1 Bft) 100,00 %
16.12.2017 04:48 -0,4 C 3,9 C 91 % 1002,7 hPa 0,0 l/m 3,2 km/h (1 Bft) S-SW 209 0 min 0,000 mm 0,0 UV-I 0 W/m -1,7 C -0,4 C 4,8 km/h (1 Bft) 96,00 %
16.12.2017 04:50 -0,7 C 3,9 C 91 % 1002,7 hPa 0,0 l/m 2,0 km/h (1 Bft) S-SW 209 0 min 0,000 mm 0,0 UV-I 0 W/m -2,0 C -0,7 C 3,2 km/h (1 Bft) 98,00 %
16.12.2017 04:52 -0,8 C 3,9 C 92 % 1002,7 hPa 0,0 l/m 2,1 km/h (1 Bft) S-SW 209 0 min 0,000 mm 0,0 UV-I 0 W/m -1,9 C -0,8 C 3,2 km/h (1 Bft) 97,56 %
16.12.2017 04:54 -0,9 C 3,9 C 93 % 1002,8 hPa 0,0 l/m 1,0 km/h (0 Bft) S-SW 209 0 min 0,000 mm 0,0 UV-I 0 W/m -1,9 C -0,9 C 3,2 km/h (1 Bft) 98,00 %
16.12.2017 04:56 -0,8 C 3,9 C 93 % 1002,9 hPa 0,0 l/m 1,5 km/h (1 Bft) S-SW 209 0 min 0,000 mm 0,0 UV-I 0 W/m -1,8 C -0,8 C 3,2 km/h (1 Bft) 97,56 %
16.12.2017 04:58 -0,8 C 3,9 C 93 % 1002,8 hPa 0,0 l/m 2,4 km/h (1 Bft) S-SW 209 0 min 0,000 mm 0,0 UV-I 0 W/m -1,8 C -0,8 C 3,2 km/h (1 Bft) 98,00 %
16.12.2017 05:00 -0,8 C 3,9 C 93 % 1002,9 hPa 0,0 l/m 1,9 km/h (1 Bft) S-SW 209 0 min 0,000 mm 0,0 UV-I 0 W/m -1,8 C -0,8 C 3,2 km/h (1 Bft) 95,12 %
16.12.2017 05:02 -0,7 C 3,9 C 93 % 1002,9 hPa 0,0 l/m 0,9 km/h (0 Bft) S-SW 209 0 min 0,000 mm 0,0 UV-I 0 W/m -1,7 C -0,7 C 1,6 km/h (1 Bft) 98,11 %
16.12.2017 05:04 -0,7 C 3,9 C 93 % 1002,9 hPa 0,0 l/m 0,7 km/h (0 Bft) S-SW 209 0 min 0,000 mm 0,0 UV-I 0 W/m -1,7 C -0,7 C 1,6 km/h (1 Bft) 97,87 %
16.12.2017 05:06 -0,7 C 3,9 C 93 % 1002,9 hPa 0,0 l/m 1,3 km/h (1 Bft) S-SW 209 0 min 0,000 mm 0,0 UV-I 0 W/m -1,7 C -0,7 C 3,2 km/h (1 Bft) 97,87 %
16.12.2017 05:08 -0,7 C 3,9 C 93 % 1002,9 hPa 0,0 l/m 1,5 km/h (1 Bft) S-SW 209 0 min 0,000 mm 0,0 UV-I 0 W/m -1,7 C -0,7 C 3,2 km/h (1 Bft) 98,11 %
16.12.2017 05:10 -0,7 C 3,9 C 93 % 1003,0 hPa 0,0 l/m 2,3 km/h (1 Bft) S-SW 209 0 min 0,000 mm 0,0 UV-I 0 W/m -1,7 C -0,7 C 3,2 km/h (1 Bft) 97,44 %
16.12.2017 05:12 -0,6 C 3,9 C 93 % 1002,9 hPa 0,0 l/m 1,9 km/h (1 Bft) S-SW 209 0 min 0,000 mm 0,0 UV-I 0 W/m -1,6 C -0,6 C 3,2 km/h (1 Bft) 100,00 %
16.12.2017 05:14 -0,6 C 3,9 C 93 % 1002,9 hPa 0,0 l/m 0,7 km/h (0 Bft) S-SW 209 0 min 0,000 mm 0,0 UV-I 0 W/m -1,6 C -0,6 C 3,2 km/h (1 Bft) 100,00 %
16.12.2017 05:16 -0,6 C 3,9 C 93 % 1002,9 hPa 0,0 l/m 2,4 km/h (1 Bft) S-SW 209 0 min 0,000 mm 0,0 UV-I 0 W/m -1,6 C -0,6 C 3,2 km/h (1 Bft) 100,00 %
16.12.2017 05:18 -0,6 C 3,9 C 93 % 1002,9 hPa 0,0 l/m 2,9 km/h (1 Bft) S-SW 209 0 min 0,000 mm 0,0 UV-I 0 W/m -1,6 C -0,6 C 4,8 km/h (1 Bft) 100,00 %
16.12.2017 05:20 -0,8 C 3,9 C 92 % 1002,9 hPa 0,0 l/m 2,4 km/h (1 Bft) S-SW 209 0 min 0,000 mm 0,0 UV-I 0 W/m -1,9 C -0,8 C 4,8 km/h (1 Bft) 100,00 %
16.12.2017 05:22 -0,8 C 3,9 C 93 % 1003,0 hPa 0,0 l/m 0,8 km/h (0 Bft) S-SW 209 0 min 0,000 mm 0,0 UV-I 0 W/m -1,8 C -0,8 C 1,6 km/h (1 Bft) 100,00 %
16.12.2017 05:24 -0,9 C 3,9 C 93 % 1003,0 hPa 0,0 l/m 1,6 km/h (1 Bft) S-SW 209 0 min 0,000 mm 0,0 UV-I 0 W/m -1,9 C -0,9 C 3,2 km/h (1 Bft) 100,00 %
16.12.2017 05:26 -0,9 C 3,9 C 93 % 1003,1 hPa 0,0 l/m 2,3 km/h (1 Bft) S-SW 209 0 min 0,000 mm 0,0 UV-I 0 W/m -1,9 C -0,9 C 4,8 km/h (1 Bft) 98,11 %
16.12.2017 05:28 -0,9 C 3,9 C 93 % 1003,1 hPa 0,0 l/m 1,9 km/h (1 Bft) S-SW 209 0 min 0,000 mm 0,0 UV-I 0 W/m -1,9 C -0,9 C 4,8 km/h (1 Bft) 97,87 %
16.12.2017 05:30 -0,9 C 3,9 C 93 % 1003,1 hPa 0,0 l/m 0,4 km/h (0 Bft) S-SW 209 0 min 0,000 mm 0,0 UV-I 0 W/m -1,9 C -0,9 C 1,6 km/h (1 Bft) 95,45 %
16.12.2017 05:32 -0,9 C 3,9 C 93 % 1003,1 hPa 0,0 l/m 0,1 km/h (0 Bft) S-SW 209 0 min 0,000 mm 0,0 UV-I 0 W/m -1,9 C -0,9 C 1,6 km/h (1 Bft) 98,11 %
16.12.2017 05:34 -0,8 C 3,9 C 93 % 1003,1 hPa 0,0 l/m 0,9 km/h (0 Bft) S-SW 209 0 min 0,000 mm 0,0 UV-I 0 W/m -1,8 C -0,8 C 3,2 km/h (1 Bft) 94,00 %
16.12.2017 05:36 -0,7 C 3,9 C 93 % 1003,3 hPa 0,0 l/m 1,6 km/h (1 Bft) S-SW 209 0 min 0,000 mm 0,0 UV-I 0 W/m -1,7 C -0,7 C 3,2 km/h (1 Bft) 97,87 %
16.12.2017 05:38 -0,7 C 3,9 C 94 % 1003,3 hPa 0,0 l/m 2,2 km/h (1 Bft) S-SW 209 0 min 0,000 mm 0,0 UV-I 0 W/m -1,5 C -0,7 C 3,2 km/h (1 Bft) 97,37 %
16.12.2017 05:40 -0,8 C 3,9 C 94 % 1003,3 hPa 0,0 l/m 0,4 km/h (0 Bft) S-SW 209 0 min 0,000 mm 0,0 UV-I 0 W/m -1,6 C -0,8 C 1,6 km/h (1 Bft) 97,87 %
16.12.2017 05:42 -0,8 C 3,9 C 94 % 1003,3 hPa 0,0 l/m 0,9 km/h (0 Bft) S-SW 209 0 min 0,000 mm 0,0 UV-I 0 W/m -1,6 C -0,8 C 3,2 km/h (1 Bft) 95,74 %
16.12.2017 05:44 -0,8 C 3,9 C 94 % 1003,4 hPa 0,0 l/m 0,0 km/h (0 Bft) S-SW 209 0 min 0,000 mm 0,0 UV-I 0 W/m -1,6 C -0,8 C 0,0 km/h (0 Bft) 94,00 %
16.12.2017 05:46 -0,8 C 3,9 C 94 % 1003,4 hPa 0,0 l/m 0,0 km/h (0 Bft) S-SW 209 0 min 0,000 mm 0,0 UV-I 0 W/m -1,6 C -0,8 C 0,0 km/h (0 Bft) 97,87 %
16.12.2017 05:48 -0,8 C 3,9 C 94 % 1003,3 hPa 0,0 l/m 0,0 km/h (0 Bft) S-SW 209 0 min 0,000 mm 0,0 UV-I 0 W/m -1,6 C -0,8 C 0,0 km/h (0 Bft) 96,00 %
16.12.2017 05:50 -0,8 C 3,9 C 94 % 1003,3 hPa 0,0 l/m 1,4 km/h (1 Bft) S-SW 209 0 min 0,000 mm 0,0 UV-I 0 W/m -1,6 C -0,8 C 3,2 km/h (1 Bft) 97,22 %
16.12.2017 05:52 -0,8 C 3,9 C 94 % 1003,3 hPa 0,0 l/m 0,0 km/h (0 Bft) S-SW 209 0 min 0,000 mm 0,0 UV-I 0 W/m -1,6 C -0,8 C 1,6 km/h (1 Bft) 98,00 %
16.12.2017 05:54 -0,9 C 3,9 C 93 % 1003,3 hPa 0,0 l/m 1,7 km/h (1 Bft) S-SW 209 0 min 0,000 mm 0,0 UV-I 0 W/m -1,9 C -0,9 C 3,2 km/h (1 Bft) 97,87 %
16.12.2017 05:56 -0,9 C 3,9 C 94 % 1003,3 hPa 0,0 l/m 0,9 km/h (0 Bft) S-SW 209 0 min 0,000 mm 0,0 UV-I 0 W/m -1,7 C -0,9 C 3,2 km/h (1 Bft) 96,00 %
16.12.2017 05:58 -0,9 C 3,9 C 93 % 1003,3 hPa 0,0 l/m 0,6 km/h (0 Bft) S-SW 209 0 min 0,000 mm 0,0 UV-I 0 W/m -1,9 C -0,9 C 1,6 km/h (1 Bft) 97,73 %
16.12.2017 06:00 -0,9 C 3,9 C 93 % 1003,3 hPa 0,0 l/m 0,0 km/h (0 Bft) S-SW 209 0 min 0,000 mm 0,0 UV-I 0 W/m -1,9 C -0,9 C 0,0 km/h (0 Bft) 97,87 %
16.12.2017 06:02 -1,0 C 3,9 C 94 % 1003,3 hPa 0,0 l/m 0,3 km/h (0 Bft) S-SW 209 0 min 0,000 mm 0,0 UV-I 0 W/m -1,8 C -1,0 C 1,6 km/h (1 Bft) 96,00 %
16.12.2017 06:04 -1,0 C 3,9 C 94 % 1003,3 hPa 0,0 l/m 1,2 km/h (1 Bft) S-SW 209 0 min 0,000 mm 0,0 UV-I 0 W/m -1,8 C -1,0 C 3,2 km/h (1 Bft) 96,23 %
16.12.2017 06:06 -1,1 C 3,9 C 94 % 1003,3 hPa 0,0 l/m 2,7 km/h (1 Bft) S-SW 209 0 min 0,000 mm 0,0 UV-I 0 W/m -1,9 C -1,1 C 4,8 km/h (1 Bft) 97,37 %
16.12.2017 06:08 -1,0 C 3,9 C 94 % 1003,3 hPa 0,0 l/m 3,4 km/h (1 Bft) S-SW 209 0 min 0,000 mm 0,0 UV-I 0 W/m -1,8 C -1,0 C 4,8 km/h (1 Bft) 97,87 %
16.12.2017 06:10 -0,9 C 3,9 C 94 % 1003,3 hPa 0,0 l/m 3,4 km/h (1 Bft) S-SW 209 0 min 0,000 mm 0,0 UV-I 0 W/m -1,7 C -0,9 C 4,8 km/h (1 Bft) 100,00 %
16.12.2017 06:12 -0,9 C 3,9 C 93 % 1003,4 hPa 0,0 l/m 1,8 km/h (1 Bft) S-SW 209 0 min 0,000 mm 0,0 UV-I 0 W/m -1,9 C -0,9 C 3,2 km/h (1 Bft) 96,23 %
16.12.2017 06:14 -0,9 C 3,9 C 93 % 1003,4 hPa 0,0 l/m 2,7 km/h (1 Bft) S-SW 209 0 min 0,000 mm 0,0 UV-I 0 W/m -1,9 C -0,9 C 4,8 km/h (1 Bft) 100,00 %
16.12.2017 06:16 -0,9 C 3,9 C 93 % 1003,4 hPa 0,0 l/m 2,2 km/h (1 Bft) S-SW 209 0 min 0,000 mm 0,0 UV-I 0 W/m -1,9 C -0,9 C 4,8 km/h (1 Bft) 100,00 %
16.12.2017 06:18 -1,0 C 3,9 C 94 % 1003,4 hPa 0,0 l/m 3,6 km/h (1 Bft) S-SW 209 0 min 0,000 mm 0,0 UV-I 0 W/m -1,8 C -1,0 C 6,4 km/h (2 Bft) 100,00 %
16.12.2017 06:20 -1,1 C 3,9 C 94 % 1003,4 hPa 0,0 l/m 4,8 km/h (1 Bft) S-SW 208 0 min 0,000 mm 0,0 UV-I 0 W/m -1,9 C -1,1 C 6,4 km/h (2 Bft) 97,87 %
16.12.2017 06:22 -1,1 C 3,9 C 94 % 1003,4 hPa 0,0 l/m 5,7 km/h (1 Bft) S-SW 208 0 min 0,000 mm 0,0 UV-I 0 W/m -1,9 C -1,1 C 6,4 km/h (2 Bft) 98,11 %
16.12.2017 06:24 -1,1 C 3,9 C 94 % 1003,4 hPa 0,0 l/m 4,4 km/h (1 Bft) S-SW 208 0 min 0,000 mm 0,0 UV-I 0 W/m -1,9 C -1,1 C 6,4 km/h (2 Bft) 100,00 %
16.12.2017 06:26 -1,0 C 3,9 C 94 % 1003,4 hPa 0,0 l/m 3,0 km/h (1 Bft) S-SW 208 0 min 0,000 mm 0,0 UV-I 0 W/m -1,8 C -1,0 C 4,8 km/h (1 Bft) 100,00 %
16.12.2017 06:28 -1,1 C 3,9 C 94 % 1003,5 hPa 0,0 l/m 4,3 km/h (1 Bft) SW 236 0 min 0,000 mm 0,0 UV-I 0 W/m -1,9 C -1,1 C 6,4 km/h (2 Bft) 100,00 %
16.12.2017 06:30 -0,9 C 3,9 C 94 % 1003,5 hPa 0,0 l/m 4,5 km/h (1 Bft) SW 231 0 min 0,000 mm 0,0 UV-I 0 W/m -1,7 C -0,9 C 6,4 km/h (2 Bft) 97,44 %
16.12.2017 06:32 -0,8 C 3,9 C 94 % 1003,5 hPa 0,0 l/m 4,4 km/h (1 Bft) SW 231 0 min 0,000 mm 0,0 UV-I 0 W/m -1,6 C -0,8 C 6,4 km/h (2 Bft) 97,87 %
16.12.2017 06:34 -0,8 C 3,9 C 93 % 1003,5 hPa 0,0 l/m 4,1 km/h (1 Bft) SW 231 0 min 0,000 mm 0,0 UV-I 0 W/m -1,8 C -0,8 C 4,8 km/h (1 Bft) 100,00 %
16.12.2017 06:36 -0,8 C 3,9 C 93 % 1003,5 hPa 0,0 l/m 4,8 km/h (1 Bft) SW 231 0 min 0,000 mm 0,0 UV-I 0 W/m -1,8 C -0,8 C 8,0 km/h (2 Bft) 100,00 %
16.12.2017 06:38 -0,7 C 3,9 C 93 % 1003,5 hPa 0,0 l/m 4,3 km/h (1 Bft) SW 231 0 min 0,000 mm 0,0 UV-I 0 W/m -1,7 C -0,7 C 6,4 km/h (2 Bft) 100,00 %
16.12.2017 06:40 -0,7 C 3,9 C 93 % 1003,6 hPa 0,0 l/m 4,0 km/h (1 Bft) SW 231 0 min 0,000 mm 0,0 UV-I 0 W/m -1,7 C -0,7 C 4,8 km/h (1 Bft) 100,00 %
16.12.2017 06:42 -0,7 C 3,9 C 93 % 1003,7 hPa 0,0 l/m 4,1 km/h (1 Bft) W-SW 240 0 min 0,000 mm 0,0 UV-I 0 W/m -1,7 C -0,7 C 6,4 km/h (2 Bft) 100,00 %
16.12.2017 06:44 -0,6 C 3,9 C 93 % 1003,6 hPa 0,0 l/m 4,6 km/h (1 Bft) W-SW 251 0 min 0,000 mm 0,0 UV-I 0 W/m -1,6 C -0,6 C 6,4 km/h (2 Bft) 100,00 %
16.12.2017 06:46 -0,6 C 3,9 C 93 % 1003,7 hPa 0,0 l/m 5,1 km/h (1 Bft) W-SW 251 0 min 0,000 mm 0,0 UV-I 0 W/m -1,6 C -0,6 C 6,4 km/h (2 Bft) 100,00 %
16.12.2017 06:48 -0,7 C 3,9 C 93 % 1003,7 hPa 0,0 l/m 5,4 km/h (1 Bft) W-SW 245 0 min 0,000 mm 0,0 UV-I 0 W/m -1,7 C -0,7 C 8,0 km/h (2 Bft) 100,00 %
16.12.2017 06:50 -0,7 C 3,9 C 93 % 1003,7 hPa 0,0 l/m 5,5 km/h (1 Bft) W-SW 244 0 min 0,000 mm 0,0 UV-I 0 W/m -1,7 C -0,7 C 6,4 km/h (2 Bft) 100,00 %
16.12.2017 06:52 -0,7 C 3,9 C 93 % 1003,7 hPa 0,0 l/m 4,9 km/h (1 Bft) W-SW 253 0 min 0,000 mm 0,0 UV-I 0 W/m -1,7 C -0,7 C 8,0 km/h (2 Bft) 97,92 %
16.12.2017 06:54 -0,7 C 3,9 C 93 % 1003,7 hPa 0,0 l/m 6,2 km/h (2 Bft) W-SW 242 0 min 0,000 mm 0,0 UV-I 0 W/m -1,7 C -0,7 C 9,7 km/h (2 Bft) 100,00 %
16.12.2017 06:56 -0,7 C 3,9 C 93 % 1003,7 hPa 0,0 l/m 6,6 km/h (2 Bft) W 266 0 min 0,000 mm 0,0 UV-I 0 W/m -1,7 C -0,9 C 9,7 km/h (2 Bft) 100,00 %
16.12.2017 06:58 -0,5 C 3,9 C 93 % 1003,8 hPa 0,0 l/m 6,7 km/h (2 Bft) W 277 0 min 0,000 mm 0,0 UV-I 0 W/m -1,5 C -0,8 C 11,3 km/h (2 Bft) 100,00 %
16.12.2017 07:00 -0,4 C 3,9 C 93 % 1003,8 hPa 0,0 l/m 7,1 km/h (2 Bft) W-SW 257 0 min 0,000 mm 0,0 UV-I 0 W/m -1,4 C -1,1 C 11,3 km/h (2 Bft) 100,00 %
16.12.2017 07:02 -0,3 C 3,9 C 93 % 1003,8 hPa 0,0 l/m 6,0 km/h (2 Bft) W 266 0 min 0,000 mm 0,0 UV-I 0 W/m -1,3 C -0,3 C 12,9 km/h (3 Bft) 100,00 %
16.12.2017 07:04 -0,2 C 3,9 C 93 % 1003,8 hPa 0,0 l/m 7,3 km/h (2 Bft) W 269 0 min 0,000 mm 0,0 UV-I 0 W/m -1,2 C -1,1 C 11,3 km/h (2 Bft) 100,00 %
16.12.2017 07:06 -0,1 C 3,9 C 93 % 1003,9 hPa 0,0 l/m 7,5 km/h (2 Bft) W-SW 251 0 min 0,000 mm 0,0 UV-I 0 W/m -1,1 C -1,2 C 11,3 km/h (2 Bft) 100,00 %
16.12.2017 07:08 0,0 C 3,9 C 93 % 1004,0 hPa 0,0 l/m 8,6 km/h (2 Bft) W 259 0 min 0,000 mm 0,0 UV-I 0 W/m -1,0 C -2,2 C 12,9 km/h (3 Bft) 100,00 %
16.12.2017 07:10 0,1 C 3,9 C 93 % 1004,0 hPa 0,0 l/m 6,7 km/h (2 Bft) SW 229 0 min 0,000 mm 0,0 UV-I 0 W/m -0,9 C -0,2 C 9,7 km/h (2 Bft) 95,12 %
16.12.2017 07:12 0,1 C 3,9 C 92 % 1004,1 hPa 0,0 l/m 4,6 km/h (1 Bft) W-SW 257 0 min 0,000 mm 0,0 UV-I 0 W/m -1,0 C 0,1 C 6,4 km/h (2 Bft) 97,37 %
16.12.2017 07:14 0,1 C 3,9 C 92 % 1004,1 hPa 0,0 l/m 4,5 km/h (1 Bft) W 264 0 min 0,000 mm 0,0 UV-I 0 W/m -1,0 C 0,1 C 6,4 km/h (2 Bft) 100,00 %
16.12.2017 07:16 0,1 C 3,9 C 92 % 1004,1 hPa 0,0 l/m 5,0 km/h (1 Bft) W 271 0 min 0,000 mm 0,0 UV-I 0 W/m -1,0 C 0,1 C 9,7 km/h (2 Bft) 100,00 %
16.12.2017 07:18 0,1 C 3,9 C 92 % 1004,1 hPa 0,0 l/m 4,8 km/h (1 Bft) W 259 0 min 0,000 mm 0,0 UV-I 0 W/m -1,0 C 0,1 C 8,0 km/h (2 Bft) 98,53 %
16.12.2017 07:20 0,1 C 3,9 C 92 % 1004,1 hPa 0,0 l/m 5,8 km/h (2 Bft) W-SW 250 0 min 0,000 mm 0,0 UV-I 0 W/m -1,0 C 0,1 C 8,0 km/h (2 Bft) 100,00 %
16.12.2017 07:22 0,2 C 3,9 C 92 % 1004,2 hPa 0,0 l/m 6,0 km/h (2 Bft) W-SW 238 0 min 0,000 mm 0,0 UV-I 0 W/m -0,9 C 0,2 C 11,3 km/h (2 Bft) 100,00 %
16.12.2017 07:25 0,2 C 3,9 C 92 % 1004,3 hPa 0,0 l/m 6,5 km/h (2 Bft) W-SW 246 0 min 0,000 mm 0,0 UV-I 0 W/m -0,9 C 0,1 C 9,7 km/h (2 Bft) 98,51 %
16.12.2017 07:26 0,2 C 3,9 C 92 % 1004,3 hPa 0,0 l/m 6,1 km/h (2 Bft) W-SW 257 0 min 0,000 mm 0,0 UV-I 0 W/m -0,9 C 0,2 C 9,7 km/h (2 Bft) 100,00 %
16.12.2017 07:28 0,2 C 3,9 C 92 % 1004,3 hPa 0,0 l/m 6,8 km/h (2 Bft) W 259 0 min 0,000 mm 0,0 UV-I 0 W/m -0,9 C -0,2 C 9,7 km/h (2 Bft) 100,00 %
16.12.2017 07:30 0,2 C 3,9 C 92 % 1004,3 hPa 0,0 l/m 7,5 km/h (2 Bft) W 267 0 min 0,000 mm 0,0 UV-I 0 W/m -0,9 C -0,9 C 11,3 km/h (2 Bft) 100,00 %
16.12.2017 07:32 0,3 C 3,9 C 92 % 1004,3 hPa 0,0 l/m 5,2 km/h (1 Bft) W-SW 240 0 min 0,000 mm 0,0 UV-I 0 W/m -0,8 C 0,3 C 9,7 km/h (2 Bft) 100,00 %
16.12.2017 07:34 0,3 C 3,9 C 92 % 1004,4 hPa 0,0 l/m 5,3 km/h (1 Bft) SW 230 0 min 0,000 mm 0,0 UV-I 0 W/m -0,8 C 0,3 C 8,0 km/h (2 Bft) 97,56 %
16.12.2017 07:36 0,3 C 3,9 C 92 % 1004,3 hPa 0,0 l/m 6,7 km/h (2 Bft) SW 226 0 min 0,000 mm 0,0 UV-I 0 W/m -0,8 C 0,0 C 12,9 km/h (3 Bft) 97,87 %
16.12.2017 07:38 0,3 C 3,9 C 92 % 1004,4 hPa 0,0 l/m 7,2 km/h (2 Bft) SW 232 0 min 0,000 mm 0,0 UV-I 0 W/m -0,8 C -0,5 C 11,3 km/h (2 Bft) 95,74 %
16.12.2017 07:40 0,4 C 3,9 C 92 % 1004,3 hPa 0,0 l/m 5,7 km/h (1 Bft) W-SW 243 0 min 0,000 mm 0,0 UV-I 0 W/m -0,7 C 0,4 C 9,7 km/h (2 Bft) 100,00 %
16.12.2017 07:42 0,4 C 3,9 C 92 % 1004,4 hPa 0,0 l/m 6,6 km/h (2 Bft) SW 232 0 min 0,000 mm 0,0 UV-I 0 W/m -0,7 C 0,2 C 11,3 km/h (2 Bft) 100,00 %
16.12.2017 07:44 0,4 C 3,9 C 92 % 1004,4 hPa 0,0 l/m 7,7 km/h (2 Bft) SW 236 0 min 0,000 mm 0,0 UV-I 2 W/m -0,7 C -0,9 C 11,3 km/h (2 Bft) 96,55 %
16.12.2017 07:46 0,4 C 3,9 C 92 % 1004,4 hPa 0,0 l/m 7,4 km/h (2 Bft) W-SW 256 0 min 0,000 mm 0,0 UV-I 5 W/m -0,7 C -0,6 C 12,9 km/h (3 Bft) 100,00 %
16.12.2017 07:48 0,5 C 3,9 C 92 % 1004,4 hPa 0,0 l/m 7,7 km/h (2 Bft) W-SW 240 0 min 0,000 mm 0,0 UV-I 5 W/m -0,6 C -0,8 C 11,3 km/h (2 Bft) 100,00 %
16.12.2017 07:50 0,5 C 3,9 C 92 % 1004,4 hPa 0,0 l/m 7,4 km/h (2 Bft) SW 236 0 min 0,000 mm 0,0 UV-I 5 W/m -0,6 C -0,5 C 11,3 km/h (2 Bft) 100,00 %
16.12.2017 07:52 0,6 C 3,9 C 92 % 1004,5 hPa 0,0 l/m 7,7 km/h (2 Bft) W-SW 237 0 min 0,000 mm 0,0 UV-I 5 W/m -0,5 C -0,7 C 11,3 km/h (2 Bft) 96,23 %
16.12.2017 07:54 0,6 C 3,9 C 92 % 1004,5 hPa 0,0 l/m 6,6 km/h (2 Bft) SW 236 0 min 0,000 mm 0,0 UV-I 5 W/m -0,5 C 0,4 C 9,7 km/h (2 Bft) 94,74 %
16.12.2017 07:56 0,6 C 3,9 C 92 % 1004,5 hPa 0,0 l/m 6,3 km/h (2 Bft) SW 230 0 min 0,000 mm 0,0 UV-I 6 W/m -0,5 C 0,6 C 11,3 km/h (2 Bft) 94,34 %
16.12.2017 07:58 0,6 C 3,9 C 92 % 1004,5 hPa 0,0 l/m 9,4 km/h (2 Bft) SW 230 0 min 0,000 mm 0,0 UV-I 7 W/m -0,5 C -2,3 C 12,9 km/h (3 Bft) 97,37 %
16.12.2017 08:00 0,6 C 3,9 C 92 % 1004,5 hPa 0,0 l/m 7,9 km/h (2 Bft) W-SW 247 0 min 0,000 mm 0,0 UV-I 7 W/m -0,5 C -0,9 C 12,9 km/h (3 Bft) 92,86 %
16.12.2017 08:02 0,6 C 3,9 C 92 % 1004,6 hPa 0,0 l/m 8,1 km/h (2 Bft) SW 217 0 min 0,000 mm 0,0 UV-I 7 W/m -0,5 C -1,1 C 12,9 km/h (3 Bft) 96,00 %
16.12.2017 08:04 0,6 C 3,9 C 92 % 1004,6 hPa 0,0 l/m 7,8 km/h (2 Bft) W-SW 242 0 min 0,000 mm 0,0 UV-I 9 W/m -0,5 C -0,8 C 11,3 km/h (2 Bft) 100,00 %
16.12.2017 08:06 0,6 C 3,9 C 92 % 1004,6 hPa 0,0 l/m 8,4 km/h (2 Bft) S 186 0 min 0,000 mm 0,0 UV-I 9 W/m -0,5 C -1,4 C 12,9 km/h (3 Bft) 91,94 %
16.12.2017 08:08 0,6 C 3,9 C 93 % 1004,7 hPa 0,0 l/m 10,5 km/h (2 Bft) SW 217 0 min 0,000 mm 0,0 UV-I 9 W/m -0,4 C -3,2 C 16,1 km/h (3 Bft) 86,84 %
16.12.2017 08:10 0,6 C 3,9 C 92 % 1004,8 hPa 0,0 l/m 10,2 km/h (2 Bft) SW 224 0 min 0,000 mm 0,0 UV-I 11 W/m -0,5 C -2,9 C 16,1 km/h (3 Bft) 96,00 %
16.12.2017 08:12 0,6 C 3,9 C 92 % 1004,8 hPa 0,0 l/m 7,1 km/h (2 Bft) W-SW 242 0 min 0,000 mm 0,0 UV-I 11 W/m -0,5 C -0,1 C 11,3 km/h (2 Bft) 96,43 %
16.12.2017 08:14 0,6 C 3,9 C 93 % 1004,8 hPa 0,0 l/m 5,5 km/h (1 Bft) SW 236 0 min 0,000 mm 0,0 UV-I 11 W/m -0,4 C 0,6 C 8,0 km/h (2 Bft) 95,45 %
16.12.2017 08:16 0,6 C 3,9 C 93 % 1004,8 hPa 0,0 l/m 5,9 km/h (2 Bft) S-SW 213 0 min 0,000 mm 0,0 UV-I 11 W/m -0,4 C 0,6 C 9,7 km/h (2 Bft) 92,59 %
16.12.2017 08:18 0,6 C 3,9 C 93 % 1004,8 hPa 0,0 l/m 7,0 km/h (2 Bft) SW 236 0 min 0,000 mm 0,0 UV-I 12 W/m -0,4 C -0,0 C 12,9 km/h (3 Bft) 96,88 %
16.12.2017 08:20 0,6 C 3,9 C 93 % 1004,8 hPa 0,0 l/m 8,9 km/h (2 Bft) SW 220 0 min 0,000 mm 0,0 UV-I 12 W/m -0,4 C -1,8 C 11,3 km/h (2 Bft) 92,00 %
16.12.2017 08:22 0,6 C 3,9 C 93 % 1004,9 hPa 0,0 l/m 8,4 km/h (2 Bft) SW 225 0 min 0,000 mm 0,0 UV-I 14 W/m -0,4 C -1,4 C 12,9 km/h (3 Bft) 95,12 %
16.12.2017 08:24 0,7 C 3,9 C 93 % 1004,9 hPa 0,0 l/m 8,5 km/h (2 Bft) W 263 0 min 0,000 mm 0,0 UV-I 15 W/m -0,3 C -1,4 C 12,9 km/h (3 Bft) 96,43 %
16.12.2017 08:26 0,7 C 3,9 C 93 % 1004,9 hPa 0,0 l/m 8,2 km/h (2 Bft) SW 232 0 min 0,000 mm 0,0 UV-I 16 W/m -0,3 C -1,1 C 12,9 km/h (3 Bft) 95,24 %
16.12.2017 08:28 0,7 C 3,9 C 93 % 1005,0 hPa 0,0 l/m 7,7 km/h (2 Bft) SW 221 0 min 0,000 mm 0,0 UV-I 16 W/m -0,3 C -0,6 C 12,9 km/h (3 Bft) 96,15 %
16.12.2017 08:30 0,7 C 3,9 C 93 % 1005,0 hPa 0,0 l/m 8,2 km/h (2 Bft) SW 217 0 min 0,000 mm 0,0 UV-I 17 W/m -0,3 C -1,1 C 14,5 km/h (3 Bft) 97,62 %
16.12.2017 08:32 0,7 C 3,9 C 93 % 1004,9 hPa 0,0 l/m 9,6 km/h (2 Bft) W-SW 248 0 min 0,000 mm 0,0 UV-I 18 W/m -0,3 C -2,3 C 14,5 km/h (3 Bft) 97,56 %
16.12.2017 08:34 0,7 C 3,9 C 93 % 1005,0 hPa 0,0 l/m 7,8 km/h (2 Bft) SW 235 0 min 0,000 mm 0,0 UV-I 18 W/m -0,3 C -0,7 C 14,5 km/h (3 Bft) 95,74 %
16.12.2017 08:36 0,7 C 3,9 C 93 % 1005,0 hPa 0,0 l/m 10,5 km/h (2 Bft) SW 227 0 min 0,000 mm 0,0 UV-I 18 W/m -0,3 C -3,1 C 14,5 km/h (3 Bft) 94,64 %
16.12.2017 08:38 0,8 C 3,9 C 93 % 1005,1 hPa 0,0 l/m 9,1 km/h (2 Bft) SW 231 0 min 0,000 mm 0,0 UV-I 19 W/m -0,2 C -1,8 C 11,3 km/h (2 Bft) 97,56 %
16.12.2017 08:40 0,8 C 3,9 C 93 % 1005,1 hPa 0,0 l/m 6,5 km/h (2 Bft) SW 229 0 min 0,000 mm 0,0 UV-I 19 W/m -0,2 C 0,7 C 11,3 km/h (2 Bft) 94,34 %
16.12.2017 08:44 0,8 C 3,9 C 93 % 1005,2 hPa 0,0 l/m 9,6 km/h (2 Bft) SW 230 0 min 0,000 mm 0,0 UV-I 20 W/m -0,2 C -2,2 C 14,5 km/h (3 Bft) 95,65 %
16.12.2017 08:46 0,8 C 3,9 C 93 % 1005,2 hPa 0,0 l/m 8,5 km/h (2 Bft) SW 224 0 min 0,000 mm 0,0 UV-I 20 W/m -0,2 C -1,3 C 11,3 km/h (2 Bft) 97,73 %
16.12.2017 08:48 0,9 C 3,9 C 93 % 1005,2 hPa 0,0 l/m 9,9 km/h (2 Bft) SW 234 0 min 0,000 mm 0,0 UV-I 19 W/m -0,1 C -2,4 C 14,5 km/h (3 Bft) 94,92 %
16.12.2017 08:50 0,9 C 3,9 C 93 % 1005,3 hPa 0,0 l/m 10,7 km/h (2 Bft) SW 226 0 min 0,000 mm 0,0 UV-I 18 W/m -0,1 C -3,0 C 14,5 km/h (3 Bft) 94,74 %
16.12.2017 08:52 1,0 C 3,9 C 93 % 1005,4 hPa 0,0 l/m 8,7 km/h (2 Bft) S-SW 211 0 min 0,000 mm 0,0 UV-I 18 W/m -0,0 C -1,2 C 12,9 km/h (3 Bft) 98,21 %
16.12.2017 08:54 1,1 C 3,9 C 93 % 1005,4 hPa 0,0 l/m 9,9 km/h (2 Bft) S-SW 209 0 min 0,000 mm 0,0 UV-I 18 W/m 0,1 C -2,2 C 12,9 km/h (3 Bft) 97,56 %
16.12.2017 08:56 1,1 C 3,9 C 93 % 1005,4 hPa 0,0 l/m 11,0 km/h (2 Bft) W 259 0 min 0,000 mm 0,0 UV-I 18 W/m 0,1 C -3,0 C 17,7 km/h (3 Bft) 96,00 %
16.12.2017 08:58 1,2 C 3,9 C 93 % 1005,5 hPa 0,0 l/m 9,1 km/h (2 Bft) SW 234 0 min 0,000 mm 0,0 UV-I 21 W/m 0,2 C -1,4 C 12,9 km/h (3 Bft) 97,73 %
16.12.2017 09:00 1,3 C 3,9 C 92 % 1005,5 hPa 0,0 l/m 11,9 km/h (2 Bft) W 263 0 min 0,000 mm 0,0 UV-I 24 W/m 0,1 C -3,4 C 19,3 km/h (3 Bft) 98,11 %
16.12.2017 09:02 1,3 C 3,9 C 92 % 1005,5 hPa 0,0 l/m 10,3 km/h (2 Bft) SW 236 0 min 0,000 mm 0,0 UV-I 30 W/m 0,1 C -2,3 C 19,3 km/h (3 Bft) 97,44 %
16.12.2017 09:04 1,3 C 3,9 C 92 % 1005,6 hPa 0,0 l/m 10,3 km/h (2 Bft) SW 236 0 min 0,000 mm 0,0 UV-I 34 W/m 0,1 C -2,3 C 14,5 km/h (3 Bft) 96,36 %
16.12.2017 09:06 1,3 C 3,9 C 92 % 1005,5 hPa 0,0 l/m 10,8 km/h (2 Bft) SW 223 0 min 0,000 mm 0,0 UV-I 35 W/m 0,1 C -2,6 C 14,5 km/h (3 Bft) 95,24 %
16.12.2017 09:08 1,4 C 3,9 C 92 % 1005,5 hPa 0,0 l/m 9,9 km/h (2 Bft) W-SW 240 0 min 0,000 mm 0,0 UV-I 37 W/m 0,2 C -1,8 C 14,5 km/h (3 Bft) 97,87 %
16.12.2017 09:10 1,4 C 3,9 C 92 % 1005,6 hPa 0,0 l/m 8,8 km/h (2 Bft) SW 217 0 min 0,000 mm 0,0 UV-I 39 W/m 0,2 C -0,9 C 12,9 km/h (3 Bft) 97,56 %
16.12.2017 09:12 1,4 C 3,9 C 92 % 1005,6 hPa 0,0 l/m 8,0 km/h (2 Bft) SW 223 0 min 0,000 mm 0,0 UV-I 41 W/m 0,2 C -0,2 C 12,9 km/h (3 Bft) 98,00 %
16.12.2017 09:14 1,4 C 3,9 C 92 % 1005,6 hPa 0,0 l/m 9,4 km/h (2 Bft) W-SW 238 0 min 0,000 mm 0,0 UV-I 45 W/m 0,2 C -1,4 C 14,5 km/h (3 Bft) 96,43 %
16.12.2017 09:16 1,4 C 3,9 C 92 % 1005,6 hPa 0,0 l/m 10,7 km/h (2 Bft) SW 233 0 min 0,000 mm 0,0 UV-I 48 W/m 0,2 C -2,4 C 16,1 km/h (3 Bft) 100,00 %
16.12.2017 09:18 1,4 C 3,9 C 92 % 1005,7 hPa 0,0 l/m 10,6 km/h (2 Bft) W-SW 247 0 min 0,000 mm 0,0 UV-I 50 W/m 0,2 C -2,4 C 14,5 km/h (3 Bft) 100,00 %
16.12.2017 09:20 1,5 C 3,9 C 92 % 1005,7 hPa 0,0 l/m 11,4 km/h (2 Bft) SW 234 0 min 0,000 mm 0,0 UV-I 52 W/m 0,3 C -2,9 C 16,1 km/h (3 Bft) 100,00 %
16.12.2017 09:22 1,5 C 3,9 C 91 % 1005,7 hPa 0,0 l/m 11,8 km/h (2 Bft) W-SW 244 0 min 0,000 mm 0,0 UV-I 53 W/m 0,2 C -3,1 C 16,1 km/h (3 Bft) 97,37 %
16.12.2017 09:24 1,5 C 3,9 C 91 % 1005,8 hPa 0,0 l/m 11,6 km/h (2 Bft) W-SW 240 0 min 0,000 mm 0,0 UV-I 55 W/m 0,2 C -3,0 C 19,3 km/h (3 Bft) 98,00 %
16.12.2017 09:26 1,6 C 3,9 C 92 % 1005,7 hPa 0,0 l/m 13,0 km/h (3 Bft) SW 232 0 min 0,000 mm 0,0 UV-I 59 W/m 0,4 C -3,8 C 17,7 km/h (3 Bft) 100,00 %
16.12.2017 09:28 1,6 C 3,9 C 91 % 1005,8 hPa 0,0 l/m 11,7 km/h (2 Bft) SW 229 0 min 0,000 mm 0,0 UV-I 62 W/m 0,3 C -3,0 C 16,1 km/h (3 Bft) 98,53 %
16.12.2017 09:30 1,6 C 3,9 C 91 % 1005,9 hPa 0,0 l/m 10,6 km/h (2 Bft) SW 221 0 min 0,000 mm 0,0 UV-I 64 W/m 0,3 C -2,1 C 16,1 km/h (3 Bft) 100,00 %
16.12.2017 09:32 1,6 C 3,9 C 91 % 1005,9 hPa 0,0 l/m 11,0 km/h (2 Bft) SW 222 0 min 0,000 mm 0,0 UV-I 66 W/m 0,3 C -2,4 C 14,5 km/h (3 Bft) 100,00 %
16.12.2017 09:34 1,6 C 3,9 C 91 % 1005,9 hPa 0,0 l/m 10,9 km/h (2 Bft) W-SW 241 0 min 0,000 mm 0,0 UV-I 70 W/m 0,3 C -2,4 C 16,1 km/h (3 Bft) 100,00 %
16.12.2017 09:36 1,7 C 3,9 C 91 % 1006,0 hPa 0,0 l/m 12,1 km/h (2 Bft) SW 232 0 min 0,000 mm 0,0 UV-I 75 W/m 0,4 C -3,1 C 17,7 km/h (3 Bft) 100,00 %
16.12.2017 09:38 1,7 C 3,9 C 91 % 1006,0 hPa 0,0 l/m 9,4 km/h (2 Bft) W-SW 246 0 min 0,000 mm 0,0 UV-I 77 W/m 0,4 C -1,1 C 14,5 km/h (3 Bft) 100,00 %
16.12.2017 09:40 1,7 C 3,9 C 91 % 1006,0 hPa 0,0 l/m 9,2 km/h (2 Bft) SW 226 0 min 0,000 mm 0,0 UV-I 78 W/m 0,4 C -0,9 C 14,5 km/h (3 Bft) 97,62 %
16.12.2017 09:42 1,8 C 3,9 C 91 % 1006,0 hPa 0,0 l/m 9,3 km/h (2 Bft) W-SW 237 0 min 0,000 mm 0,0 UV-I 76 W/m 0,5 C -0,9 C 14,5 km/h (3 Bft) 100,00 %
16.12.2017 09:44 1,8 C 3,9 C 91 % 1006,1 hPa 0,0 l/m 9,4 km/h (2 Bft) SW 225 0 min 0,000 mm 0,0 UV-I 74 W/m 0,5 C -1,0 C 12,9 km/h (3 Bft) 100,00 %
16.12.2017 09:46 1,8 C 3,9 C 91 % 1006,1 hPa 0,0 l/m 8,9 km/h (2 Bft) W-SW 244 0 min 0,000 mm 0,0 UV-I 72 W/m 0,5 C -0,6 C 12,9 km/h (3 Bft) 98,00 %
16.12.2017 09:50 1,8 C 3,9 C 90 % 1006,1 hPa 0,0 l/m 6,4 km/h (2 Bft) W-SW 250 0 min 0,000 mm 0,0 UV-I 77 W/m 0,3 C 1,8 C 8,0 km/h (2 Bft) 100,00 %
16.12.2017 09:52 1,9 C 3,9 C 90 % 1006,3 hPa 0,0 l/m 8,2 km/h (2 Bft) SW 228 0 min 0,000 mm 0,0 UV-I 90 W/m 0,4 C 0,2 C 11,3 km/h (2 Bft) 100,00 %
16.12.2017 09:54 1,9 C 3,9 C 90 % 1006,3 hPa 0,0 l/m 9,6 km/h (2 Bft) SW 221 0 min 0,000 mm 0,0 UV-I 92 W/m 0,4 C -1,0 C 14,5 km/h (3 Bft) 100,00 %
16.12.2017 09:56 1,9 C 3,9 C 90 % 1006,4 hPa 0,0 l/m 8,2 km/h (2 Bft) SW 227 0 min 0,000 mm 0,0 UV-I 104 W/m 0,4 C 0,2 C 12,9 km/h (3 Bft) 100,00 %
16.12.2017 09:58 1,9 C 3,9 C 90 % 1006,4 hPa 0,0 l/m 10,5 km/h (2 Bft) W-SW 257 0 min 0,000 mm 0,0 UV-I 121 W/m 0,4 C -1,7 C 16,1 km/h (3 Bft) 100,00 %
16.12.2017 10:00 1,9 C 3,9 C 90 % 1006,5 hPa 0,0 l/m 8,3 km/h (2 Bft) SW 219 2 min 0,025 mm 0,0 UV-I 136 W/m 0,4 C 0,1 C 12,9 km/h (3 Bft) 100,00 %
16.12.2017 10:02 2,0 C 3,9 C 90 % 1006,5 hPa 0,0 l/m 9,7 km/h (2 Bft) W-SW 237 2 min 0,000 mm 0,0 UV-I 142 W/m 0,5 C -1,0 C 12,9 km/h (3 Bft) 100,00 %
16.12.2017 10:04 2,0 C 3,9 C 90 % 1006,5 hPa 0,0 l/m 10,9 km/h (2 Bft) W-SW 240 0 min 0,000 mm 0,0 UV-I 115 W/m 0,5 C -1,9 C 14,5 km/h (3 Bft) 97,56 %
16.12.2017 10:06 2,1 C 3,9 C 90 % 1006,5 hPa 0,0 l/m 9,7 km/h (2 Bft) W-SW 242 0 min 0,000 mm 0,0 UV-I 108 W/m 0,6 C -0,9 C 14,5 km/h (3 Bft) 96,00 %
16.12.2017 10:08 2,1 C 3,9 C 90 % 1006,6 hPa 0,0 l/m 10,9 km/h (2 Bft) W-SW 248 0 min 0,000 mm 0,0 UV-I 111 W/m 0,6 C -1,8 C 14,5 km/h (3 Bft) 97,56 %
16.12.2017 10:10 2,1 C 3,9 C 90 % 1006,6 hPa 0,0 l/m 11,1 km/h (2 Bft) W-SW 242 0 min 0,000 mm 0,0 UV-I 110 W/m 0,6 C -2,0 C 16,1 km/h (3 Bft) 98,00 %
16.12.2017 10:12 2,2 C 3,9 C 90 % 1006,7 hPa 0,0 l/m 7,5 km/h (2 Bft) W 262 0 min 0,000 mm 0,0 UV-I 110 W/m 0,7 C 1,1 C 12,9 km/h (3 Bft) 96,00 %
16.12.2017 10:14 2,2 C 3,9 C 90 % 1006,7 hPa 0,0 l/m 9,2 km/h (2 Bft) W 262 0 min 0,000 mm 0,0 UV-I 120 W/m 0,7 C -0,4 C 16,1 km/h (3 Bft) 95,74 %
16.12.2017 10:16 2,3 C 3,9 C 90 % 1006,8 hPa 0,0 l/m 12,5 km/h (3 Bft) W-SW 257 0 min 0,000 mm 0,0 UV-I 123 W/m 0,8 C -2,7 C 16,1 km/h (3 Bft) 95,24 %
16.12.2017 10:18 2,3 C 3,9 C 89 % 1006,8 hPa 0,0 l/m 10,1 km/h (2 Bft) SW 234 0 min 0,000 mm 0,0 UV-I 123 W/m 0,7 C -1,0 C 11,3 km/h (2 Bft) 95,45 %
16.12.2017 10:20 2,3 C 3,9 C 89 % 1006,8 hPa 0,0 l/m 9,6 km/h (2 Bft) W 267 0 min 0,000 mm 0,0 UV-I 120 W/m 0,7 C -0,6 C 14,5 km/h (3 Bft) 96,00 %
16.12.2017 10:26 2,4 C 3,9 C 89 % 1006,8 hPa 0,0 l/m 9,7 km/h (2 Bft) W-SW 247 0 min 0,000 mm 0,0 UV-I 131 W/m 0,8 C -0,6 C 16,1 km/h (3 Bft) 99,12 %
16.12.2017 10:30 2,7 C 3,9 C 89 % 1006,9 hPa 0,0 l/m 9,7 km/h (2 Bft) W-SW 247 4 min 0,000 mm 0,0 UV-I 319 W/m 1,1 C -0,2 C 16,1 km/h (3 Bft) 77,19 %
16.12.2017 10:35 2,9 C 3,9 C 88 % 1006,9 hPa 0,0 l/m 9,7 km/h (2 Bft) W-SW 247 5 min 0,000 mm 0,0 UV-I 157 W/m 1,1 C -0,0 C 17,7 km/h (3 Bft) 99,12 %
16.12.2017 10:41 2,8 C 3,9 C 88 % 1006,9 hPa 0,0 l/m 8,0 km/h (2 Bft) W 270 0 min 0,000 mm 0,0 UV-I 91 W/m 1,0 C 1,3 C 9,7 km/h (2 Bft) 34,78 %
16.12.2017 10:42 2,8 C 3,9 C 88 % 1006,9 hPa 0,0 l/m 9,7 km/h (2 Bft) W-SW 247 0 min 0,000 mm 0,0 UV-I 90 W/m 1,0 C -0,1 C 12,9 km/h (3 Bft) 95,65 %
16.12.2017 10:43 2,8 C 3,9 C 87 % 1006,9 hPa 0,0 l/m 8,0 km/h (2 Bft) W-SW 247 0 min 0,000 mm 0,0 UV-I 88 W/m 0,9 C 1,3 C 11,3 km/h (2 Bft) 95,65 %
16.12.2017 10:44 2,8 C 3,9 C 87 % 1006,9 hPa 0,0 l/m 6,4 km/h (2 Bft) W-SW 247 0 min 0,000 mm 0,0 UV-I 86 W/m 0,9 C 2,8 C 11,3 km/h (2 Bft) 100,00 %
16.12.2017 10:45 2,8 C 3,9 C 87 % 1007,0 hPa 0,0 l/m 8,0 km/h (2 Bft) W-SW 247 0 min 0,000 mm 0,0 UV-I 88 W/m 0,9 C 1,3 C 14,5 km/h (3 Bft) 91,30 %
16.12.2017 10:46 2,8 C 3,9 C 87 % 1007,0 hPa 0,0 l/m 8,0 km/h (2 Bft) SW 225 0 min 0,000 mm 0,0 UV-I 90 W/m 0,9 C 1,3 C 9,7 km/h (2 Bft) 100,00 %
16.12.2017 10:47 2,8 C 3,9 C 87 % 1007,0 hPa 0,0 l/m 6,4 km/h (2 Bft) W-SW 247 0 min 0,000 mm 0,0 UV-I 90 W/m 0,9 C 2,8 C 8,0 km/h (2 Bft) 95,65 %
16.12.2017 10:48 2,8 C 3,9 C 87 % 1007,0 hPa 0,0 l/m 8,0 km/h (2 Bft) W-SW 247 0 min 0,000 mm 0,0 UV-I 93 W/m 0,9 C 1,3 C 14,5 km/h (3 Bft) 100,00 %
16.12.2017 10:49 2,8 C 3,9 C 88 % 1007,0 hPa 0,0 l/m 6,4 km/h (2 Bft) SW 225 0 min 0,000 mm 0,0 UV-I 97 W/m 1,0 C 2,8 C 8,0 km/h (2 Bft) 95,65 %
16.12.2017 10:50 2,8 C 3,9 C 88 % 1007,0 hPa 0,0 l/m 8,0 km/h (2 Bft) W-SW 247 0 min 0,000 mm 0,0 UV-I 95 W/m 1,0 C 1,3 C 11,3 km/h (2 Bft) 100,00 %
16.12.2017 10:51 2,7 C 3,9 C 88 % 1007,0 hPa 0,0 l/m 8,0 km/h (2 Bft) SW 225 0 min 0,000 mm 0,0 UV-I 88 W/m 0,9 C 1,2 C 9,7 km/h (2 Bft) 95,65 %
16.12.2017 10:52 2,7 C 3,9 C 88 % 1007,0 hPa 0,0 l/m 6,4 km/h (2 Bft) SW 225 0 min 0,000 mm 0,0 UV-I 80 W/m 0,9 C 2,7 C 9,7 km/h (2 Bft) 91,30 %
16.12.2017 10:53 2,7 C 3,9 C 88 % 1007,0 hPa 0,0 l/m 6,4 km/h (2 Bft) W-SW 247 0 min 0,000 mm 0,0 UV-I 83 W/m 0,9 C 2,7 C 6,4 km/h (2 Bft) 100,00 %
16.12.2017 10:54 2,7 C 3,9 C 88 % 1007,0 hPa 0,0 l/m 6,4 km/h (2 Bft) SW 225 0 min 0,000 mm 0,0 UV-I 90 W/m 0,9 C 2,7 C 9,7 km/h (2 Bft) 95,65 %
16.12.2017 10:55 2,7 C 3,9 C 88 % 1007,0 hPa 0,0 l/m 4,8 km/h (1 Bft) SW 225 0 min 0,000 mm 0,0 UV-I 95 W/m 0,9 C 2,7 C 6,4 km/h (2 Bft) 100,00 %
16.12.2017 10:56 2,7 C 3,9 C 88 % 1007,0 hPa 0,0 l/m 4,8 km/h (1 Bft) SW 225 0 min 0,000 mm 0,0 UV-I 98 W/m 0,9 C 2,7 C 6,4 km/h (2 Bft) 95,65 %
16.12.2017 10:57 2,7 C 3,9 C 88 % 1007,0 hPa 0,0 l/m 6,4 km/h (2 Bft) SW 225 0 min 0,000 mm 0,0 UV-I 100 W/m 0,9 C 2,7 C 8,0 km/h (2 Bft) 100,00 %
16.12.2017 10:58 2,7 C 3,9 C 88 % 1007,0 hPa 0,0 l/m 6,4 km/h (2 Bft) SW 225 0 min 0,000 mm 0,0 UV-I 98 W/m 0,9 C 2,7 C 8,0 km/h (2 Bft) 95,65 %
16.12.2017 10:59 2,7 C 3,9 C 88 % 1007,0 hPa 0,0 l/m 8,0 km/h (2 Bft) SW 225 0 min 0,000 mm 0,0 UV-I 98 W/m 0,9 C 1,2 C 9,7 km/h (2 Bft) 95,65 %
16.12.2017 11:00 2,7 C 3,9 C 88 % 1007,0 hPa 0,0 l/m 6,4 km/h (2 Bft) W 270 0 min 0,051 mm 0,0 UV-I 91 W/m 0,9 C 2,7 C 9,7 km/h (2 Bft) 95,65 %
16.12.2017 11:01 2,7 C 3,9 C 88 % 1007,0 hPa 0,0 l/m 8,0 km/h (2 Bft) SW 225 0 min 0,000 mm 0,0 UV-I 84 W/m 0,9 C 1,2 C 12,9 km/h (3 Bft) 95,65 %
16.12.2017 11:02 2,7 C 3,9 C 88 % 1007,0 hPa 0,0 l/m 8,0 km/h (2 Bft) W-SW 247 0 min 0,000 mm 0,0 UV-I 84 W/m 0,9 C 1,2 C 11,3 km/h (2 Bft) 95,65 %
16.12.2017 11:03 2,7 C 3,9 C 88 % 1007,0 hPa 0,0 l/m 6,4 km/h (2 Bft) SW 225 0 min 0,000 mm 0,0 UV-I 84 W/m 0,9 C 2,7 C 8,0 km/h (2 Bft) 95,65 %
16.12.2017 11:04 2,7 C 3,9 C 88 % 1007,0 hPa 0,0 l/m 8,0 km/h (2 Bft) W-SW 247 0 min 0,000 mm 0,0 UV-I 84 W/m 0,9 C 1,2 C 11,3 km/h (2 Bft) 100,00 %
16.12.2017 11:05 2,7 C 3,9 C 88 % 1007,0 hPa 0,0 l/m 8,0 km/h (2 Bft) SW 225 0 min 0,000 mm 0,0 UV-I 86 W/m 0,9 C 1,2 C 11,3 km/h (2 Bft) 95,65 %
16.12.2017 11:06 2,7 C 3,9 C 88 % 1007,0 hPa 0,0 l/m 6,4 km/h (2 Bft) SW 225 0 min 0,000 mm 0,0 UV-I 84 W/m 0,9 C 2,7 C 9,7 km/h (2 Bft) 95,65 %
16.12.2017 11:07 2,7 C 3,9 C 88 % 1007,0 hPa 0,0 l/m 9,7 km/h (2 Bft) W-SW 247 0 min 0,000 mm 0,0 UV-I 81 W/m 0,9 C -0,2 C 11,3 km/h (2 Bft) 95,65 %
16.12.2017 11:08 2,7 C 3,9 C 88 % 1007,0 hPa 0,0 l/m 9,7 km/h (2 Bft) W-SW 247 0 min 0,000 mm 0,0 UV-I 79 W/m 0,9 C -0,2 C 12,9 km/h (3 Bft) 100,00 %
16.12.2017 11:09 2,7 C 3,9 C 88 % 1007,0 hPa 0,0 l/m 8,0 km/h (2 Bft) SW 225 0 min 0,000 mm 0,0 UV-I 76 W/m 0,9 C 1,2 C 9,7 km/h (2 Bft) 95,65 %
16.12.2017 11:10 2,7 C 3,9 C 88 % 1007,1 hPa 0,0 l/m 6,4 km/h (2 Bft) SW 225 0 min 0,000 mm 0,0 UV-I 77 W/m 0,9 C 2,7 C 11,3 km/h (2 Bft) 100,00 %
16.12.2017 11:11 2,7 C 3,9 C 88 % 1007,1 hPa 0,0 l/m 8,0 km/h (2 Bft) SW 225 0 min 0,000 mm 0,0 UV-I 83 W/m 0,9 C 1,2 C 9,7 km/h (2 Bft) 95,65 %
16.12.2017 11:12 2,7 C 3,9 C 88 % 1007,1 hPa 0,0 l/m 8,0 km/h (2 Bft) SW 225 0 min 0,000 mm 0,0 UV-I 86 W/m 0,9 C 1,2 C 12,9 km/h (3 Bft) 95,65 %
16.12.2017 11:13 2,7 C 3,9 C 88 % 1007,1 hPa 0,0 l/m 8,0 km/h (2 Bft) SW 225 0 min 0,000 mm 0,0 UV-I 86 W/m 0,9 C 1,2 C 11,3 km/h (2 Bft) 95,65 %
16.12.2017 11:14 2,7 C 3,9 C 88 % 1007,1 hPa 0,0 l/m 8,0 km/h (2 Bft) SW 225 0 min 0,000 mm 0,0 UV-I 84 W/m 0,9 C 1,2 C 11,3 km/h (2 Bft) 100,00 %
16.12.2017 11:15 2,7 C 3,9 C 88 % 1007,1 hPa 0,0 l/m 8,0 km/h (2 Bft) SW 225 0 min 0,000 mm 0,0 UV-I 81 W/m 0,9 C 1,2 C 11,3 km/h (2 Bft) 95,65 %
16.12.2017 11:16 2,7 C 3,9 C 88 % 1007,1 hPa 0,0 l/m 9,7 km/h (2 Bft) SW 225 0 min 0,000 mm 0,0 UV-I 74 W/m 0,9 C -0,2 C 12,9 km/h (3 Bft) 95,65 %
16.12.2017 11:17 2,7 C 3,9 C 88 % 1007,1 hPa 0,0 l/m 9,7 km/h (2 Bft) SW 225 0 min 0,000 mm 0,0 UV-I 69 W/m 0,9 C -0,2 C 14,5 km/h (3 Bft) 95,65 %
16.12.2017 11:18 2,7 C 3,9 C 88 % 1007,1 hPa 0,0 l/m 8,0 km/h (2 Bft) W-SW 247 0 min 0,000 mm 0,0 UV-I 69 W/m 0,9 C 1,2 C 11,3 km/h (2 Bft) 100,00 %
16.12.2017 11:19 2,7 C 3,9 C 88 % 1007,1 hPa 0,0 l/m 9,7 km/h (2 Bft) W-SW 247 0 min 0,000 mm 0,0 UV-I 70 W/m 0,9 C -0,2 C 11,3 km/h (2 Bft) 95,65 %
16.12.2017 11:20 2,7 C 3,9 C 88 % 1007,1 hPa 0,0 l/m 11,3 km/h (2 Bft) SW 225 0 min 0,000 mm 0,0 UV-I 76 W/m 0,9 C -1,4 C 12,9 km/h (3 Bft) 95,65 %
16.12.2017 11:21 2,7 C 3,9 C 88 % 1007,2 hPa 0,0 l/m 8,0 km/h (2 Bft) W-SW 247 0 min 0,000 mm 0,0 UV-I 81 W/m 0,9 C 1,2 C 11,3 km/h (2 Bft) 95,65 %
16.12.2017 11:22 2,7 C 3,9 C 88 % 1007,1 hPa 0,0 l/m 9,7 km/h (2 Bft) SW 225 0 min 0,000 mm 0,0 UV-I 86 W/m 0,9 C -0,2 C 11,3 km/h (2 Bft) 100,00 %
16.12.2017 11:23 2,7 C 3,9 C 88 % 1007,1 hPa 0,0 l/m 8,0 km/h (2 Bft) SW 225 0 min 0,000 mm 0,0 UV-I 86 W/m 0,9 C 1,2 C 11,3 km/h (2 Bft) 95,65 %
16.12.2017 11:24 2,7 C 3,9 C 88 % 1007,2 hPa 0,0 l/m 8,0 km/h (2 Bft) W-SW 247 0 min 0,000 mm 0,0 UV-I 84 W/m 0,9 C 1,2 C 11,3 km/h (2 Bft) 100,00 %
16.12.2017 11:25 2,8 C 3,9 C 88 % 1007,2 hPa 0,0 l/m 8,0 km/h (2 Bft) SW 225 0 min 0,000 mm 0,0 UV-I 84 W/m 1,0 C 1,3 C 12,9 km/h (3 Bft) 91,30 %
16.12.2017 11:26 2,8 C 3,9 C 88 % 1007,2 hPa 0,0 l/m 8,0 km/h (2 Bft) SW 225 0 min 0,000 mm 0,0 UV-I 86 W/m 1,0 C 1,3 C 11,3 km/h (2 Bft) 100,00 %
16.12.2017 11:27 2,8 C 3,9 C 88 % 1007,2 hPa 0,0 l/m 8,0 km/h (2 Bft) SW 225 0 min 0,000 mm 0,0 UV-I 86 W/m 1,0 C 1,3 C 12,9 km/h (3 Bft) 91,30 %
16.12.2017 11:28 2,8 C 3,9 C 88 % 1007,2 hPa 0,0 l/m 6,4 km/h (2 Bft) W-SW 247 0 min 0,000 mm 0,0 UV-I 82 W/m 1,0 C 2,8 C 8,0 km/h (2 Bft) 100,00 %
16.12.2017 11:29 2,8 C 3,9 C 88 % 1007,2 hPa 0,0 l/m 8,0 km/h (2 Bft) SW 225 0 min 0,000 mm 0,0 UV-I 83 W/m 1,0 C 1,3 C 11,3 km/h (2 Bft) 91,30 %
16.12.2017 11:30 2,8 C 3,9 C 88 % 1007,2 hPa 0,0 l/m 8,0 km/h (2 Bft) SW 225 0 min 0,000 mm 0,0 UV-I 86 W/m 1,0 C 1,3 C 12,9 km/h (3 Bft) 100,00 %
16.12.2017 11:31 2,8 C 3,9 C 87 % 1007,3 hPa 0,0 l/m 9,7 km/h (2 Bft) SW 225 0 min 0,000 mm 0,0 UV-I 90 W/m 0,9 C -0,1 C 14,5 km/h (3 Bft) 95,65 %
16.12.2017 11:32 2,8 C 3,9 C 88 % 1007,3 hPa 0,0 l/m 6,4 km/h (2 Bft) SW 225 0 min 0,000 mm 0,0 UV-I 91 W/m 1,0 C 2,8 C 11,3 km/h (2 Bft) 95,65 %
16.12.2017 11:33 2,9 C 3,9 C 87 % 1007,3 hPa 0,0 l/m 8,0 km/h (2 Bft) SW 225 0 min 0,000 mm 0,0 UV-I 94 W/m 1,0 C 1,4 C 12,9 km/h (3 Bft) 100,00 %
16.12.2017 11:34 2,8 C 3,9 C 88 % 1007,2 hPa 0,0 l/m 8,0 km/h (2 Bft) SW 225 0 min 0,000 mm 0,0 UV-I 97 W/m 1,0 C 1,3 C 12,9 km/h (3 Bft) 91,30 %
16.12.2017 11:35 2,9 C 3,9 C 88 % 1007,2 hPa 0,0 l/m 9,7 km/h (2 Bft) SW 225 0 min 0,000 mm 0,0 UV-I 98 W/m 1,1 C -0,0 C 12,9 km/h (3 Bft) 100,00 %
16.12.2017 11:36 2,9 C 3,9 C 88 % 1007,2 hPa 0,0 l/m 8,0 km/h (2 Bft) SW 225 0 min 0,000 mm 0,0 UV-I 97 W/m 1,1 C 1,4 C 9,7 km/h (2 Bft) 91,30 %
16.12.2017 11:37 2,9 C 3,9 C 87 % 1007,2 hPa 0,0 l/m 8,0 km/h (2 Bft) SW 225 0 min 0,000 mm 0,0 UV-I 98 W/m 1,0 C 1,4 C 12,9 km/h (3 Bft) 100,00 %
16.12.2017 11:38 2,9 C 3,9 C 87 % 1007,3 hPa 0,0 l/m 6,4 km/h (2 Bft) W-SW 247 0 min 0,000 mm 0,0 UV-I 98 W/m 1,0 C 2,9 C 11,3 km/h (2 Bft) 100,00 %
16.12.2017 11:39 2,9 C 3,9 C 87 % 1007,3 hPa 0,0 l/m 8,0 km/h (2 Bft) SW 225 0 min 0,000 mm 0,0 UV-I 94 W/m 1,0 C 1,4 C 11,3 km/h (2 Bft) 100,00 %
16.12.2017 11:40 2,9 C 3,9 C 87 % 1007,3 hPa 0,0 l/m 6,4 km/h (2 Bft) SW 225 0 min 0,000 mm 0,0 UV-I 98 W/m 1,0 C 2,9 C 9,7 km/h (2 Bft) 100,00 %
16.12.2017 11:41 3,0 C 3,9 C 87 % 1007,3 hPa 0,0 l/m 8,0 km/h (2 Bft) SW 225 0 min 0,000 mm 0,0 UV-I 104 W/m 1,1 C 1,5 C 12,9 km/h (3 Bft) 95,65 %
16.12.2017 11:42 3,0 C 3,9 C 87 % 1007,3 hPa 0,0 l/m 8,0 km/h (2 Bft) SW 225 0 min 0,000 mm 0,0 UV-I 104 W/m 1,1 C 1,5 C 9,7 km/h (2 Bft) 100,00 %
16.12.2017 11:43 3,0 C 3,9 C 87 % 1007,3 hPa 0,0 l/m 6,4 km/h (2 Bft) SW 225 0 min 0,000 mm 0,0 UV-I 105 W/m 1,1 C 3,0 C 9,7 km/h (2 Bft) 100,00 %
16.12.2017 11:44 3,1 C 3,9 C 87 % 1007,3 hPa 0,0 l/m 6,4 km/h (2 Bft) SW 225 0 min 0,000 mm 0,0 UV-I 111 W/m 1,2 C 3,1 C 8,0 km/h (2 Bft) 100,00 %
16.12.2017 11:45 3,1 C 3,9 C 87 % 1007,2 hPa 0,0 l/m 4,8 km/h (1 Bft) W-SW 247 0 min 0,000 mm 0,0 UV-I 123 W/m 1,2 C 3,1 C 6,4 km/h (2 Bft) 100,00 %
16.12.2017 11:46 3,1 C 3,9 C 87 % 1007,2 hPa 0,0 l/m 6,4 km/h (2 Bft) SW 225 0 min 0,000 mm 0,0 UV-I 127 W/m 1,2 C 3,1 C 9,7 km/h (2 Bft) 95,65 %
16.12.2017 11:47 3,1 C 3,9 C 87 % 1007,3 hPa 0,0 l/m 6,4 km/h (2 Bft) SW 225 0 min 0,000 mm 0,0 UV-I 127 W/m 1,2 C 3,1 C 8,0 km/h (2 Bft) 100,00 %
16.12.2017 11:48 3,1 C 3,9 C 87 % 1007,2 hPa 0,0 l/m 8,0 km/h (2 Bft) SW 225 0 min 0,000 mm 0,0 UV-I 125 W/m 1,2 C 1,6 C 11,3 km/h (2 Bft) 95,65 %
16.12.2017 11:49 3,1 C 3,9 C 87 % 1007,2 hPa 0,0 l/m 8,0 km/h (2 Bft) SW 225 0 min 0,000 mm 0,0 UV-I 120 W/m 1,2 C 1,6 C 11,3 km/h (2 Bft) 91,30 %
16.12.2017 11:50 3,2 C 3,9 C 87 % 1007,2 hPa 0,0 l/m 8,0 km/h (2 Bft) SW 225 0 min 0,000 mm 0,0 UV-I 116 W/m 1,2 C 1,7 C 12,9 km/h (3 Bft) 100,00 %
16.12.2017 11:51 3,2 C 3,9 C 87 % 1007,3 hPa 0,0 l/m 8,0 km/h (2 Bft) W-SW 247 0 min 0,000 mm 0,0 UV-I 112 W/m 1,2 C 1,7 C 11,3 km/h (2 Bft) 100,00 %
16.12.2017 11:52 3,2 C 3,9 C 87 % 1007,3 hPa 0,0 l/m 8,0 km/h (2 Bft) SW 225 0 min 0,000 mm 0,0 UV-I 107 W/m 1,2 C 1,7 C 11,3 km/h (2 Bft) 100,00 %
16.12.2017 11:53 3,2 C 3,9 C 87 % 1007,3 hPa 0,0 l/m 9,7 km/h (2 Bft) SW 225 0 min 0,000 mm 0,0 UV-I 100 W/m 1,2 C 0,3 C 12,9 km/h (3 Bft) 100,00 %
16.12.2017 11:54 3,2 C 3,9 C 87 % 1007,4 hPa 0,0 l/m 6,4 km/h (2 Bft) W-SW 247 0 min 0,000 mm 0,0 UV-I 95 W/m 1,2 C 3,2 C 9,7 km/h (2 Bft) 95,65 %
16.12.2017 11:55 3,2 C 3,9 C 87 % 1007,4 hPa 0,0 l/m 8,0 km/h (2 Bft) SW 225 0 min 0,000 mm 0,0 UV-I 91 W/m 1,2 C 1,7 C 11,3 km/h (2 Bft) 100,00 %
16.12.2017 11:56 3,2 C 3,9 C 87 % 1007,4 hPa 0,0 l/m 8,0 km/h (2 Bft) SW 225 0 min 0,000 mm 0,0 UV-I 88 W/m 1,2 C 1,7 C 9,7 km/h (2 Bft) 95,65 %
16.12.2017 11:57 3,2 C 3,9 C 87 % 1007,5 hPa 0,0 l/m 6,4 km/h (2 Bft) SW 225 0 min 0,000 mm 0,0 UV-I 82 W/m 1,2 C 3,2 C 11,3 km/h (2 Bft) 95,65 %
16.12.2017 11:58 3,2 C 3,9 C 87 % 1007,5 hPa 0,0 l/m 8,0 km/h (2 Bft) SW 225 0 min 0,000 mm 0,0 UV-I 81 W/m 1,2 C 1,7 C 12,9 km/h (3 Bft) 100,00 %
16.12.2017 11:59 3,2 C 3,9 C 87 % 1007,5 hPa 0,0 l/m 4,8 km/h (1 Bft) W-SW 247 0 min 0,000 mm 0,0 UV-I 81 W/m 1,2 C 3,2 C 8,0 km/h (2 Bft) 100,00 %
16.12.2017 12:00 3,2 C 3,9 C 87 % 1007,5 hPa 0,0 l/m 6,4 km/h (2 Bft) W-SW 247 0 min 0,051 mm 0,0 UV-I 81 W/m 1,2 C 3,2 C 9,7 km/h (2 Bft) 100,00 %
16.12.2017 12:01 3,2 C 3,9 C 87 % 1007,5 hPa 0,0 l/m 6,4 km/h (2 Bft) SW 225 0 min 0,000 mm 0,0 UV-I 83 W/m 1,2 C 3,2 C 8,0 km/h (2 Bft) 100,00 %
16.12.2017 12:02 3,2 C 3,9 C 87 % 1007,6 hPa 0,0 l/m 6,4 km/h (2 Bft) SW 225 0 min 0,000 mm 0,0 UV-I 81 W/m 1,2 C 3,2 C 11,3 km/h (2 Bft) 100,00 %
16.12.2017 12:03 3,2 C 3,9 C 87 % 1007,6 hPa 0,0 l/m 6,4 km/h (2 Bft) W 270 0 min 0,000 mm 0,0 UV-I 72 W/m 1,2 C 3,2 C 9,7 km/h (2 Bft) 95,65 %
16.12.2017 12:04 3,2 C 3,9 C 87 % 1007,5 hPa 0,0 l/m 8,0 km/h (2 Bft) W-SW 247 0 min 0,000 mm 0,0 UV-I 63 W/m 1,2 C 1,7 C 11,3 km/h (2 Bft) 100,00 %
16.12.2017 12:05 3,2 C 3,9 C 87 % 1007,6 hPa 0,0 l/m 9,7 km/h (2 Bft) W-SW 247 0 min 0,000 mm 0,0 UV-I 63 W/m 1,2 C 0,3 C 12,9 km/h (3 Bft) 100,00 %
16.12.2017 12:06 3,2 C 3,9 C 86 % 1007,6 hPa 0,0 l/m 8,0 km/h (2 Bft) W-SW 247 0 min 0,000 mm 0,0 UV-I 63 W/m 1,1 C 1,7 C 11,3 km/h (2 Bft) 100,00 %
16.12.2017 12:07 3,2 C 3,9 C 86 % 1007,6 hPa 0,0 l/m 6,4 km/h (2 Bft) W-SW 247 0 min 0,000 mm 0,0 UV-I 70 W/m 1,1 C 3,2 C 8,0 km/h (2 Bft) 100,00 %
16.12.2017 12:08 3,3 C 3,9 C 86 % 1007,6 hPa 0,0 l/m 8,0 km/h (2 Bft) W-SW 247 0 min 0,000 mm 0,0 UV-I 76 W/m 1,2 C 1,8 C 11,3 km/h (2 Bft) 100,00 %
16.12.2017 12:09 3,3 C 3,9 C 86 % 1007,6 hPa 0,0 l/m 9,7 km/h (2 Bft) W-SW 247 0 min 0,000 mm 0,0 UV-I 79 W/m 1,2 C 0,4 C 11,3 km/h (2 Bft) 100,00 %
16.12.2017 12:10 3,3 C 3,9 C 86 % 1007,6 hPa 0,0 l/m 9,7 km/h (2 Bft) W-SW 247 0 min 0,000 mm 0,0 UV-I 84 W/m 1,2 C 0,4 C 12,9 km/h (3 Bft) 95,65 %
16.12.2017 12:11 3,3 C 3,9 C 86 % 1007,6 hPa 0,0 l/m 6,4 km/h (2 Bft) W-SW 247 0 min 0,000 mm 0,0 UV-I 86 W/m 1,2 C 3,3 C 9,7 km/h (2 Bft) 95,65 %
16.12.2017 12:12 3,3 C 3,9 C 86 % 1007,5 hPa 0,0 l/m 8,0 km/h (2 Bft) W-SW 247 0 min 0,000 mm 0,0 UV-I 83 W/m 1,2 C 1,8 C 14,5 km/h (3 Bft) 100,00 %
16.12.2017 12:13 3,3 C 3,9 C 86 % 1007,5 hPa 0,0 l/m 11,3 km/h (2 Bft) W 270 0 min 0,000 mm 0,0 UV-I 81 W/m 1,2 C -0,7 C 14,5 km/h (3 Bft) 100,00 %
16.12.2017 12:14 3,3 C 3,9 C 86 % 1007,5 hPa 0,0 l/m 9,7 km/h (2 Bft) W-SW 247 0 min 0,000 mm 0,0 UV-I 81 W/m 1,2 C 0,4 C 14,5 km/h (3 Bft) 95,65 %
16.12.2017 12:15 3,3 C 3,9 C 86 % 1007,6 hPa 0,0 l/m 8,0 km/h (2 Bft) W-SW 247 0 min 0,000 mm 0,0 UV-I 79 W/m 1,2 C 1,8 C 11,3 km/h (2 Bft) 100,00 %
16.12.2017 12:16 3,3 C 3,9 C 86 % 1007,6 hPa 0,0 l/m 6,4 km/h (2 Bft) W-SW 247 0 min 0,000 mm 0,0 UV-I 79 W/m 1,2 C 3,3 C 11,3 km/h (2 Bft) 100,00 %
16.12.2017 12:17 3,3 C 3,9 C 86 % 1007,6 hPa 0,0 l/m 11,3 km/h (2 Bft) W-SW 247 0 min 0,000 mm 0,0 UV-I 81 W/m 1,2 C -0,7 C 16,1 km/h (3 Bft) 95,65 %
16.12.2017 12:18 3,3 C 3,9 C 85 % 1007,6 hPa 0,0 l/m 12,9 km/h (3 Bft) W-SW 247 0 min 0,000 mm 0,0 UV-I 81 W/m 1,0 C -1,8 C 16,1 km/h (3 Bft) 100,00 %
16.12.2017 12:19 3,4 C 3,9 C 86 % 1007,6 hPa 0,0 l/m 9,7 km/h (2 Bft) W-SW 247 0 min 0,000 mm 0,0 UV-I 83 W/m 1,3 C 0,5 C 12,9 km/h (3 Bft) 95,65 %
16.12.2017 12:20 3,4 C 3,9 C 86 % 1007,6 hPa 0,0 l/m 12,9 km/h (3 Bft) W-SW 247 0 min 0,000 mm 0,0 UV-I 86 W/m 1,3 C -1,7 C 17,7 km/h (3 Bft) 95,65 %
16.12.2017 12:21 3,4 C 3,9 C 86 % 1007,6 hPa 0,0 l/m 9,7 km/h (2 Bft) W-SW 247 0 min 0,000 mm 0,0 UV-I 90 W/m 1,3 C 0,5 C 16,1 km/h (3 Bft) 100,00 %
16.12.2017 12:22 3,4 C 3,9 C 85 % 1007,6 hPa 0,0 l/m 6,4 km/h (2 Bft) W-SW 247 0 min 0,000 mm 0,0 UV-I 90 W/m 1,1 C 3,4 C 9,7 km/h (2 Bft) 100,00 %
16.12.2017 12:23 3,4 C 3,9 C 86 % 1007,6 hPa 0,0 l/m 8,0 km/h (2 Bft) W-SW 247 0 min 0,000 mm 0,0 UV-I 88 W/m 1,3 C 1,9 C 9,7 km/h (2 Bft) 100,00 %
16.12.2017 12:24 3,4 C 3,9 C 85 % 1007,7 hPa 0,0 l/m 8,0 km/h (2 Bft) SW 225 0 min 0,000 mm 0,0 UV-I 88 W/m 1,1 C 1,9 C 11,3 km/h (2 Bft) 95,65 %
16.12.2017 12:25 3,4 C 3,9 C 85 % 1007,7 hPa 0,0 l/m 8,0 km/h (2 Bft) W-SW 247 0 min 0,000 mm 0,0 UV-I 84 W/m 1,1 C 1,9 C 11,3 km/h (2 Bft) 100,00 %
16.12.2017 12:26 3,4 C 3,9 C 85 % 1007,7 hPa 0,0 l/m 11,3 km/h (2 Bft) W-SW 247 0 min 0,000 mm 0,0 UV-I 84 W/m 1,1 C -0,6 C 14,5 km/h (3 Bft) 100,00 %
16.12.2017 12:27 3,4 C 3,9 C 85 % 1007,8 hPa 0,0 l/m 9,7 km/h (2 Bft) W 270 0 min 0,000 mm 0,0 UV-I 84 W/m 1,1 C 0,5 C 16,1 km/h (3 Bft) 95,65 %
16.12.2017 12:28 3,4 C 3,9 C 85 % 1007,8 hPa 0,0 l/m 9,7 km/h (2 Bft) W-SW 247 0 min 0,000 mm 0,0 UV-I 81 W/m 1,1 C 0,5 C 14,5 km/h (3 Bft) 95,65 %
16.12.2017 12:29 3,4 C 3,9 C 85 % 1007,7 hPa 0,0 l/m 8,0 km/h (2 Bft) W-SW 247 0 min 0,000 mm 0,0 UV-I 77 W/m 1,1 C 1,9 C 12,9 km/h (3 Bft) 100,00 %
16.12.2017 12:30 3,4 C 3,9 C 85 % 1007,8 hPa 0,0 l/m 9,7 km/h (2 Bft) W-SW 247 0 min 0,000 mm 0,0 UV-I 77 W/m 1,1 C 0,5 C 12,9 km/h (3 Bft) 95,65 %
16.12.2017 12:31 3,4 C 3,9 C 86 % 1007,8 hPa 0,0 l/m 12,9 km/h (3 Bft) W-SW 247 0 min 0,000 mm 0,0 UV-I 77 W/m 1,3 C -1,7 C 16,1 km/h (3 Bft) 95,65 %
16.12.2017 12:32 3,4 C 3,9 C 85 % 1007,8 hPa 0,0 l/m 9,7 km/h (2 Bft) W-SW 247 0 min 0,000 mm 0,0 UV-I 78 W/m 1,1 C 0,5 C 14,5 km/h (3 Bft) 100,00 %
16.12.2017 12:33 3,4 C 3,9 C 85 % 1007,8 hPa 0,0 l/m 9,7 km/h (2 Bft) W-SW 247 0 min 0,000 mm 0,0 UV-I 83 W/m 1,1 C 0,5 C 14,5 km/h (3 Bft) 91,30 %
16.12.2017 12:34 3,4 C 3,9 C 86 % 1007,8 hPa 0,0 l/m 9,7 km/h (2 Bft) W-SW 247 0 min 0,000 mm 0,0 UV-I 86 W/m 1,3 C 0,5 C 14,5 km/h (3 Bft) 100,00 %
16.12.2017 12:35 3,4 C 3,9 C 85 % 1007,7 hPa 0,0 l/m 8,0 km/h (2 Bft) W-SW 247 0 min 0,000 mm 0,0 UV-I 90 W/m 1,1 C 1,9 C 11,3 km/h (2 Bft) 95,65 %
16.12.2017 12:36 3,5 C 3,9 C 85 % 1007,8 hPa 0,0 l/m 11,3 km/h (2 Bft) W-SW 247 0 min 0,000 mm 0,0 UV-I 95 W/m 1,2 C -0,5 C 14,5 km/h (3 Bft) 95,65 %
16.12.2017 12:37 3,5 C 3,9 C 85 % 1007,8 hPa 0,0 l/m 6,4 km/h (2 Bft) W-SW 247 0 min 0,000 mm 0,0 UV-I 98 W/m 1,2 C 3,5 C 9,7 km/h (2 Bft) 100,00 %
16.12.2017 12:38 3,5 C 3,9 C 85 % 1007,8 hPa 0,0 l/m 6,4 km/h (2 Bft) W-SW 247 0 min 0,000 mm 0,0 UV-I 101 W/m 1,2 C 3,5 C 11,3 km/h (2 Bft) 91,30 %
16.12.2017 12:39 3,5 C 3,9 C 85 % 1007,8 hPa 0,0 l/m 8,0 km/h (2 Bft) W 270 0 min 0,000 mm 0,0 UV-I 102 W/m 1,2 C 2,0 C 12,9 km/h (3 Bft) 100,00 %
16.12.2017 12:40 3,5 C 3,9 C 85 % 1007,8 hPa 0,0 l/m 9,7 km/h (2 Bft) W 270 0 min 0,000 mm 0,0 UV-I 100 W/m 1,2 C 0,6 C 11,3 km/h (2 Bft) 86,96 %
16.12.2017 12:41 3,6 C 3,9 C 86 % 1007,8 hPa 0,0 l/m 9,7 km/h (2 Bft) W 270 0 min 0,000 mm 0,0 UV-I 100 W/m 1,5 C 0,8 C 11,3 km/h (2 Bft) 100,00 %
16.12.2017 12:42 3,6 C 3,9 C 85 % 1007,8 hPa 0,0 l/m 9,7 km/h (2 Bft) W 270 0 min 0,000 mm 0,0 UV-I 100 W/m 1,3 C 0,8 C 12,9 km/h (3 Bft) 91,30 %
16.12.2017 12:43 3,6 C 3,9 C 85 % 1007,8 hPa 0,0 l/m 9,7 km/h (2 Bft) W-SW 247 0 min 0,000 mm 0,0 UV-I 100 W/m 1,3 C 0,8 C 14,5 km/h (3 Bft) 100,00 %
16.12.2017 12:44 3,6 C 3,9 C 85 % 1007,8 hPa 0,0 l/m 8,0 km/h (2 Bft) W 270 0 min 0,000 mm 0,0 UV-I 98 W/m 1,3 C 2,1 C 12,9 km/h (3 Bft) 91,30 %
16.12.2017 12:45 3,6 C 3,9 C 85 % 1007,8 hPa 0,0 l/m 9,7 km/h (2 Bft) W-SW 247 0 min 0,000 mm 0,0 UV-I 95 W/m 1,3 C 0,8 C 12,9 km/h (3 Bft) 82,61 %
16.12.2017 12:46 3,6 C 3,9 C 85 % 1007,8 hPa 0,0 l/m 8,0 km/h (2 Bft) W 270 0 min 0,000 mm 0,0 UV-I 93 W/m 1,3 C 2,1 C 11,3 km/h (2 Bft) 95,65 %
16.12.2017 12:47 3,6 C 3,9 C 85 % 1007,8 hPa 0,0 l/m 6,4 km/h (2 Bft) W 270 0 min 0,000 mm 0,0 UV-I 91 W/m 1,3 C 3,6 C 9,7 km/h (2 Bft) 95,65 %
16.12.2017 12:48 3,6 C 3,9 C 85 % 1007,8 hPa 0,0 l/m 9,7 km/h (2 Bft) W-SW 247 0 min 0,000 mm 0,0 UV-I 90 W/m 1,3 C 0,8 C 12,9 km/h (3 Bft) 95,65 %
16.12.2017 12:49 3,6 C 3,9 C 85 % 1007,8 hPa 0,0 l/m 8,0 km/h (2 Bft) W 270 0 min 0,000 mm 0,0 UV-I 86 W/m 1,3 C 2,1 C 12,9 km/h (3 Bft) 95,65 %
16.12.2017 12:50 3,6 C 3,9 C 85 % 1007,9 hPa 0,0 l/m 9,7 km/h (2 Bft) W 270 0 min 0,000 mm 0,0 UV-I 84 W/m 1,3 C 0,8 C 12,9 km/h (3 Bft) 95,65 %
16.12.2017 12:51 3,6 C 3,9 C 85 % 1007,9 hPa 0,0 l/m 6,4 km/h (2 Bft) W-SW 247 0 min 0,000 mm 0,0 UV-I 81 W/m 1,3 C 3,6 C 11,3 km/h (2 Bft) 91,30 %
16.12.2017 12:52 3,6 C 3,9 C 85 % 1007,9 hPa 0,0 l/m 6,4 km/h (2 Bft) W-SW 247 0 min 0,000 mm 0,0 UV-I 81 W/m 1,3 C 3,6 C 8,0 km/h (2 Bft) 95,65 %
16.12.2017 12:53 3,6 C 3,9 C 85 % 1007,9 hPa 0,0 l/m 8,0 km/h (2 Bft) W-SW 247 0 min 0,000 mm 0,0 UV-I 84 W/m 1,3 C 2,1 C 11,3 km/h (2 Bft) 91,30 %
16.12.2017 12:54 3,7 C 3,9 C 85 % 1007,9 hPa 0,0 l/m 6,4 km/h (2 Bft) W-SW 247 0 min 0,000 mm 0,0 UV-I 86 W/m 1,4 C 3,7 C 9,7 km/h (2 Bft) 95,65 %
16.12.2017 12:55 3,7 C 3,9 C 85 % 1007,9 hPa 0,0 l/m 8,0 km/h (2 Bft) W-SW 247 0 min 0,000 mm 0,0 UV-I 92 W/m 1,4 C 2,2 C 11,3 km/h (2 Bft) 95,65 %
16.12.2017 12:56 3,7 C 3,9 C 84 % 1007,9 hPa 0,0 l/m 6,4 km/h (2 Bft) W-SW 247 0 min 0,000 mm 0,0 UV-I 95 W/m 1,3 C 3,7 C 11,3 km/h (2 Bft) 95,65 %
16.12.2017 12:57 3,7 C 3,9 C 84 % 1008,0 hPa 0,0 l/m 9,7 km/h (2 Bft) W-SW 247 0 min 0,000 mm 0,0 UV-I 100 W/m 1,3 C 0,9 C 14,5 km/h (3 Bft) 95,65 %
16.12.2017 12:58 3,7 C 3,9 C 84 % 1007,9 hPa 0,0 l/m 9,7 km/h (2 Bft) W-SW 247 0 min 0,000 mm 0,0 UV-I 105 W/m 1,3 C 0,9 C 12,9 km/h (3 Bft) 95,65 %
16.12.2017 12:59 3,7 C 3,9 C 84 % 1008,0 hPa 0,0 l/m 4,8 km/h (1 Bft) W-SW 247 0 min 0,000 mm 0,0 UV-I 107 W/m 1,3 C 3,7 C 8,0 km/h (2 Bft) 91,30 %
16.12.2017 13:00 3,7 C 3,9 C 84 % 1007,9 hPa 0,0 l/m 4,8 km/h (1 Bft) W 270 0 min 0,051 mm 0,0 UV-I 104 W/m 1,3 C 3,7 C 9,7 km/h (2 Bft) 95,65 %
16.12.2017 13:01 3,7 C 3,9 C 84 % 1008,0 hPa 0,0 l/m 3,2 km/h (1 Bft) W 270 0 min 0,000 mm 0,0 UV-I 93 W/m 1,3 C 3,7 C 4,8 km/h (1 Bft) 95,65 %
16.12.2017 13:02 3,7 C 3,9 C 84 % 1008,0 hPa 0,0 l/m 6,4 km/h (2 Bft) W-SW 247 0 min 0,000 mm 0,0 UV-I 90 W/m 1,3 C 3,7 C 8,0 km/h (2 Bft) 95,65 %
16.12.2017 13:03 3,8 C 3,9 C 84 % 1008,0 hPa 0,0 l/m 4,8 km/h (1 Bft) W 270 0 min 0,000 mm 0,0 UV-I 88 W/m 1,4 C 3,8 C 6,4 km/h (2 Bft) 95,65 %
16.12.2017 13:04 3,8 C 3,9 C 84 % 1008,0 hPa 0,0 l/m 6,4 km/h (2 Bft) W-SW 247 0 min 0,000 mm 0,0 UV-I 88 W/m 1,4 C 3,8 C 11,3 km/h (2 Bft) 95,65 %
16.12.2017 13:05 3,8 C 3,9 C 84 % 1008,0 hPa 0,0 l/m 6,4 km/h (2 Bft) W-SW 247 0 min 0,000 mm 0,0 UV-I 91 W/m 1,4 C 3,8 C 11,3 km/h (2 Bft) 95,65 %
16.12.2017 13:06 3,8 C 3,9 C 84 % 1008,0 hPa 0,0 l/m 6,4 km/h (2 Bft) W-SW 247 0 min 0,000 mm 0,0 UV-I 97 W/m 1,4 C 3,8 C 8,0 km/h (2 Bft) 95,65 %
16.12.2017 13:07 3,8 C 3,9 C 84 % 1008,0 hPa 0,0 l/m 4,8 km/h (1 Bft) SW 225 0 min 0,000 mm 0,0 UV-I 98 W/m 1,4 C 3,8 C 6,4 km/h (2 Bft) 95,65 %
16.12.2017 13:08 3,8 C 3,9 C 84 % 1008,0 hPa 0,0 l/m 8,0 km/h (2 Bft) W-SW 247 0 min 0,000 mm 0,0 UV-I 100 W/m 1,4 C 2,3 C 9,7 km/h (2 Bft) 100,00 %
16.12.2017 13:09 3,8 C 3,9 C 84 % 1008,0 hPa 0,0 l/m 4,8 km/h (1 Bft) SW 225 0 min 0,000 mm 0,0 UV-I 102 W/m 1,4 C 3,8 C 8,0 km/h (2 Bft) 95,65 %
16.12.2017 13:10 3,8 C 3,9 C 84 % 1008,1 hPa 0,0 l/m 4,8 km/h (1 Bft) W 270 0 min 0,000 mm 0,0 UV-I 100 W/m 1,4 C 3,8 C 6,4 km/h (2 Bft) 100,00 %
16.12.2017 13:11 3,8 C 3,9 C 85 % 1008,0 hPa 0,0 l/m 4,8 km/h (1 Bft) SW 225 0 min 0,000 mm 0,0 UV-I 100 W/m 1,5 C 3,8 C 6,4 km/h (2 Bft) 100,00 %
16.12.2017 13:12 3,8 C 3,9 C 84 % 1008,0 hPa 0,0 l/m 4,8 km/h (1 Bft) W-SW 247 0 min 0,000 mm 0,0 UV-I 107 W/m 1,4 C 3,8 C 8,0 km/h (2 Bft) 100,00 %
16.12.2017 13:13 3,8 C 3,9 C 84 % 1008,0 hPa 0,0 l/m 8,0 km/h (2 Bft) SW 225 0 min 0,000 mm 0,0 UV-I 128 W/m 1,4 C 2,3 C 11,3 km/h (2 Bft) 95,65 %
16.12.2017 13:14 3,8 C 3,9 C 84 % 1008,0 hPa 0,0 l/m 6,4 km/h (2 Bft) W-SW 247 0 min 0,000 mm 0,0 UV-I 148 W/m 1,4 C 3,8 C 11,3 km/h (2 Bft) 100,00 %
16.12.2017 13:15 3,8 C 3,9 C 85 % 1008,0 hPa 0,0 l/m 4,8 km/h (1 Bft) W-SW 247 0 min 0,000 mm 0,0 UV-I 155 W/m 1,5 C 3,8 C 9,7 km/h (2 Bft) 100,00 %
16.12.2017 13:16 3,8 C 3,9 C 85 % 1008,0 hPa 0,0 l/m 4,8 km/h (1 Bft) W 270 1 min 0,000 mm 0,0 UV-I 162 W/m 1,5 C 3,8 C 6,4 km/h (2 Bft) 100,00 %
16.12.2017 13:17 3,9 C 3,9 C 85 % 1008,1 hPa 0,0 l/m 6,4 km/h (2 Bft) W 270 1 min 0,000 mm 0,0 UV-I 162 W/m 1,6 C 3,9 C 11,3 km/h (2 Bft) 100,00 %
16.12.2017 13:18 3,9 C 3,9 C 85 % 1008,1 hPa 0,0 l/m 8,0 km/h (2 Bft) W-SW 247 0 min 0,000 mm 0,0 UV-I 156 W/m 1,6 C 2,4 C 12,9 km/h (3 Bft) 100,00 %
16.12.2017 13:19 3,9 C 3,9 C 85 % 1008,1 hPa 0,0 l/m 6,4 km/h (2 Bft) W-SW 247 0 min 0,000 mm 0,0 UV-I 141 W/m 1,6 C 3,9 C 9,7 km/h (2 Bft) 100,00 %
16.12.2017 13:20 3,9 C 3,9 C 84 % 1008,1 hPa 0,0 l/m 6,4 km/h (2 Bft) W 270 0 min 0,000 mm 0,0 UV-I 123 W/m 1,4 C 3,9 C 9,7 km/h (2 Bft) 95,65 %
16.12.2017 13:21 3,9 C 3,9 C 85 % 1008,1 hPa 0,0 l/m 6,4 km/h (2 Bft) W-SW 247 0 min 0,000 mm 0,0 UV-I 109 W/m 1,6 C 3,9 C 11,3 km/h (2 Bft) 100,00 %
16.12.2017 13:22 3,9 C 3,9 C 84 % 1008,2 hPa 0,0 l/m 6,4 km/h (2 Bft) SW 225 0 min 0,000 mm 0,0 UV-I 95 W/m 1,4 C 3,9 C 8,0 km/h (2 Bft) 100,00 %
16.12.2017 13:23 3,9 C 3,9 C 84 % 1008,1 hPa 0,0 l/m 4,8 km/h (1 Bft) W-SW 247 0 min 0,000 mm 0,0 UV-I 84 W/m 1,4 C 3,9 C 6,4 km/h (2 Bft) 100,00 %
16.12.2017 13:24 3,9 C 3,9 C 84 % 1008,1 hPa 0,0 l/m 6,4 km/h (2 Bft) W-SW 247 0 min 0,000 mm 0,0 UV-I 84 W/m 1,4 C 3,9 C 8,0 km/h (2 Bft) 100,00 %
16.12.2017 13:25 4,0 C 3,9 C 84 % 1008,2 hPa 0,0 l/m 11,3 km/h (2 Bft) W-SW 247 0 min 0,000 mm 0,0 UV-I 83 W/m 1,5 C 0,1 C 16,1 km/h (3 Bft) 100,00 %
16.12.2017 13:26 3,9 C 3,9 C 84 % 1008,2 hPa 0,0 l/m 11,3 km/h (2 Bft) W 270 0 min 0,000 mm 0,0 UV-I 76 W/m 1,4 C -0,1 C 16,1 km/h (3 Bft) 100,00 %
16.12.2017 13:27 3,9 C 3,9 C 83 % 1008,1 hPa 0,0 l/m 9,7 km/h (2 Bft) W 270 0 min 0,000 mm 0,0 UV-I 77 W/m 1,3 C 1,1 C 11,3 km/h (2 Bft) 100,00 %
16.12.2017 13:28 3,9 C 3,9 C 83 % 1008,2 hPa 0,0 l/m 6,4 km/h (2 Bft) W-SW 247 0 min 0,000 mm 0,0 UV-I 81 W/m 1,3 C 3,9 C 8,0 km/h (2 Bft) 95,65 %
16.12.2017 13:29 3,9 C 3,9 C 83 % 1008,2 hPa 0,0 l/m 12,9 km/h (3 Bft) W-SW 247 0 min 0,000 mm 0,0 UV-I 81 W/m 1,3 C -1,1 C 17,7 km/h (3 Bft) 100,00 %
16.12.2017 13:30 3,9 C 3,9 C 83 % 1008,2 hPa 0,0 l/m 9,7 km/h (2 Bft) W-SW 247 0 min 0,000 mm 0,0 UV-I 83 W/m 1,3 C 1,1 C 14,5 km/h (3 Bft) 100,00 %
16.12.2017 13:31 3,9 C 3,9 C 83 % 1008,2 hPa 0,0 l/m 9,7 km/h (2 Bft) W-NW 292 0 min 0,000 mm 0,0 UV-I 90 W/m 1,3 C 1,1 C 12,9 km/h (3 Bft) 100,00 %
16.12.2017 13:32 3,9 C 3,9 C 83 % 1008,2 hPa 0,0 l/m 8,0 km/h (2 Bft) W-SW 247 0 min 0,000 mm 0,0 UV-I 98 W/m 1,3 C 2,4 C 12,9 km/h (3 Bft) 95,65 %
16.12.2017 13:33 3,9 C 3,9 C 83 % 1008,2 hPa 0,0 l/m 9,7 km/h (2 Bft) W-SW 247 0 min 0,000 mm 0,0 UV-I 98 W/m 1,3 C 1,1 C 14,5 km/h (3 Bft) 100,00 %
16.12.2017 13:34 3,9 C 3,9 C 83 % 1008,3 hPa 0,0 l/m 9,7 km/h (2 Bft) W-SW 247 0 min 0,000 mm 0,0 UV-I 93 W/m 1,3 C 1,1 C 12,9 km/h (3 Bft) 100,00 %
16.12.2017 13:35 3,9 C 3,9 C 83 % 1008,2 hPa 0,0 l/m 4,8 km/h (1 Bft) W 270 0 min 0,000 mm 0,0 UV-I 83 W/m 1,3 C 3,9 C 8,0 km/h (2 Bft) 95,65 %
16.12.2017 13:36 3,9 C 3,9 C 84 % 1008,3 hPa 0,0 l/m 6,4 km/h (2 Bft) W 270 0 min 0,000 mm 0,0 UV-I 71 W/m 1,4 C 3,9 C 9,7 km/h (2 Bft) 100,00 %
16.12.2017 13:37 3,9 C 3,9 C 84 % 1008,2 hPa 0,0 l/m 11,3 km/h (2 Bft) W 270 0 min 0,000 mm 0,0 UV-I 69 W/m 1,4 C -0,1 C 14,5 km/h (3 Bft) 100,00 %
16.12.2017 13:38 3,9 C 3,9 C 84 % 1008,3 hPa 0,0 l/m 8,0 km/h (2 Bft) W 270 0 min 0,000 mm 0,0 UV-I 67 W/m 1,4 C 2,4 C 12,9 km/h (3 Bft) 100,00 %
16.12.2017 13:39 3,9 C 3,9 C 84 % 1008,3 hPa 0,0 l/m 8,0 km/h (2 Bft) W 270 0 min 0,000 mm 0,0 UV-I 67 W/m 1,4 C 2,4 C 14,5 km/h (3 Bft) 95,65 %
16.12.2017 13:40 3,9 C 3,9 C 83 % 1008,3 hPa 0,0 l/m 6,4 km/h (2 Bft) W 270 0 min 0,000 mm 0,0 UV-I 69 W/m 1,3 C 3,9 C 12,9 km/h (3 Bft) 100,00 %
16.12.2017 13:41 3,9 C 3,9 C 84 % 1008,3 hPa 0,0 l/m 6,4 km/h (2 Bft) W 270 0 min 0,000 mm 0,0 UV-I 69 W/m 1,4 C 3,9 C 9,7 km/h (2 Bft) 100,00 %
16.12.2017 13:45 3,9 C 3,9 C 84 % 1008,3 hPa 0,0 l/m 9,7 km/h (2 Bft) W 270 0 min 0,000 mm 0,0 UV-I 84 W/m 1,4 C 1,1 C 11,3 km/h (2 Bft) 47,83 %
16.12.2017 13:46 3,9 C 3,9 C 83 % 1008,4 hPa 0,0 l/m 4,8 km/h (1 Bft) NW 315 0 min 0,000 mm 0,0 UV-I 84 W/m 1,3 C 3,9 C 9,7 km/h (2 Bft) 95,65 %
16.12.2017 13:47 3,9 C 3,9 C 84 % 1008,4 hPa 0,0 l/m 1,6 km/h (1 Bft) NW 315 0 min 0,000 mm 0,0 UV-I 91 W/m 1,4 C 3,9 C 1,6 km/h (1 Bft) 100,00 %
16.12.2017 13:48 3,9 C 3,9 C 84 % 1008,3 hPa 0,0 l/m 3,2 km/h (1 Bft) NW 315 0 min 0,000 mm 0,0 UV-I 101 W/m 1,4 C 3,9 C 9,7 km/h (2 Bft) 100,00 %
16.12.2017 13:49 3,9 C 3,9 C 84 % 1008,3 hPa 0,0 l/m 6,4 km/h (2 Bft) W-SW 247 0 min 0,000 mm 0,0 UV-I 98 W/m 1,4 C 3,9 C 11,3 km/h (2 Bft) 100,00 %
16.12.2017 13:50 3,9 C 3,9 C 84 % 1008,4 hPa 0,0 l/m 3,2 km/h (1 Bft) W-SW 247 0 min 0,000 mm 0,0 UV-I 95 W/m 1,4 C 3,9 C 4,8 km/h (1 Bft) 100,00 %
16.12.2017 13:51 3,9 C 3,9 C 84 % 1008,3 hPa 0,0 l/m 6,4 km/h (2 Bft) W-SW 247 0 min 0,000 mm 0,0 UV-I 93 W/m 1,4 C 3,9 C 11,3 km/h (2 Bft) 100,00 %
16.12.2017 13:52 3,9 C 3,9 C 84 % 1008,4 hPa 0,0 l/m 11,3 km/h (2 Bft) W 270 0 min 0,000 mm 0,0 UV-I 91 W/m 1,4 C -0,1 C 17,7 km/h (3 Bft) 100,00 %
16.12.2017 13:53 3,9 C 3,9 C 84 % 1008,4 hPa 0,0 l/m 8,0 km/h (2 Bft) W-NW 292 0 min 0,000 mm 0,0 UV-I 91 W/m 1,4 C 2,4 C 12,9 km/h (3 Bft) 95,65 %
16.12.2017 13:54 3,8 C 3,9 C 84 % 1008,4 hPa 0,0 l/m 8,0 km/h (2 Bft) W 270 0 min 0,000 mm 0,0 UV-I 89 W/m 1,4 C 2,3 C 12,9 km/h (3 Bft) 100,00 %
16.12.2017 13:55 3,8 C 3,9 C 85 % 1008,4 hPa 0,0 l/m 6,4 km/h (2 Bft) W-NW 292 0 min 0,000 mm 0,0 UV-I 77 W/m 1,5 C 3,8 C 12,9 km/h (3 Bft) 95,65 %
16.12.2017 13:56 3,7 C 3,9 C 85 % 1008,4 hPa 0,0 l/m 1,6 km/h (1 Bft) W-NW 292 0 min 0,000 mm 0,0 UV-I 72 W/m 1,4 C 3,7 C 6,4 km/h (2 Bft) 100,00 %
16.12.2017 13:57 3,7 C 3,9 C 86 % 1008,5 hPa 0,0 l/m 6,4 km/h (2 Bft) W-NW 292 0 min 0,000 mm 0,0 UV-I 74 W/m 1,6 C 3,7 C 12,9 km/h (3 Bft) 95,65 %
16.12.2017 13:58 3,6 C 3,9 C 86 % 1008,5 hPa 0,0 l/m 3,2 km/h (1 Bft) W 270 0 min 0,000 mm 0,0 UV-I 79 W/m 1,5 C 3,6 C 8,0 km/h (2 Bft) 100,00 %
16.12.2017 13:59 3,5 C 3,9 C 87 % 1008,5 hPa 0,0 l/m 8,0 km/h (2 Bft) W 270 0 min 0,000 mm 0,0 UV-I 77 W/m 1,5 C 2,0 C 11,3 km/h (2 Bft) 100,00 %
16.12.2017 14:00 3,4 C 3,9 C 87 % 1008,5 hPa 0,0 l/m 4,8 km/h (1 Bft) W 270 0 min 0,051 mm 0,0 UV-I 68 W/m 1,4 C 3,4 C 9,7 km/h (2 Bft) 100,00 %
16.12.2017 14:01 3,4 C 3,9 C 87 % 1008,6 hPa 0,0 l/m 6,4 km/h (2 Bft) W 270 0 min 0,000 mm 0,0 UV-I 62 W/m 1,4 C 3,4 C 9,7 km/h (2 Bft) 95,65 %
16.12.2017 14:02 3,4 C 3,9 C 88 % 1008,5 hPa 0,0 l/m 3,2 km/h (1 Bft) NW 315 0 min 0,000 mm 0,0 UV-I 54 W/m 1,6 C 3,4 C 4,8 km/h (1 Bft) 95,65 %
16.12.2017 14:03 3,3 C 3,9 C 88 % 1008,5 hPa 0,0 l/m 9,7 km/h (2 Bft) W-NW 292 0 min 0,000 mm 0,0 UV-I 47 W/m 1,5 C 0,4 C 16,1 km/h (3 Bft) 100,00 %
16.12.2017 14:04 3,3 C 3,9 C 88 % 1008,5 hPa 0,0 l/m 4,8 km/h (1 Bft) W-NW 292 0 min 0,000 mm 0,0 UV-I 46 W/m 1,5 C 3,3 C 6,4 km/h (2 Bft) 95,65 %
16.12.2017 14:05 3,3 C 3,9 C 88 % 1008,6 hPa 0,0 l/m 3,2 km/h (1 Bft) W-NW 292 0 min 0,000 mm 0,0 UV-I 44 W/m 1,5 C 3,3 C 9,7 km/h (2 Bft) 100,00 %
16.12.2017 14:06 3,3 C 3,9 C 89 % 1008,6 hPa 0,0 l/m 6,4 km/h (2 Bft) W 270 0 min 0,000 mm 0,0 UV-I 40 W/m 1,7 C 3,3 C 11,3 km/h (2 Bft) 95,65 %
16.12.2017 14:07 3,3 C 3,9 C 88 % 1008,6 hPa 0,0 l/m 3,2 km/h (1 Bft) W 270 0 min 0,000 mm 0,0 UV-I 40 W/m 1,5 C 3,3 C 6,4 km/h (2 Bft) 100,00 %
16.12.2017 14:08 3,2 C 3,9 C 89 % 1008,6 hPa 0,0 l/m 1,6 km/h (1 Bft) W 270 0 min 0,000 mm 0,0 UV-I 44 W/m 1,6 C 3,2 C 3,2 km/h (1 Bft) 86,96 %
16.12.2017 14:09 3,2 C 3,9 C 89 % 1008,6 hPa 0,0 l/m 4,8 km/h (1 Bft) W 270 0 min 0,000 mm 0,0 UV-I 49 W/m 1,6 C 3,2 C 8,0 km/h (2 Bft) 100,00 %
16.12.2017 14:10 3,2 C 3,9 C 89 % 1008,6 hPa 0,0 l/m 3,2 km/h (1 Bft) W 270 0 min 0,000 mm 0,0 UV-I 58 W/m 1,6 C 3,2 C 9,7 km/h (2 Bft) 95,65 %
16.12.2017 14:11 3,2 C 3,9 C 89 % 1008,6 hPa 0,0 l/m 1,6 km/h (1 Bft) W-SW 247 0 min 0,000 mm 0,0 UV-I 65 W/m 1,6 C 3,2 C 4,8 km/h (1 Bft) 100,00 %
16.12.2017 14:12 3,2 C 3,9 C 89 % 1008,6 hPa 0,0 l/m 4,8 km/h (1 Bft) W-NW 292 0 min 0,000 mm 0,0 UV-I 58 W/m 1,6 C 3,2 C 8,0 km/h (2 Bft) 95,65 %
16.12.2017 14:13 3,2 C 3,9 C 89 % 1008,7 hPa 0,0 l/m 3,2 km/h (1 Bft) W-NW 292 0 min 0,000 mm 0,0 UV-I 49 W/m 1,6 C 3,2 C 4,8 km/h (1 Bft) 95,65 %
16.12.2017 14:14 3,2 C 3,9 C 89 % 1008,7 hPa 0,0 l/m 3,2 km/h (1 Bft) NW 315 0 min 0,000 mm 0,0 UV-I 47 W/m 1,6 C 3,2 C 4,8 km/h (1 Bft) 100,00 %
16.12.2017 14:15 3,2 C 3,9 C 89 % 1008,7 hPa 0,0 l/m 3,2 km/h (1 Bft) W-NW 292 0 min 0,000 mm 0,0 UV-I 47 W/m 1,6 C 3,2 C 4,8 km/h (1 Bft) 86,96 %
16.12.2017 14:16 3,2 C 3,9 C 89 % 1008,8 hPa 0,0 l/m 6,4 km/h (2 Bft) W-NW 292 0 min 0,000 mm 0,0 UV-I 46 W/m 1,6 C 3,2 C 11,3 km/h (2 Bft) 100,00 %
16.12.2017 14:17 3,2 C 3,9 C 89 % 1008,8 hPa 0,0 l/m 4,8 km/h (1 Bft) W 270 0 min 0,000 mm 0,0 UV-I 39 W/m 1,6 C 3,2 C 4,8 km/h (1 Bft) 95,65 %
16.12.2017 14:18 3,2 C 3,9 C 89 % 1008,8 hPa 0,0 l/m 4,8 km/h (1 Bft) W-NW 292 0 min 0,000 mm 0,0 UV-I 37 W/m 1,6 C 3,2 C 6,4 km/h (2 Bft) 100,00 %
16.12.2017 14:19 3,2 C 3,9 C 89 % 1008,8 hPa 0,0 l/m 3,2 km/h (1 Bft) W-NW 292 0 min 0,000 mm 0,0 UV-I 33 W/m 1,6 C 3,2 C 4,8 km/h (1 Bft) 95,65 %
16.12.2017 14:20 3,2 C 3,9 C 90 % 1008,8 hPa 0,0 l/m 3,2 km/h (1 Bft) W-NW 292 0 min 0,000 mm 0,0 UV-I 25 W/m 1,7 C 3,2 C 4,8 km/h (1 Bft) 95,65 %
16.12.2017 14:21 3,1 C 3,9 C 90 % 1008,9 hPa 0,0 l/m 4,8 km/h (1 Bft) W-NW 292 0 min 0,000 mm 0,0 UV-I 19 W/m 1,6 C 3,1 C 6,4 km/h (2 Bft) 91,30 %
16.12.2017 14:22 3,1 C 3,9 C 90 % 1008,9 hPa 0,0 l/m 3,2 km/h (1 Bft) W 270 0 min 0,000 mm 0,0 UV-I 18 W/m 1,6 C 3,1 C 6,4 km/h (2 Bft) 95,65 %
16.12.2017 14:23 3,1 C 3,9 C 90 % 1008,9 hPa 0,0 l/m 3,2 km/h (1 Bft) W-NW 292 0 min 0,000 mm 0,0 UV-I 20 W/m 1,6 C 3,1 C 4,8 km/h (1 Bft) 91,30 %
16.12.2017 14:24 3,1 C 3,9 C 90 % 1008,9 hPa 0,0 l/m 3,2 km/h (1 Bft) W-NW 292 0 min 0,000 mm 0,0 UV-I 19 W/m 1,6 C 3,1 C 6,4 km/h (2 Bft) 100,00 %
16.12.2017 14:25 3,1 C 3,9 C 90 % 1009,0 hPa 0,0 l/m 6,4 km/h (2 Bft) W 270 0 min 0,000 mm 0,0 UV-I 19 W/m 1,6 C 3,1 C 9,7 km/h (2 Bft) 95,65 %
16.12.2017 14:26 3,1 C 3,9 C 90 % 1009,0 hPa 0,0 l/m 4,8 km/h (1 Bft) W 270 0 min 0,000 mm 0,0 UV-I 18 W/m 1,6 C 3,1 C 6,4 km/h (2 Bft) 100,00 %
16.12.2017 14:27 3,1 C 3,9 C 90 % 1009,0 hPa 0,0 l/m 9,7 km/h (2 Bft) W 270 0 min 0,000 mm 0,0 UV-I 18 W/m 1,6 C 0,2 C 14,5 km/h (3 Bft) 95,65 %
16.12.2017 14:28 3,1 C 3,9 C 90 % 1009,0 hPa 0,0 l/m 6,4 km/h (2 Bft) W 270 0 min 0,000 mm 0,0 UV-I 18 W/m 1,6 C 3,1 C 9,7 km/h (2 Bft) 100,00 %
16.12.2017 14:29 3,1 C 3,9 C 90 % 1009,0 hPa 0,0 l/m 4,8 km/h (1 Bft) W 270 0 min 0,000 mm 0,0 UV-I 16 W/m 1,6 C 3,1 C 6,4 km/h (2 Bft) 95,65 %
16.12.2017 14:30 3,1 C 3,9 C 90 % 1009,0 hPa 0,0 l/m 6,4 km/h (2 Bft) W-SW 247 0 min 0,000 mm 0,0 UV-I 16 W/m 1,6 C 3,1 C 8,0 km/h (2 Bft) 95,65 %
16.12.2017 14:31 3,1 C 3,9 C 90 % 1009,0 hPa 0,0 l/m 4,8 km/h (1 Bft) W-SW 247 0 min 0,000 mm 0,0 UV-I 18 W/m 1,6 C 3,1 C 8,0 km/h (2 Bft) 95,65 %
16.12.2017 14:32 3,1 C 3,9 C 90 % 1009,0 hPa 0,0 l/m 8,0 km/h (2 Bft) W 270 0 min 0,000 mm 0,0 UV-I 19 W/m 1,6 C 1,6 C 12,9 km/h (3 Bft) 91,30 %
16.12.2017 14:33 3,1 C 3,9 C 90 % 1009,0 hPa 0,0 l/m 8,0 km/h (2 Bft) W-SW 247 0 min 0,000 mm 0,0 UV-I 23 W/m 1,6 C 1,6 C 16,1 km/h (3 Bft) 95,65 %
16.12.2017 14:34 3,1 C 3,9 C 90 % 1009,0 hPa 0,0 l/m 11,3 km/h (2 Bft) W-SW 247 0 min 0,000 mm 0,0 UV-I 26 W/m 1,6 C -1,0 C 17,7 km/h (3 Bft) 100,00 %
16.12.2017 14:35 3,0 C 3,9 C 90 % 1009,1 hPa 0,0 l/m 9,7 km/h (2 Bft) W 270 0 min 0,000 mm 0,0 UV-I 32 W/m 1,5 C 0,1 C 14,5 km/h (3 Bft) 100,00 %
16.12.2017 14:36 2,9 C 3,9 C 90 % 1009,0 hPa 0,0 l/m 16,1 km/h (3 Bft) W-SW 247 0 min 0,000 mm 0,0 UV-I 37 W/m 1,4 C -4,1 C 19,3 km/h (3 Bft) 91,30 %
16.12.2017 14:37 2,9 C 3,9 C 90 % 1009,1 hPa 0,0 l/m 11,3 km/h (2 Bft) SW 225 0 min 0,000 mm 0,0 UV-I 40 W/m 1,4 C -1,2 C 17,7 km/h (3 Bft) 100,00 %
16.12.2017 14:38 2,8 C 3,9 C 90 % 1009,1 hPa 0,0 l/m 14,5 km/h (3 Bft) W-SW 247 0 min 0,000 mm 0,0 UV-I 42 W/m 1,3 C -3,3 C 19,3 km/h (3 Bft) 95,65 %
16.12.2017 14:39 2,8 C 3,9 C 90 % 1009,1 hPa 0,0 l/m 12,9 km/h (3 Bft) W-SW 247 0 min 0,000 mm 0,0 UV-I 42 W/m 1,3 C -2,4 C 17,7 km/h (3 Bft) 95,65 %
16.12.2017 14:40 2,8 C 3,9 C 90 % 1009,1 hPa 0,0 l/m 11,3 km/h (2 Bft) W-SW 247 0 min 0,000 mm 0,0 UV-I 40 W/m 1,3 C -1,3 C 12,9 km/h (3 Bft) 100,00 %
16.12.2017 14:41 2,7 C 3,9 C 90 % 1009,1 hPa 0,0 l/m 9,7 km/h (2 Bft) W-SW 247 0 min 0,000 mm 0,0 UV-I 38 W/m 1,2 C -0,2 C 14,5 km/h (3 Bft) 95,65 %
16.12.2017 14:42 2,7 C 3,9 C 90 % 1009,1 hPa 0,0 l/m 9,7 km/h (2 Bft) W 270 0 min 0,000 mm 0,0 UV-I 37 W/m 1,2 C -0,2 C 12,9 km/h (3 Bft) 95,65 %
16.12.2017 14:43 2,7 C 3,9 C 91 % 1009,1 hPa 0,0 l/m 9,7 km/h (2 Bft) W-SW 247 0 min 0,000 mm 0,0 UV-I 35 W/m 1,4 C -0,2 C 16,1 km/h (3 Bft) 91,30 %
16.12.2017 14:44 2,7 C 3,9 C 91 % 1009,1 hPa 0,0 l/m 6,4 km/h (2 Bft) W-SW 247 0 min 0,000 mm 0,0 UV-I 35 W/m 1,4 C 2,7 C 11,3 km/h (2 Bft) 100,00 %
16.12.2017 14:45 2,6 C 3,9 C 91 % 1009,1 hPa 0,0 l/m 6,4 km/h (2 Bft) W-SW 247 0 min 0,000 mm 0,0 UV-I 33 W/m 1,3 C 2,6 C 8,0 km/h (2 Bft) 95,65 %
16.12.2017 14:46 2,6 C 3,9 C 91 % 1009,1 hPa 0,0 l/m 11,3 km/h (2 Bft) W-SW 247 0 min 0,000 mm 0,0 UV-I 33 W/m 1,3 C -1,5 C 16,1 km/h (3 Bft) 95,65 %
16.12.2017 14:47 2,6 C 3,9 C 91 % 1009,1 hPa 0,0 l/m 9,7 km/h (2 Bft) W-SW 247 0 min 0,000 mm 0,0 UV-I 33 W/m 1,3 C -0,3 C 12,9 km/h (3 Bft) 95,65 %
16.12.2017 14:48 2,6 C 3,9 C 91 % 1009,1 hPa 0,0 l/m 12,9 km/h (3 Bft) W-SW 247 0 min 0,000 mm 0,0 UV-I 32 W/m 1,3 C -2,6 C 17,7 km/h (3 Bft) 95,65 %
16.12.2017 14:49 2,6 C 3,9 C 91 % 1009,1 hPa 0,0 l/m 12,9 km/h (3 Bft) W-SW 247 0 min 0,000 mm 0,0 UV-I 30 W/m 1,3 C -2,6 C 17,7 km/h (3 Bft) 100,00 %
16.12.2017 14:50 2,6 C 3,9 C 91 % 1009,2 hPa 0,0 l/m 8,0 km/h (2 Bft) W-SW 247 0 min 0,000 mm 0,0 UV-I 30 W/m 1,3 C 1,1 C 14,5 km/h (3 Bft) 91,30 %
16.12.2017 14:51 2,6 C 3,9 C 91 % 1009,2 hPa 0,2 l/m 11,3 km/h (2 Bft) W-SW 247 0 min 0,000 mm 0,0 UV-I 30 W/m 1,3 C -1,5 C 14,5 km/h (3 Bft) 100,00 %
16.12.2017 14:52 2,6 C 3,9 C 91 % 1009,2 hPa 0,0 l/m 11,3 km/h (2 Bft) SW 225 0 min 0,000 mm 0,0 UV-I 32 W/m 1,3 C -1,5 C 16,1 km/h (3 Bft) 95,65 %
16.12.2017 14:53 2,6 C 3,9 C 91 % 1009,2 hPa 0,0 l/m 9,7 km/h (2 Bft) W-SW 247 0 min 0,000 mm 0,0 UV-I 32 W/m 1,3 C -0,3 C 12,9 km/h (3 Bft) 95,65 %
16.12.2017 14:54 2,6 C 3,9 C 91 % 1009,2 hPa 0,0 l/m 11,3 km/h (2 Bft) W-SW 247 0 min 0,000 mm 0,0 UV-I 32 W/m 1,3 C -1,5 C 14,5 km/h (3 Bft) 95,65 %
16.12.2017 14:55 2,6 C 3,9 C 91 % 1009,2 hPa 0,0 l/m 8,0 km/h (2 Bft) W-SW 247 0 min 0,000 mm 0,0 UV-I 32 W/m 1,3 C 1,1 C 12,9 km/h (3 Bft) 91,30 %
16.12.2017 14:56 2,6 C 3,9 C 91 % 1009,3 hPa 0,0 l/m 11,3 km/h (2 Bft) W-SW 247 0 min 0,000 mm 0,0 UV-I 32 W/m 1,3 C -1,5 C 12,9 km/h (3 Bft) 100,00 %
16.12.2017 14:57 2,6 C 3,9 C 91 % 1009,3 hPa 0,0 l/m 8,0 km/h (2 Bft) W 270 0 min 0,000 mm 0,0 UV-I 32 W/m 1,3 C 1,1 C 12,9 km/h (3 Bft) 86,96 %
16.12.2017 14:58 2,6 C 3,9 C 92 % 1009,3 hPa 0,0 l/m 12,9 km/h (3 Bft) W-SW 247 0 min 0,000 mm 0,0 UV-I 29 W/m 1,4 C -2,6 C 16,1 km/h (3 Bft) 100,00 %
16.12.2017 14:59 2,6 C 3,9 C 91 % 1009,3 hPa 0,0 l/m 9,7 km/h (2 Bft) W-SW 247 0 min 0,000 mm 0,0 UV-I 26 W/m 1,3 C -0,3 C 14,5 km/h (3 Bft) 95,65 %
16.12.2017 15:00 2,6 C 3,9 C 91 % 1009,3 hPa 0,0 l/m 9,7 km/h (2 Bft) W-SW 247 0 min 0,025 mm 0,0 UV-I 26 W/m 1,3 C -0,3 C 14,5 km/h (3 Bft) 100,00 %
16.12.2017 15:01 2,6 C 3,9 C 91 % 1009,3 hPa 0,0 l/m 8,0 km/h (2 Bft) W-SW 247 0 min 0,000 mm 0,0 UV-I 26 W/m 1,3 C 1,1 C 14,5 km/h (3 Bft) 95,65 %
16.12.2017 15:02 2,6 C 3,9 C 91 % 1009,4 hPa 0,0 l/m 11,3 km/h (2 Bft) W-SW 247 0 min 0,000 mm 0,0 UV-I 26 W/m 1,3 C -1,5 C 12,9 km/h (3 Bft) 100,00 %
16.12.2017 15:03 2,7 C 3,9 C 91 % 1009,3 hPa 0,0 l/m 8,0 km/h (2 Bft) W-SW 247 0 min 0,000 mm 0,0 UV-I 26 W/m 1,4 C 1,2 C 11,3 km/h (2 Bft) 95,65 %
16.12.2017 15:04 2,7 C 3,9 C 91 % 1009,4 hPa 0,0 l/m 8,0 km/h (2 Bft) W-SW 247 0 min 0,000 mm 0,0 UV-I 26 W/m 1,4 C 1,2 C 14,5 km/h (3 Bft) 91,30 %
16.12.2017 15:05 2,7 C 3,9 C 91 % 1009,3 hPa 0,0 l/m 8,0 km/h (2 Bft) W-SW 247 0 min 0,000 mm 0,0 UV-I 26 W/m 1,4 C 1,2 C 12,9 km/h (3 Bft) 100,00 %
16.12.2017 15:06 2,7 C 3,9 C 91 % 1009,4 hPa 0,0 l/m 8,0 km/h (2 Bft) W 270 0 min 0,000 mm 0,0 UV-I 30 W/m 1,4 C 1,2 C 11,3 km/h (2 Bft) 95,65 %
16.12.2017 15:07 2,7 C 3,9 C 91 % 1009,5 hPa 0,0 l/m 6,4 km/h (2 Bft) W-SW 247 0 min 0,000 mm 0,0 UV-I 33 W/m 1,4 C 2,7 C 9,7 km/h (2 Bft) 100,00 %
16.12.2017 15:08 2,7 C 3,9 C 91 % 1009,4 hPa 0,0 l/m 9,7 km/h (2 Bft) W-SW 247 0 min 0,000 mm 0,0 UV-I 33 W/m 1,4 C -0,2 C 12,9 km/h (3 Bft) 95,65 %
16.12.2017 15:09 2,7 C 3,9 C 91 % 1009,4 hPa 0,0 l/m 6,4 km/h (2 Bft) W-SW 247 0 min 0,000 mm 0,0 UV-I 33 W/m 1,4 C 2,7 C 9,7 km/h (2 Bft) 100,00 %
16.12.2017 15:10 2,7 C 3,9 C 91 % 1009,4 hPa 0,0 l/m 8,0 km/h (2 Bft) W 270 0 min 0,000 mm 0,0 UV-I 26 W/m 1,4 C 1,2 C 11,3 km/h (2 Bft) 95,65 %
16.12.2017 15:11 2,7 C 3,9 C 91 % 1009,4 hPa 0,0 l/m 8,0 km/h (2 Bft) SW 225 0 min 0,000 mm 0,0 UV-I 26 W/m 1,4 C 1,2 C 11,3 km/h (2 Bft) 95,65 %
16.12.2017 15:12 2,7 C 3,9 C 91 % 1009,4 hPa 0,0 l/m 8,0 km/h (2 Bft) W 270 0 min 0,000 mm 0,0 UV-I 25 W/m 1,4 C 1,2 C 11,3 km/h (2 Bft) 100,00 %
16.12.2017 15:13 2,7 C 3,9 C 91 % 1009,4 hPa 0,0 l/m 8,0 km/h (2 Bft) W 270 0 min 0,000 mm 0,0 UV-I 25 W/m 1,4 C 1,2 C 11,3 km/h (2 Bft) 100,00 %
16.12.2017 15:14 2,8 C 3,9 C 90 % 1009,4 hPa 0,0 l/m 8,0 km/h (2 Bft) W-SW 247 0 min 0,000 mm 0,0 UV-I 26 W/m 1,3 C 1,3 C 11,3 km/h (2 Bft) 100,00 %
16.12.2017 15:15 2,8 C 3,9 C 90 % 1009,4 hPa 0,0 l/m 4,8 km/h (1 Bft) W 270 0 min 0,000 mm 0,0 UV-I 26 W/m 1,3 C 2,8 C 9,7 km/h (2 Bft) 100,00 %
16.12.2017 15:16 2,8 C 3,9 C 91 % 1009,4 hPa 0,0 l/m 8,0 km/h (2 Bft) W-SW 247 0 min 0,000 mm 0,0 UV-I 28 W/m 1,5 C 1,3 C 12,9 km/h (3 Bft) 100,00 %
16.12.2017 15:17 2,8 C 3,9 C 91 % 1009,5 hPa 0,0 l/m 6,4 km/h (2 Bft) W 270 0 min 0,000 mm 0,0 UV-I 30 W/m 1,5 C 2,8 C 8,0 km/h (2 Bft) 100,00 %
16.12.2017 15:18 2,7 C 3,9 C 91 % 1009,5 hPa 0,0 l/m 6,4 km/h (2 Bft) W-SW 247 0 min 0,000 mm 0,0 UV-I 28 W/m 1,4 C 2,7 C 11,3 km/h (2 Bft) 95,65 %
16.12.2017 15:19 2,7 C 3,9 C 90 % 1009,5 hPa 0,0 l/m 9,7 km/h (2 Bft) W-SW 247 0 min 0,000 mm 0,0 UV-I 26 W/m 1,2 C -0,2 C 14,5 km/h (3 Bft) 100,00 %
16.12.2017 15:20 2,8 C 3,9 C 90 % 1009,5 hPa 0,0 l/m 8,0 km/h (2 Bft) W 270 0 min 0,000 mm 0,0 UV-I 26 W/m 1,3 C 1,3 C 9,7 km/h (2 Bft) 100,00 %
16.12.2017 15:21 2,8 C 3,9 C 90 % 1009,6 hPa 0,0 l/m 8,0 km/h (2 Bft) W-SW 247 0 min 0,000 mm 0,0 UV-I 26 W/m 1,3 C 1,3 C 11,3 km/h (2 Bft) 91,30 %
16.12.2017 15:22 2,8 C 3,9 C 90 % 1009,6 hPa 0,0 l/m 4,8 km/h (1 Bft) W-SW 247 0 min 0,000 mm 0,0 UV-I 29 W/m 1,3 C 2,8 C 6,4 km/h (2 Bft) 100,00 %
16.12.2017 15:23 2,8 C 3,9 C 90 % 1009,6 hPa 0,0 l/m 8,0 km/h (2 Bft) W-SW 247 0 min 0,000 mm 0,0 UV-I 30 W/m 1,3 C 1,3 C 11,3 km/h (2 Bft) 95,65 %
16.12.2017 15:24 2,8 C 3,9 C 90 % 1009,6 hPa 0,0 l/m 4,8 km/h (1 Bft) SW 225 0 min 0,000 mm 0,0 UV-I 30 W/m 1,3 C 2,8 C 6,4 km/h (2 Bft) 100,00 %
16.12.2017 15:25 2,8 C 3,9 C 90 % 1009,6 hPa 0,0 l/m 4,8 km/h (1 Bft) W 270 0 min 0,000 mm 0,0 UV-I 30 W/m 1,3 C 2,8 C 6,4 km/h (2 Bft) 91,30 %
16.12.2017 15:26 2,8 C 3,9 C 90 % 1009,6 hPa 0,0 l/m 6,4 km/h (2 Bft) W-SW 247 0 min 0,000 mm 0,0 UV-I 30 W/m 1,3 C 2,8 C 9,7 km/h (2 Bft) 100,00 %
16.12.2017 15:27 2,8 C 3,9 C 90 % 1009,6 hPa 0,0 l/m 4,8 km/h (1 Bft) SW 225 0 min 0,000 mm 0,0 UV-I 30 W/m 1,3 C 2,8 C 8,0 km/h (2 Bft) 95,65 %
16.12.2017 15:28 2,7 C 3,9 C 90 % 1009,6 hPa 0,0 l/m 4,8 km/h (1 Bft) SW 225 0 min 0,000 mm 0,0 UV-I 29 W/m 1,2 C 2,7 C 6,4 km/h (2 Bft) 100,00 %
16.12.2017 15:29 2,7 C 3,9 C 90 % 1009,7 hPa 0,0 l/m 4,8 km/h (1 Bft) SW 225 0 min 0,000 mm 0,0 UV-I 25 W/m 1,2 C 2,7 C 6,4 km/h (2 Bft) 95,65 %
16.12.2017 15:30 2,7 C 3,9 C 90 % 1009,8 hPa 0,0 l/m 4,8 km/h (1 Bft) SW 225 0 min 0,000 mm 0,0 UV-I 25 W/m 1,2 C 2,7 C 8,0 km/h (2 Bft) 100,00 %
16.12.2017 15:31 2,7 C 3,9 C 91 % 1009,8 hPa 0,0 l/m 4,8 km/h (1 Bft) SW 225 0 min 0,000 mm 0,0 UV-I 23 W/m 1,4 C 2,7 C 8,0 km/h (2 Bft) 95,65 %
16.12.2017 15:32 2,7 C 3,9 C 91 % 1009,8 hPa 0,0 l/m 6,4 km/h (2 Bft) W-SW 247 0 min 0,000 mm 0,0 UV-I 19 W/m 1,4 C 2,7 C 11,3 km/h (2 Bft) 91,30 %
16.12.2017 15:33 2,7 C 3,9 C 91 % 1009,8 hPa 0,0 l/m 6,4 km/h (2 Bft) W-SW 247 0 min 0,000 mm 0,0 UV-I 16 W/m 1,4 C 2,7 C 8,0 km/h (2 Bft) 95,65 %
16.12.2017 15:34 2,6 C 3,9 C 91 % 1009,9 hPa 0,0 l/m 8,0 km/h (2 Bft) SW 225 0 min 0,000 mm 0,0 UV-I 17 W/m 1,3 C 1,1 C 9,7 km/h (2 Bft) 95,65 %
16.12.2017 15:35 2,6 C 3,9 C 91 % 1009,9 hPa 0,0 l/m 8,0 km/h (2 Bft) W-SW 247 0 min 0,000 mm 0,0 UV-I 18 W/m 1,3 C 1,1 C 9,7 km/h (2 Bft) 100,00 %
16.12.2017 15:36 2,6 C 3,9 C 91 % 1009,8 hPa 0,0 l/m 6,4 km/h (2 Bft) SW 225 0 min 0,000 mm 0,0 UV-I 16 W/m 1,3 C 2,6 C 8,0 km/h (2 Bft) 95,65 %
16.12.2017 15:37 2,6 C 3,9 C 91 % 1009,8 hPa 0,0 l/m 8,0 km/h (2 Bft) SW 225 0 min 0,000 mm 0,0 UV-I 16 W/m 1,3 C 1,1 C 9,7 km/h (2 Bft) 100,00 %
16.12.2017 15:38 2,6 C 3,9 C 91 % 1009,9 hPa 0,0 l/m 6,4 km/h (2 Bft) S-SW 202 0 min 0,000 mm 0,0 UV-I 16 W/m 1,3 C 2,6 C 8,0 km/h (2 Bft) 91,30 %
16.12.2017 15:39 2,6 C 3,9 C 91 % 1009,9 hPa 0,0 l/m 6,4 km/h (2 Bft) W-SW 247 0 min 0,000 mm 0,0 UV-I 15 W/m 1,3 C 2,6 C 9,7 km/h (2 Bft) 95,65 %
16.12.2017 15:40 2,6 C 3,9 C 91 % 1009,9 hPa 0,0 l/m 6,4 km/h (2 Bft) W-SW 247 0 min 0,000 mm 0,0 UV-I 12 W/m 1,3 C 2,6 C 9,7 km/h (2 Bft) 95,65 %
16.12.2017 15:41 2,6 C 3,9 C 91 % 1009,9 hPa 0,0 l/m 6,4 km/h (2 Bft) W-SW 247 0 min 0,000 mm 0,0 UV-I 11 W/m 1,3 C 2,6 C 8,0 km/h (2 Bft) 100,00 %
16.12.2017 15:42 2,6 C 3,9 C 92 % 1009,9 hPa 0,0 l/m 4,8 km/h (1 Bft) W-SW 247 0 min 0,000 mm 0,0 UV-I 11 W/m 1,4 C 2,6 C 6,4 km/h (2 Bft) 95,65 %
16.12.2017 15:43 2,6 C 3,9 C 92 % 1009,9 hPa 0,0 l/m 6,4 km/h (2 Bft) SW 225 0 min 0,000 mm 0,0 UV-I 11 W/m 1,4 C 2,6 C 8,0 km/h (2 Bft) 100,00 %
16.12.2017 15:44 2,6 C 3,9 C 91 % 1009,9 hPa 0,0 l/m 6,4 km/h (2 Bft) SW 225 0 min 0,000 mm 0,0 UV-I 12 W/m 1,3 C 2,6 C 8,0 km/h (2 Bft) 95,65 %
16.12.2017 15:45 2,6 C 3,9 C 92 % 1009,9 hPa 0,0 l/m 4,8 km/h (1 Bft) SW 225 0 min 0,000 mm 0,0 UV-I 12 W/m 1,4 C 2,6 C 11,3 km/h (2 Bft) 100,00 %
16.12.2017 15:46 2,6 C 3,9 C 92 % 1009,9 hPa 0,0 l/m 8,0 km/h (2 Bft) W-SW 247 0 min 0,000 mm 0,0 UV-I 12 W/m 1,4 C 1,1 C 12,9 km/h (3 Bft) 95,65 %
16.12.2017 15:47 2,6 C 3,9 C 92 % 1009,9 hPa 0,0 l/m 8,0 km/h (2 Bft) SW 225 0 min 0,000 mm 0,0 UV-I 12 W/m 1,4 C 1,1 C 11,3 km/h (2 Bft) 100,00 %
16.12.2017 15:48 2,6 C 3,9 C 92 % 1009,9 hPa 0,0 l/m 4,8 km/h (1 Bft) S-SW 202 0 min 0,000 mm 0,0 UV-I 12 W/m 1,4 C 2,6 C 6,4 km/h (2 Bft) 100,00 %
16.12.2017 15:49 2,6 C 3,9 C 92 % 1009,9 hPa 0,0 l/m 6,4 km/h (2 Bft) S-SW 202 0 min 0,000 mm 0,0 UV-I 12 W/m 1,4 C 2,6 C 9,7 km/h (2 Bft) 100,00 %
16.12.2017 15:50 2,6 C 3,9 C 92 % 1009,9 hPa 0,0 l/m 4,8 km/h (1 Bft) S-SW 202 0 min 0,000 mm 0,0 UV-I 14 W/m 1,4 C 2,6 C 8,0 km/h (2 Bft) 100,00 %
16.12.2017 15:51 2,5 C 3,9 C 92 % 1009,9 hPa 0,0 l/m 6,4 km/h (2 Bft) S-SW 202 0 min 0,000 mm 0,0 UV-I 13 W/m 1,3 C 2,5 C 9,7 km/h (2 Bft) 100,00 %
16.12.2017 15:52 2,5 C 3,9 C 92 % 1009,9 hPa 0,0 l/m 4,8 km/h (1 Bft) S-SW 202 0 min 0,000 mm 0,0 UV-I 11 W/m 1,3 C 2,5 C 9,7 km/h (2 Bft) 100,00 %
16.12.2017 15:53 2,5 C 3,9 C 92 % 1009,9 hPa 0,0 l/m 6,4 km/h (2 Bft) SW 225 0 min 0,000 mm 0,0 UV-I 11 W/m 1,3 C 2,5 C 9,7 km/h (2 Bft) 95,65 %
16.12.2017 15:54 2,4 C 3,9 C 92 % 1009,9 hPa 0,0 l/m 6,4 km/h (2 Bft) W-SW 247 0 min 0,000 mm 0,0 UV-I 11 W/m 1,2 C 2,4 C 9,7 km/h (2 Bft) 100,00 %
16.12.2017 15:55 2,4 C 3,9 C 92 % 1009,9 hPa 0,0 l/m 4,8 km/h (1 Bft) SW 225 0 min 0,000 mm 0,0 UV-I 9 W/m 1,2 C 2,4 C 6,4 km/h (2 Bft) 100,00 %
16.12.2017 15:56 2,5 C 3,9 C 92 % 1009,9 hPa 0,0 l/m 4,8 km/h (1 Bft) SW 225 0 min 0,000 mm 0,0 UV-I 9 W/m 1,3 C 2,5 C 6,4 km/h (2 Bft) 100,00 %
16.12.2017 15:57 2,5 C 3,9 C 92 % 1010,0 hPa 0,0 l/m 6,4 km/h (2 Bft) SW 225 0 min 0,000 mm 0,0 UV-I 9 W/m 1,3 C 2,5 C 9,7 km/h (2 Bft) 100,00 %
16.12.2017 15:58 2,5 C 3,9 C 92 % 1010,0 hPa 0,0 l/m 8,0 km/h (2 Bft) W-SW 247 1 min 0,000 mm 0,0 UV-I 9 W/m 1,3 C 1,0 C 11,3 km/h (2 Bft) 100,00 %
16.12.2017 15:59 2,5 C 3,9 C 92 % 1010,0 hPa 0,0 l/m 6,4 km/h (2 Bft) W-SW 247 0 min 0,000 mm 0,0 UV-I 7 W/m 1,3 C 2,5 C 8,0 km/h (2 Bft) 91,30 %
16.12.2017 16:00 2,5 C 3,9 C 92 % 1010,1 hPa 0,0 l/m 6,4 km/h (2 Bft) W-SW 247 0 min 0,025 mm 0,0 UV-I 7 W/m 1,3 C 2,5 C 8,0 km/h (2 Bft) 95,65 %
16.12.2017 16:01 2,4 C 3,9 C 92 % 1010,1 hPa 0,0 l/m 6,4 km/h (2 Bft) SW 225 0 min 0,000 mm 0,0 UV-I 7 W/m 1,2 C 2,4 C 9,7 km/h (2 Bft) 100,00 %
16.12.2017 16:02 2,5 C 3,9 C 92 % 1010,1 hPa 0,0 l/m 6,4 km/h (2 Bft) SW 225 0 min 0,000 mm 0,0 UV-I 7 W/m 1,3 C 2,5 C 9,7 km/h (2 Bft) 100,00 %
16.12.2017 16:03 2,4 C 3,9 C 93 % 1010,1 hPa 0,0 l/m 6,4 km/h (2 Bft) SW 225 0 min 0,000 mm 0,0 UV-I 7 W/m 1,4 C 2,4 C 8,0 km/h (2 Bft) 95,65 %
16.12.2017 16:04 2,4 C 3,9 C 93 % 1010,1 hPa 0,0 l/m 4,8 km/h (1 Bft) W-SW 247 0 min 0,000 mm 0,0 UV-I 7 W/m 1,4 C 2,4 C 6,4 km/h (2 Bft) 95,65 %
16.12.2017 16:05 2,4 C 3,9 C 92 % 1010,1 hPa 0,0 l/m 4,8 km/h (1 Bft) W-SW 247 0 min 0,000 mm 0,0 UV-I 7 W/m 1,2 C 2,4 C 6,4 km/h (2 Bft) 100,00 %
16.12.2017 16:06 2,4 C 3,9 C 93 % 1010,1 hPa 0,0 l/m 6,4 km/h (2 Bft) SW 225 0 min 0,000 mm 0,0 UV-I 7 W/m 1,4 C 2,4 C 9,7 km/h (2 Bft) 100,00 %
16.12.2017 16:07 2,4 C 3,9 C 93 % 1010,1 hPa 0,0 l/m 8,0 km/h (2 Bft) SW 225 0 min 0,000 mm 0,0 UV-I 7 W/m 1,4 C 0,9 C 12,9 km/h (3 Bft) 95,65 %
16.12.2017 16:08 2,3 C 3,9 C 93 % 1010,2 hPa 0,0 l/m 8,0 km/h (2 Bft) SW 225 0 min 0,000 mm 0,0 UV-I 7 W/m 1,3 C 0,8 C 9,7 km/h (2 Bft) 100,00 %
16.12.2017 16:09 2,3 C 3,9 C 93 % 1010,2 hPa 0,0 l/m 6,4 km/h (2 Bft) SW 225 0 min 0,000 mm 0,0 UV-I 7 W/m 1,3 C 2,3 C 9,7 km/h (2 Bft) 100,00 %
16.12.2017 16:10 2,3 C 3,9 C 93 % 1010,2 hPa 0,0 l/m 6,4 km/h (2 Bft) W-SW 247 0 min 0,000 mm 0,0 UV-I 7 W/m 1,3 C 2,3 C 9,7 km/h (2 Bft) 100,00 %
16.12.2017 16:11 2,3 C 3,9 C 93 % 1010,2 hPa 0,0 l/m 6,4 km/h (2 Bft) W-SW 247 0 min 0,000 mm 0,0 UV-I 5 W/m 1,3 C 2,3 C 11,3 km/h (2 Bft) 100,00 %
16.12.2017 16:12 2,3 C 3,9 C 93 % 1010,2 hPa 0,0 l/m 6,4 km/h (2 Bft) SW 225 0 min 0,000 mm 0,0 UV-I 5 W/m 1,3 C 2,3 C 9,7 km/h (2 Bft) 100,00 %
16.12.2017 16:13 2,3 C 3,9 C 93 % 1010,3 hPa 0,0 l/m 6,4 km/h (2 Bft) SW 225 0 min 0,000 mm 0,0 UV-I 5 W/m 1,3 C 2,3 C 9,7 km/h (2 Bft) 100,00 %
16.12.2017 16:14 2,2 C 3,9 C 93 % 1010,3 hPa 0,0 l/m 6,4 km/h (2 Bft) SW 225 0 min 0,000 mm 0,0 UV-I 5 W/m 1,2 C 2,2 C 9,7 km/h (2 Bft) 95,65 %
16.12.2017 16:15 2,2 C 3,9 C 93 % 1010,3 hPa 0,0 l/m 4,8 km/h (1 Bft) SW 225 0 min 0,000 mm 0,0 UV-I 5 W/m 1,2 C 2,2 C 6,4 km/h (2 Bft) 100,00 %
16.12.2017 16:16 2,2 C 3,9 C 93 % 1010,3 hPa 0,0 l/m 4,8 km/h (1 Bft) SW 225 0 min 0,000 mm 0,0 UV-I 5 W/m 1,2 C 2,2 C 8,0 km/h (2 Bft) 95,65 %
16.12.2017 16:17 2,2 C 3,9 C 93 % 1010,3 hPa 0,0 l/m 6,4 km/h (2 Bft) SW 225 0 min 0,000 mm 0,0 UV-I 5 W/m 1,2 C 2,2 C 12,9 km/h (3 Bft) 100,00 %
16.12.2017 16:18 2,2 C 3,9 C 93 % 1010,3 hPa 0,0 l/m 6,4 km/h (2 Bft) W-SW 247 0 min 0,000 mm 0,0 UV-I 5 W/m 1,2 C 2,2 C 9,7 km/h (2 Bft) 100,00 %
16.12.2017 16:19 2,2 C 3,9 C 93 % 1010,3 hPa 0,0 l/m 4,8 km/h (1 Bft) W-SW 247 0 min 0,000 mm 0,0 UV-I 5 W/m 1,2 C 2,2 C 8,0 km/h (2 Bft) 100,00 %
16.12.2017 16:20 2,2 C 3,9 C 93 % 1010,3 hPa 0,0 l/m 6,4 km/h (2 Bft) W-SW 247 0 min 0,000 mm 0,0 UV-I 0 W/m 1,2 C 2,2 C 8,0 km/h (2 Bft) 100,00 %
16.12.2017 16:21 2,2 C 3,9 C 93 % 1010,3 hPa 0,0 l/m 6,4 km/h (2 Bft) SW 225 0 min 0,000 mm 0,0 UV-I 0 W/m 1,2 C 2,2 C 8,0 km/h (2 Bft) 95,65 %
16.12.2017 16:22 2,2 C 3,9 C 93 % 1010,4 hPa 0,0 l/m 6,4 km/h (2 Bft) S-SW 202 0 min 0,000 mm 0,0 UV-I 0 W/m 1,2 C 2,2 C 11,3 km/h (2 Bft) 100,00 %
16.12.2017 16:23 2,2 C 3,9 C 93 % 1010,4 hPa 0,0 l/m 6,4 km/h (2 Bft) S-SW 202 0 min 0,000 mm 0,0 UV-I 0 W/m 1,2 C 2,2 C 8,0 km/h (2 Bft) 100,00 %
16.12.2017 16:24 2,2 C 3,9 C 93 % 1010,4 hPa 0,0 l/m 9,7 km/h (2 Bft) S-SW 202 0 min 0,000 mm 0,0 UV-I 0 W/m 1,2 C -0,8 C 14,5 km/h (3 Bft) 100,00 %
16.12.2017 16:25 2,1 C 3,9 C 93 % 1010,4 hPa 0,0 l/m 9,7 km/h (2 Bft) SW 225 0 min 0,000 mm 0,0 UV-I 0 W/m 1,1 C -0,9 C 12,9 km/h (3 Bft) 100,00 %
16.12.2017 16:26 2,2 C 3,9 C 93 % 1010,4 hPa 0,0 l/m 9,7 km/h (2 Bft) S-SW 202 0 min 0,000 mm 0,0 UV-I 0 W/m 1,2 C -0,8 C 14,5 km/h (3 Bft) 100,00 %
16.12.2017 16:27 2,2 C 3,9 C 93 % 1010,4 hPa 0,0 l/m 9,7 km/h (2 Bft) S-SW 202 0 min 0,000 mm 0,0 UV-I 0 W/m 1,2 C -0,8 C 11,3 km/h (2 Bft) 100,00 %
16.12.2017 16:28 2,1 C 3,9 C 93 % 1010,4 hPa 0,0 l/m 9,7 km/h (2 Bft) S-SW 202 0 min 0,000 mm 0,0 UV-I 0 W/m 1,1 C -0,9 C 12,9 km/h (3 Bft) 95,65 %
16.12.2017 16:29 2,1 C 3,9 C 93 % 1010,5 hPa 0,0 l/m 8,0 km/h (2 Bft) SW 225 0 min 0,000 mm 0,0 UV-I 0 W/m 1,1 C 0,6 C 9,7 km/h (2 Bft) 95,65 %
16.12.2017 16:30 2,1 C 3,9 C 93 % 1010,5 hPa 0,0 l/m 6,4 km/h (2 Bft) SW 225 0 min 0,000 mm 0,0 UV-I 0 W/m 1,1 C 2,1 C 8,0 km/h (2 Bft) 95,65 %
16.12.2017 16:31 2,1 C 3,9 C 93 % 1010,5 hPa 0,0 l/m 4,8 km/h (1 Bft) S 180 0 min 0,000 mm 0,0 UV-I 0 W/m 1,1 C 2,1 C 4,8 km/h (1 Bft) 95,65 %
16.12.2017 16:32 2,1 C 3,9 C 93 % 1010,5 hPa 0,0 l/m 4,8 km/h (1 Bft) S-SW 202 0 min 0,000 mm 0,0 UV-I 0 W/m 1,1 C 2,1 C 8,0 km/h (2 Bft) 100,00 %
16.12.2017 16:33 2,1 C 3,9 C 93 % 1010,5 hPa 0,0 l/m 6,4 km/h (2 Bft) S-SW 202 0 min 0,000 mm 0,0 UV-I 0 W/m 1,1 C 2,1 C 8,0 km/h (2 Bft) 100,00 %
16.12.2017 16:34 2,1 C 3,9 C 93 % 1010,5 hPa 0,0 l/m 6,4 km/h (2 Bft) S-SW 202 0 min 0,000 mm 0,0 UV-I 0 W/m 1,1 C 2,1 C 9,7 km/h (2 Bft) 95,65 %
16.12.2017 16:35 2,1 C 3,9 C 93 % 1010,5 hPa 0,0 l/m 4,8 km/h (1 Bft) W-SW 247 0 min 0,000 mm 0,0 UV-I 0 W/m 1,1 C 2,1 C 8,0 km/h (2 Bft) 91,30 %
16.12.2017 16:36 2,1 C 3,9 C 93 % 1010,6 hPa 0,0 l/m 6,4 km/h (2 Bft) S-SW 202 0 min 0,000 mm 0,0 UV-I 0 W/m 1,1 C 2,1 C 9,7 km/h (2 Bft) 100,00 %
16.12.2017 16:37 2,1 C 3,9 C 93 % 1010,6 hPa 0,0 l/m 4,8 km/h (1 Bft) SW 225 0 min 0,000 mm 0,0 UV-I 0 W/m 1,1 C 2,1 C 8,0 km/h (2 Bft) 95,65 %
16.12.2017 16:38 2,1 C 3,9 C 93 % 1010,6 hPa 0,0 l/m 6,4 km/h (2 Bft) S-SW 202 0 min 0,000 mm 0,0 UV-I 0 W/m 1,1 C 2,1 C 9,7 km/h (2 Bft) 95,65 %
16.12.2017 16:39 2,1 C 3,9 C 93 % 1010,6 hPa 0,0 l/m 4,8 km/h (1 Bft) SW 225 0 min 0,000 mm 0,0 UV-I 0 W/m 1,1 C 2,1 C 6,4 km/h (2 Bft) 95,65 %
16.12.2017 16:40 2,1 C 3,9 C 94 % 1010,6 hPa 0,0 l/m 6,4 km/h (2 Bft) SW 225 0 min 0,000 mm 0,0 UV-I 0 W/m 1,2 C 2,1 C 6,4 km/h (2 Bft) 100,00 %
16.12.2017 16:41 2,0 C 3,9 C 94 % 1010,6 hPa 0,0 l/m 4,8 km/h (1 Bft) SW 225 0 min 0,000 mm 0,0 UV-I 0 W/m 1,1 C 2,0 C 8,0 km/h (2 Bft) 91,30 %
16.12.2017 16:42 2,1 C 3,9 C 94 % 1010,6 hPa 0,0 l/m 6,4 km/h (2 Bft) SW 225 0 min 0,000 mm 0,0 UV-I 0 W/m 1,2 C 2,1 C 8,0 km/h (2 Bft) 91,30 %
16.12.2017 16:43 2,1 C 3,9 C 94 % 1010,7 hPa 0,0 l/m 8,0 km/h (2 Bft) S-SW 202 0 min 0,000 mm 0,0 UV-I 0 W/m 1,2 C 0,6 C 8,0 km/h (2 Bft) 78,26 %
16.12.2017 16:44 2,1 C 3,9 C 94 % 1010,7 hPa 0,0 l/m 6,4 km/h (2 Bft) W-SW 247 0 min 0,000 mm 0,0 UV-I 0 W/m 1,2 C 2,1 C 9,7 km/h (2 Bft) 100,00 %
16.12.2017 16:45 2,1 C 3,9 C 94 % 1010,7 hPa 0,0 l/m 6,4 km/h (2 Bft) S-SW 202 0 min 0,000 mm 0,0 UV-I 0 W/m 1,2 C 2,1 C 8,0 km/h (2 Bft) 95,65 %
16.12.2017 16:46 2,1 C 3,9 C 94 % 1010,7 hPa 0,0 l/m 6,4 km/h (2 Bft) SW 225 0 min 0,000 mm 0,0 UV-I 0 W/m 1,2 C 2,1 C 8,0 km/h (2 Bft) 95,65 %
16.12.2017 16:47 2,1 C 3,9 C 94 % 1010,7 hPa 0,0 l/m 6,4 km/h (2 Bft) S-SW 202 0 min 0,000 mm 0,0 UV-I 0 W/m 1,2 C 2,1 C 8,0 km/h (2 Bft) 91,30 %
16.12.2017 16:48 2,0 C 3,9 C 94 % 1010,7 hPa 0,0 l/m 4,8 km/h (1 Bft) W-SW 247 0 min 0,000 mm 0,0 UV-I 0 W/m 1,1 C 2,0 C 6,4 km/h (2 Bft) 86,96 %
16.12.2017 16:49 2,1 C 3,9 C 94 % 1010,7 hPa 0,0 l/m 4,8 km/h (1 Bft) S-SW 202 0 min 0,000 mm 0,0 UV-I 0 W/m 1,2 C 2,1 C 8,0 km/h (2 Bft) 91,30 %
16.12.2017 16:50 2,1 C 3,9 C 94 % 1010,6 hPa 0,0 l/m 6,4 km/h (2 Bft) S-SW 202 0 min 0,000 mm 0,0 UV-I 0 W/m 1,2 C 2,1 C 9,7 km/h (2 Bft) 82,61 %
16.12.2017 16:51 2,1 C 3,9 C 94 % 1010,6 hPa 0,0 l/m 4,8 km/h (1 Bft) SW 225 0 min 0,000 mm 0,0 UV-I 0 W/m 1,2 C 2,1 C 8,0 km/h (2 Bft) 100,00 %
16.12.2017 16:52 2,1 C 3,9 C 94 % 1010,7 hPa 0,0 l/m 4,8 km/h (1 Bft) SW 225 0 min 0,000 mm 0,0 UV-I 0 W/m 1,2 C 2,1 C 6,4 km/h (2 Bft) 86,96 %
16.12.2017 16:53 2,1 C 3,9 C 94 % 1010,7 hPa 0,0 l/m 4,8 km/h (1 Bft) S-SW 202 0 min 0,000 mm 0,0 UV-I 0 W/m 1,2 C 2,1 C 8,0 km/h (2 Bft) 95,65 %
16.12.2017 16:54 2,1 C 3,9 C 94 % 1010,7 hPa 0,0 l/m 8,0 km/h (2 Bft) S-SW 202 0 min 0,000 mm 0,0 UV-I 0 W/m 1,2 C 0,6 C 11,3 km/h (2 Bft) 91,30 %
16.12.2017 16:55 2,1 C 3,9 C 94 % 1010,7 hPa 0,0 l/m 8,0 km/h (2 Bft) S-SW 202 0 min 0,000 mm 0,0 UV-I 0 W/m 1,2 C 0,6 C 11,3 km/h (2 Bft) 95,65 %
16.12.2017 16:56 2,1 C 3,9 C 94 % 1010,7 hPa 0,0 l/m 8,0 km/h (2 Bft) SW 225 0 min 0,000 mm 0,0 UV-I 0 W/m 1,2 C 0,6 C 11,3 km/h (2 Bft) 91,30 %
16.12.2017 16:57 2,1 C 3,9 C 94 % 1010,7 hPa 0,0 l/m 6,4 km/h (2 Bft) SW 225 0 min 0,000 mm 0,0 UV-I 0 W/m 1,2 C 2,1 C 9,7 km/h (2 Bft) 91,30 %
16.12.2017 16:58 2,1 C 3,9 C 94 % 1010,7 hPa 0,0 l/m 8,0 km/h (2 Bft) S-SW 202 0 min 0,000 mm 0,0 UV-I 0 W/m 1,2 C 0,6 C 9,7 km/h (2 Bft) 100,00 %
16.12.2017 16:59 2,1 C 3,9 C 94 % 1010,7 hPa 0,0 l/m 8,0 km/h (2 Bft) S-SW 202 0 min 0,000 mm 0,0 UV-I 0 W/m 1,2 C 0,6 C 9,7 km/h (2 Bft) 86,96 %
16.12.2017 17:00 2,1 C 3,9 C 94 % 1010,7 hPa 0,0 l/m 6,4 km/h (2 Bft) S-SW 202 0 min 0,000 mm 0,0 UV-I 0 W/m 1,2 C 2,1 C 9,7 km/h (2 Bft) 91,30 %
16.12.2017 17:01 2,1 C 3,9 C 94 % 1010,8 hPa 0,0 l/m 6,4 km/h (2 Bft) SW 225 0 min 0,000 mm 0,0 UV-I 0 W/m 1,2 C 2,1 C 8,0 km/h (2 Bft) 95,65 %
16.12.2017 17:02 2,1 C 3,9 C 94 % 1010,8 hPa 0,0 l/m 6,4 km/h (2 Bft) S-SW 202 0 min 0,000 mm 0,0 UV-I 0 W/m 1,2 C 2,1 C 8,0 km/h (2 Bft) 100,00 %
16.12.2017 17:03 2,1 C 3,9 C 94 % 1010,8 hPa 0,0 l/m 4,8 km/h (1 Bft) SW 225 0 min 0,000 mm 0,0 UV-I 0 W/m 1,2 C 2,1 C 8,0 km/h (2 Bft) 86,96 %
16.12.2017 17:04 2,1 C 3,9 C 94 % 1010,8 hPa 0,0 l/m 4,8 km/h (1 Bft) S-SW 202 0 min 0,000 mm 0,0 UV-I 0 W/m 1,2 C 2,1 C 6,4 km/h (2 Bft) 100,00 %
16.12.2017 17:05 2,1 C 3,9 C 94 % 1010,8 hPa 0,0 l/m 4,8 km/h (1 Bft) S-SW 202 0 min 0,000 mm 0,0 UV-I 0 W/m 1,2 C 2,1 C 6,4 km/h (2 Bft) 91,30 %
16.12.2017 17:06 2,1 C 3,9 C 94 % 1010,8 hPa 0,0 l/m 6,4 km/h (2 Bft) SW 225 0 min 0,000 mm 0,0 UV-I 0 W/m 1,2 C 2,1 C 11,3 km/h (2 Bft) 95,65 %
16.12.2017 17:07 2,1 C 3,9 C 94 % 1010,8 hPa 0,0 l/m 6,4 km/h (2 Bft) SW 225 0 min 0,000 mm 0,0 UV-I 0 W/m 1,2 C 2,1 C 9,7 km/h (2 Bft) 95,65 %
16.12.2017 17:08 2,1 C 3,9 C 94 % 1010,8 hPa 0,0 l/m 6,4 km/h (2 Bft) SW 225 0 min 0,000 mm 0,0 UV-I 0 W/m 1,2 C 2,1 C 9,7 km/h (2 Bft) 95,65 %
16.12.2017 17:09 2,1 C 3,9 C 94 % 1010,9 hPa 0,0 l/m 6,4 km/h (2 Bft) SW 225 0 min 0,000 mm 0,0 UV-I 0 W/m 1,2 C 2,1 C 12,9 km/h (3 Bft) 100,00 %
16.12.2017 17:10 2,1 C 3,9 C 94 % 1010,8 hPa 0,0 l/m 4,8 km/h (1 Bft) SW 225 0 min 0,000 mm 0,0 UV-I 0 W/m 1,2 C 2,1 C 8,0 km/h (2 Bft) 91,30 %
16.12.2017 17:11 2,1 C 3,9 C 94 % 1010,9 hPa 0,0 l/m 8,0 km/h (2 Bft) S-SW 202 0 min 0,000 mm 0,0 UV-I 0 W/m 1,2 C 0,6 C 11,3 km/h (2 Bft) 100,00 %
16.12.2017 17:12 2,1 C 3,9 C 94 % 1010,9 hPa 0,0 l/m 6,4 km/h (2 Bft) S-SW 202 0 min 0,000 mm 0,0 UV-I 0 W/m 1,2 C 2,1 C 9,7 km/h (2 Bft) 95,65 %
16.12.2017 17:13 2,1 C 3,9 C 94 % 1010,9 hPa 0,0 l/m 6,4 km/h (2 Bft) S-SW 202 0 min 0,000 mm 0,0 UV-I 0 W/m 1,2 C 2,1 C 8,0 km/h (2 Bft) 100,00 %
16.12.2017 17:14 2,1 C 3,9 C 94 % 1011,0 hPa 0,0 l/m 8,0 km/h (2 Bft) S-SW 202 0 min 0,000 mm 0,0 UV-I 0 W/m 1,2 C 0,6 C 12,9 km/h (3 Bft) 95,65 %
16.12.2017 17:15 2,1 C 3,9 C 94 % 1011,0 hPa 0,0 l/m 6,4 km/h (2 Bft) SW 225 0 min 0,000 mm 0,0 UV-I 0 W/m 1,2 C 2,1 C 9,7 km/h (2 Bft) 95,65 %
16.12.2017 17:16 2,1 C 3,9 C 94 % 1011,0 hPa 0,0 l/m 6,4 km/h (2 Bft) S-SW 202 0 min 0,000 mm 0,0 UV-I 0 W/m 1,2 C 2,1 C 9,7 km/h (2 Bft) 91,30 %
16.12.2017 17:17 2,1 C 3,9 C 94 % 1010,9 hPa 0,0 l/m 8,0 km/h (2 Bft) SW 225 0 min 0,000 mm 0,0 UV-I 0 W/m 1,2 C 0,6 C 11,3 km/h (2 Bft) 91,30 %
16.12.2017 17:18 2,1 C 3,9 C 94 % 1010,9 hPa 0,0 l/m 8,0 km/h (2 Bft) SW 225 0 min 0,000 mm 0,0 UV-I 0 W/m 1,2 C 0,6 C 11,3 km/h (2 Bft) 95,65 %
16.12.2017 17:19 2,1 C 3,9 C 94 % 1010,9 hPa 0,0 l/m 8,0 km/h (2 Bft) S-SW 202 0 min 0,000 mm 0,0 UV-I 0 W/m 1,2 C 0,6 C 12,9 km/h (3 Bft) 100,00 %
16.12.2017 17:20 2,1 C 3,9 C 94 % 1011,0 hPa 0,0 l/m 11,3 km/h (2 Bft) SW 225 0 min 0,000 mm 0,0 UV-I 0 W/m 1,2 C -2,1 C 16,1 km/h (3 Bft) 100,00 %
16.12.2017 17:21 2,1 C 3,9 C 94 % 1010,9 hPa 0,0 l/m 9,7 km/h (2 Bft) SW 225 0 min 0,000 mm 0,0 UV-I 0 W/m 1,2 C -0,9 C 12,9 km/h (3 Bft) 95,65 %
16.12.2017 17:22 2,1 C 3,9 C 94 % 1011,0 hPa 0,0 l/m 11,3 km/h (2 Bft) SW 225 0 min 0,000 mm 0,0 UV-I 0 W/m 1,2 C -2,1 C 16,1 km/h (3 Bft) 100,00 %
16.12.2017 17:23 2,1 C 3,9 C 94 % 1011,0 hPa 0,0 l/m 11,3 km/h (2 Bft) SW 225 0 min 0,000 mm 0,0 UV-I 0 W/m 1,2 C -2,1 C 16,1 km/h (3 Bft) 100,00 %
16.12.2017 17:24 2,1 C 3,9 C 94 % 1011,0 hPa 0,0 l/m 11,3 km/h (2 Bft) SW 225 0 min 0,000 mm 0,0 UV-I 0 W/m 1,2 C -2,1 C 14,5 km/h (3 Bft) 91,30 %
16.12.2017 17:25 2,1 C 3,9 C 94 % 1011,0 hPa 0,0 l/m 9,7 km/h (2 Bft) SW 225 0 min 0,000 mm 0,0 UV-I 0 W/m 1,2 C -0,9 C 12,9 km/h (3 Bft) 100,00 %
16.12.2017 17:26 2,1 C 3,9 C 94 % 1011,0 hPa 0,0 l/m 8,0 km/h (2 Bft) W-SW 247 0 min 0,000 mm 0,0 UV-I 0 W/m 1,2 C 0,6 C 14,5 km/h (3 Bft) 100,00 %
16.12.2017 17:27 2,1 C 3,9 C 94 % 1011,0 hPa 0,0 l/m 9,7 km/h (2 Bft) SW 225 0 min 0,000 mm 0,0 UV-I 0 W/m 1,2 C -0,9 C 14,5 km/h (3 Bft) 100,00 %
16.12.2017 17:28 2,1 C 3,9 C 94 % 1011,1 hPa 0,0 l/m 8,0 km/h (2 Bft) SW 225 0 min 0,000 mm 0,0 UV-I 0 W/m 1,2 C 0,6 C 9,7 km/h (2 Bft) 100,00 %
16.12.2017 17:29 2,1 C 3,9 C 94 % 1011,0 hPa 0,0 l/m 12,9 km/h (3 Bft) SW 225 0 min 0,000 mm 0,0 UV-I 0 W/m 1,2 C -3,2 C 17,7 km/h (3 Bft) 100,00 %
16.12.2017 17:30 2,1 C 3,9 C 94 % 1011,1 hPa 0,0 l/m 9,7 km/h (2 Bft) SW 225 0 min 0,000 mm 0,0 UV-I 0 W/m 1,2 C -0,9 C 14,5 km/h (3 Bft) 100,00 %
16.12.2017 17:31 2,1 C 3,9 C 94 % 1011,1 hPa 0,0 l/m 11,3 km/h (2 Bft) W-SW 247 0 min 0,000 mm 0,0 UV-I 0 W/m 1,2 C -2,1 C 16,1 km/h (3 Bft) 91,30 %
16.12.2017 17:32 2,1 C 3,9 C 94 % 1011,1 hPa 0,0 l/m 12,9 km/h (3 Bft) SW 225 0 min 0,000 mm 0,0 UV-I 0 W/m 1,2 C -3,2 C 17,7 km/h (3 Bft) 95,65 %
16.12.2017 17:33 2,0 C 3,9 C 94 % 1011,1 hPa 0,0 l/m 8,0 km/h (2 Bft) W-SW 247 0 min 0,000 mm 0,0 UV-I 0 W/m 1,1 C 0,5 C 11,3 km/h (2 Bft) 95,65 %
16.12.2017 17:34 2,0 C 3,9 C 94 % 1011,1 hPa 0,0 l/m 8,0 km/h (2 Bft) SW 225 0 min 0,000 mm 0,0 UV-I 0 W/m 1,1 C 0,5 C 9,7 km/h (2 Bft) 100,00 %
16.12.2017 17:35 2,0 C 3,9 C 94 % 1011,1 hPa 0,0 l/m 9,7 km/h (2 Bft) SW 225 0 min 0,000 mm 0,0 UV-I 0 W/m 1,1 C -1,0 C 16,1 km/h (3 Bft) 100,00 %
16.12.2017 17:36 2,0 C 3,9 C 94 % 1011,1 hPa 0,0 l/m 11,3 km/h (2 Bft) W-SW 247 0 min 0,000 mm 0,0 UV-I 0 W/m 1,1 C -2,2 C 14,5 km/h (3 Bft) 100,00 %
16.12.2017 17:37 2,0 C 3,9 C 94 % 1011,2 hPa 0,0 l/m 6,4 km/h (2 Bft) SW 225 0 min 0,000 mm 0,0 UV-I 0 W/m 1,1 C 2,0 C 9,7 km/h (2 Bft) 100,00 %
16.12.2017 17:38 2,0 C 3,9 C 94 % 1011,2 hPa 0,0 l/m 8,0 km/h (2 Bft) S-SW 202 0 min 0,000 mm 0,0 UV-I 0 W/m 1,1 C 0,5 C 14,5 km/h (3 Bft) 95,65 %
16.12.2017 17:39 2,0 C 3,9 C 94 % 1011,2 hPa 0,0 l/m 8,0 km/h (2 Bft) S-SW 202 0 min 0,000 mm 0,0 UV-I 0 W/m 1,1 C 0,5 C 11,3 km/h (2 Bft) 100,00 %
16.12.2017 17:40 2,0 C 3,9 C 94 % 1011,3 hPa 0,0 l/m 6,4 km/h (2 Bft) SW 225 0 min 0,000 mm 0,0 UV-I 0 W/m 1,1 C 2,0 C 8,0 km/h (2 Bft) 100,00 %
16.12.2017 17:41 2,0 C 3,9 C 94 % 1011,3 hPa 0,0 l/m 11,3 km/h (2 Bft) SW 225 0 min 0,000 mm 0,0 UV-I 0 W/m 1,1 C -2,2 C 17,7 km/h (3 Bft) 100,00 %
16.12.2017 17:42 2,0 C 3,9 C 94 % 1011,3 hPa 0,0 l/m 9,7 km/h (2 Bft) SW 225 0 min 0,000 mm 0,0 UV-I 0 W/m 1,1 C -1,0 C 14,5 km/h (3 Bft) 100,00 %
16.12.2017 17:43 1,9 C 3,9 C 94 % 1011,3 hPa 0,0 l/m 9,7 km/h (2 Bft) SW 225 0 min 0,000 mm 0,0 UV-I 0 W/m 1,0 C -1,1 C 14,5 km/h (3 Bft) 100,00 %
16.12.2017 17:44 1,9 C 3,9 C 94 % 1011,3 hPa 0,0 l/m 6,4 km/h (2 Bft) S-SW 202 0 min 0,000 mm 0,0 UV-I 0 W/m 1,0 C 1,9 C 9,7 km/h (2 Bft) 100,00 %
16.12.2017 17:45 1,9 C 3,9 C 94 % 1011,3 hPa 0,0 l/m 9,7 km/h (2 Bft) SW 225 0 min 0,000 mm 0,0 UV-I 0 W/m 1,0 C -1,1 C 12,9 km/h (3 Bft) 95,65 %
16.12.2017 17:46 1,9 C 3,9 C 94 % 1011,3 hPa 0,0 l/m 9,7 km/h (2 Bft) SW 225 0 min 0,000 mm 0,0 UV-I 0 W/m 1,0 C -1,1 C 16,1 km/h (3 Bft) 100,00 %
16.12.2017 17:47 1,9 C 3,9 C 94 % 1011,3 hPa 0,0 l/m 9,7 km/h (2 Bft) SW 225 0 min 0,000 mm 0,0 UV-I 0 W/m 1,0 C -1,1 C 14,5 km/h (3 Bft) 100,00 %
16.12.2017 17:48 1,9 C 3,9 C 94 % 1011,3 hPa 0,0 l/m 11,3 km/h (2 Bft) SW 225 0 min 0,000 mm 0,0 UV-I 0 W/m 1,0 C -2,3 C 16,1 km/h (3 Bft) 100,00 %
16.12.2017 17:49 1,9 C 3,9 C 94 % 1011,4 hPa 0,0 l/m 9,7 km/h (2 Bft) SW 225 0 min 0,000 mm 0,0 UV-I 0 W/m 1,0 C -1,1 C 14,5 km/h (3 Bft) 100,00 %
16.12.2017 17:50 1,9 C 3,9 C 94 % 1011,4 hPa 0,0 l/m 8,0 km/h (2 Bft) S-SW 202 0 min 0,000 mm 0,0 UV-I 0 W/m 1,0 C 0,3 C 12,9 km/h (3 Bft) 100,00 %
16.12.2017 17:51 1,9 C 3,9 C 94 % 1011,4 hPa 0,0 l/m 11,3 km/h (2 Bft) W-SW 247 0 min 0,000 mm 0,0 UV-I 0 W/m 1,0 C -2,3 C 17,7 km/h (3 Bft) 95,65 %
16.12.2017 17:52 1,9 C 3,9 C 94 % 1011,4 hPa 0,0 l/m 11,3 km/h (2 Bft) SW 225 0 min 0,000 mm 0,0 UV-I 0 W/m 1,0 C -2,3 C 16,1 km/h (3 Bft) 95,65 %
16.12.2017 17:53 1,9 C 3,9 C 94 % 1011,4 hPa 0,0 l/m 11,3 km/h (2 Bft) SW 225 0 min 0,000 mm 0,0 UV-I 0 W/m 1,0 C -2,3 C 14,5 km/h (3 Bft) 95,65 %
16.12.2017 17:54 1,9 C 3,9 C 94 % 1011,4 hPa 0,0 l/m 11,3 km/h (2 Bft) SW 225 0 min 0,000 mm 0,0 UV-I 0 W/m 1,0 C -2,3 C 16,1 km/h (3 Bft) 100,00 %
16.12.2017 17:55 1,9 C 3,9 C 94 % 1011,4 hPa 0,0 l/m 8,0 km/h (2 Bft) SW 225 0 min 0,000 mm 0,0 UV-I 0 W/m 1,0 C 0,3 C 12,9 km/h (3 Bft) 100,00 %
16.12.2017 17:56 1,9 C 3,9 C 94 % 1011,5 hPa 0,0 l/m 9,7 km/h (2 Bft) SW 225 0 min 0,000 mm 0,0 UV-I 0 W/m 1,0 C -1,1 C 16,1 km/h (3 Bft) 100,00 %
16.12.2017 17:57 1,9 C 3,9 C 94 % 1011,5 hPa 0,0 l/m 8,0 km/h (2 Bft) W-SW 247 0 min 0,000 mm 0,0 UV-I 0 W/m 1,0 C 0,3 C 14,5 km/h (3 Bft) 100,00 %
16.12.2017 17:58 1,9 C 3,9 C 94 % 1011,5 hPa 0,0 l/m 8,0 km/h (2 Bft) SW 225 0 min 0,000 mm 0,0 UV-I 0 W/m 1,0 C 0,3 C 14,5 km/h (3 Bft) 100,00 %
16.12.2017 17:59 1,9 C 3,9 C 94 % 1011,5 hPa 0,0 l/m 8,0 km/h (2 Bft) S-SW 202 0 min 0,000 mm 0,0 UV-I 0 W/m 1,0 C 0,3 C 12,9 km/h (3 Bft) 91,30 %
16.12.2017 18:00 1,9 C 3,9 C 94 % 1011,5 hPa 0,0 l/m 6,4 km/h (2 Bft) SW 225 0 min 0,000 mm 0,0 UV-I 0 W/m 1,0 C 1,9 C 11,3 km/h (2 Bft) 100,00 %
16.12.2017 18:01 1,9 C 3,9 C 94 % 1011,5 hPa 0,0 l/m 8,0 km/h (2 Bft) SW 225 0 min 0,000 mm 0,0 UV-I 0 W/m 1,0 C 0,3 C 12,9 km/h (3 Bft) 91,30 %
16.12.2017 18:02 1,9 C 3,9 C 94 % 1011,5 hPa 0,0 l/m 9,7 km/h (2 Bft) SW 225 0 min 0,000 mm 0,0 UV-I 0 W/m 1,0 C -1,1 C 14,5 km/h (3 Bft) 100,00 %
16.12.2017 18:03 1,9 C 3,9 C 94 % 1011,6 hPa 0,0 l/m 8,0 km/h (2 Bft) W-SW 247 0 min 0,000 mm 0,0 UV-I 0 W/m 1,0 C 0,3 C 11,3 km/h (2 Bft) 100,00 %
16.12.2017 18:04 1,9 C 3,9 C 94 % 1011,6 hPa 0,0 l/m 9,7 km/h (2 Bft) SW 225 0 min 0,000 mm 0,0 UV-I 0 W/m 1,0 C -1,1 C 14,5 km/h (3 Bft) 100,00 %
16.12.2017 18:05 1,9 C 3,9 C 94 % 1011,6 hPa 0,0 l/m 8,0 km/h (2 Bft) W-SW 247 0 min 0,000 mm 0,0 UV-I 0 W/m 1,0 C 0,3 C 14,5 km/h (3 Bft) 100,00 %
16.12.2017 18:06 1,9 C 3,9 C 94 % 1011,6 hPa 0,0 l/m 8,0 km/h (2 Bft) W-SW 247 0 min 0,000 mm 0,0 UV-I 0 W/m 1,0 C 0,3 C 11,3 km/h (2 Bft) 95,65 %
16.12.2017 18:07 1,9 C 3,9 C 94 % 1011,6 hPa 0,0 l/m 6,4 km/h (2 Bft) SW 225 0 min 0,000 mm 0,0 UV-I 0 W/m 1,0 C 1,9 C 9,7 km/h (2 Bft) 100,00 %
16.12.2017 18:08 1,9 C 3,9 C 94 % 1011,6 hPa 0,0 l/m 4,8 km/h (1 Bft) S-SW 202 0 min 0,000 mm 0,0 UV-I 0 W/m 1,0 C 1,9 C 11,3 km/h (2 Bft) 100,00 %
16.12.2017 18:09 1,9 C 3,9 C 94 % 1011,6 hPa 0,0 l/m 9,7 km/h (2 Bft) S-SW 202 0 min 0,000 mm 0,0 UV-I 0 W/m 1,0 C -1,1 C 14,5 km/h (3 Bft) 95,65 %
16.12.2017 18:10 1,9 C 3,9 C 94 % 1011,6 hPa 0,0 l/m 6,4 km/h (2 Bft) SW 225 0 min 0,000 mm 0,0 UV-I 0 W/m 1,0 C 1,9 C 11,3 km/h (2 Bft) 100,00 %
16.12.2017 18:11 1,9 C 3,9 C 94 % 1011,6 hPa 0,0 l/m 8,0 km/h (2 Bft) SW 225 0 min 0,000 mm 0,0 UV-I 0 W/m 1,0 C 0,3 C 9,7 km/h (2 Bft) 95,65 %
16.12.2017 18:12 1,8 C 3,9 C 94 % 1011,7 hPa 0,0 l/m 8,0 km/h (2 Bft) S-SW 202 0 min 0,000 mm 0,0 UV-I 0 W/m 0,9 C 0,2 C 12,9 km/h (3 Bft) 95,65 %
16.12.2017 18:13 1,8 C 3,9 C 94 % 1011,7 hPa 0,0 l/m 8,0 km/h (2 Bft) SW 225 0 min 0,000 mm 0,0 UV-I 0 W/m 0,9 C 0,2 C 12,9 km/h (3 Bft) 95,65 %
16.12.2017 18:14 1,9 C 3,9 C 94 % 1011,7 hPa 0,0 l/m 8,0 km/h (2 Bft) W-SW 247 0 min 0,000 mm 0,0 UV-I 0 W/m 1,0 C 0,3 C 11,3 km/h (2 Bft) 91,30 %
16.12.2017 18:15 1,8 C 3,9 C 94 % 1011,8 hPa 0,0 l/m 6,4 km/h (2 Bft) W-SW 247 0 min 0,000 mm 0,0 UV-I 0 W/m 0,9 C 1,8 C 11,3 km/h (2 Bft) 100,00 %
16.12.2017 18:16 1,9 C 3,9 C 94 % 1011,7 hPa 0,0 l/m 6,4 km/h (2 Bft) SW 225 0 min 0,000 mm 0,0 UV-I 0 W/m 1,0 C 1,9 C 9,7 km/h (2 Bft) 91,30 %
16.12.2017 18:17 1,8 C 3,9 C 94 % 1011,8 hPa 0,0 l/m 12,9 km/h (3 Bft) SW 225 0 min 0,000 mm 0,0 UV-I 0 W/m 0,9 C -3,5 C 19,3 km/h (3 Bft) 100,00 %
16.12.2017 18:18 1,8 C 3,9 C 94 % 1011,8 hPa 0,0 l/m 9,7 km/h (2 Bft) SW 225 0 min 0,000 mm 0,0 UV-I 0 W/m 0,9 C -1,2 C 12,9 km/h (3 Bft) 95,65 %
16.12.2017 18:19 1,9 C 3,9 C 94 % 1011,8 hPa 0,0 l/m 8,0 km/h (2 Bft) SW 225 0 min 0,000 mm 0,0 UV-I 0 W/m 1,0 C 0,3 C 11,3 km/h (2 Bft) 100,00 %
16.12.2017 18:20 1,9 C 3,9 C 94 % 1011,8 hPa 0,0 l/m 9,7 km/h (2 Bft) W-SW 247 0 min 0,000 mm 0,0 UV-I 0 W/m 1,0 C -1,1 C 12,9 km/h (3 Bft) 86,96 %
16.12.2017 18:21 1,9 C 3,9 C 94 % 1011,9 hPa 0,0 l/m 9,7 km/h (2 Bft) SW 225 0 min 0,000 mm 0,0 UV-I 0 W/m 1,0 C -1,1 C 14,5 km/h (3 Bft) 100,00 %
16.12.2017 18:22 1,9 C 3,9 C 94 % 1011,9 hPa 0,0 l/m 8,0 km/h (2 Bft) SW 225 0 min 0,000 mm 0,0 UV-I 0 W/m 1,0 C 0,3 C 12,9 km/h (3 Bft) 95,65 %
16.12.2017 18:23 1,9 C 3,9 C 94 % 1011,9 hPa 0,0 l/m 8,0 km/h (2 Bft) SW 225 0 min 0,000 mm 0,0 UV-I 0 W/m 1,0 C 0,3 C 11,3 km/h (2 Bft) 100,00 %
16.12.2017 18:24 1,9 C 3,9 C 94 % 1011,9 hPa 0,0 l/m 8,0 km/h (2 Bft) W-SW 247 0 min 0,000 mm 0,0 UV-I 0 W/m 1,0 C 0,3 C 11,3 km/h (2 Bft) 95,65 %
16.12.2017 18:25 1,9 C 3,9 C 94 % 1011,9 hPa 0,0 l/m 8,0 km/h (2 Bft) W-SW 247 0 min 0,000 mm 0,0 UV-I 0 W/m 1,0 C 0,3 C 11,3 km/h (2 Bft) 100,00 %
16.12.2017 18:26 1,9 C 3,9 C 94 % 1012,0 hPa 0,0 l/m 8,0 km/h (2 Bft) W-SW 247 0 min 0,000 mm 0,0 UV-I 0 W/m 1,0 C 0,3 C 11,3 km/h (2 Bft) 91,30 %
16.12.2017 18:27 1,9 C 3,9 C 94 % 1012,0 hPa 0,0 l/m 8,0 km/h (2 Bft) W-SW 247 0 min 0,000 mm 0,0 UV-I 0 W/m 1,0 C 0,3 C 12,9 km/h (3 Bft) 91,30 %
16.12.2017 18:28 1,9 C 3,9 C 94 % 1012,0 hPa 0,0 l/m 9,7 km/h (2 Bft) W-SW 247 0 min 0,000 mm 0,0 UV-I 0 W/m 1,0 C -1,1 C 12,9 km/h (3 Bft) 95,65 %
16.12.2017 18:29 1,9 C 3,9 C 94 % 1012,0 hPa 0,0 l/m 6,4 km/h (2 Bft) W-SW 247 0 min 0,000 mm 0,0 UV-I 0 W/m 1,0 C 1,9 C 11,3 km/h (2 Bft) 95,65 %
16.12.2017 18:30 1,9 C 3,9 C 94 % 1012,0 hPa 0,0 l/m 8,0 km/h (2 Bft) W-SW 247 0 min 0,000 mm 0,0 UV-I 0 W/m 1,0 C 0,3 C 11,3 km/h (2 Bft) 100,00 %
16.12.2017 18:31 1,9 C 3,9 C 94 % 1012,0 hPa 0,0 l/m 8,0 km/h (2 Bft) SW 225 0 min 0,000 mm 0,0 UV-I 0 W/m 1,0 C 0,3 C 8,0 km/h (2 Bft) 95,65 %
16.12.2017 18:32 1,9 C 3,9 C 94 % 1012,0 hPa 0,0 l/m 8,0 km/h (2 Bft) W-SW 247 0 min 0,000 mm 0,0 UV-I 0 W/m 1,0 C 0,3 C 11,3 km/h (2 Bft) 100,00 %
16.12.2017 18:33 1,9 C 3,9 C 94 % 1012,0 hPa 0,0 l/m 9,7 km/h (2 Bft) W-SW 247 0 min 0,000 mm 0,0 UV-I 0 W/m 1,0 C -1,1 C 12,9 km/h (3 Bft) 100,00 %
16.12.2017 18:34 1,9 C 3,9 C 94 % 1012,0 hPa 0,0 l/m 9,7 km/h (2 Bft) W-SW 247 0 min 0,000 mm 0,0 UV-I 0 W/m 1,0 C -1,1 C 14,5 km/h (3 Bft) 91,30 %
16.12.2017 18:35 1,9 C 3,9 C 94 % 1012,0 hPa 0,0 l/m 8,0 km/h (2 Bft) W-SW 247 0 min 0,000 mm 0,0 UV-I 0 W/m 1,0 C 0,3 C 12,9 km/h (3 Bft) 100,00 %
16.12.2017 18:36 1,9 C 3,9 C 94 % 1012,0 hPa 0,0 l/m 6,4 km/h (2 Bft) W 270 0 min 0,000 mm 0,0 UV-I 0 W/m 1,0 C 1,9 C 12,9 km/h (3 Bft) 100,00 %
16.12.2017 18:37 1,9 C 3,9 C 94 % 1012,0 hPa 0,0 l/m 9,7 km/h (2 Bft) W-SW 247 0 min 0,000 mm 0,0 UV-I 0 W/m 1,0 C -1,1 C 14,5 km/h (3 Bft) 95,65 %
16.12.2017 18:38 1,9 C 3,9 C 94 % 1012,0 hPa 0,0 l/m 12,9 km/h (3 Bft) W-SW 247 0 min 0,000 mm 0,0 UV-I 0 W/m 1,0 C -3,4 C 17,7 km/h (3 Bft) 100,00 %
16.12.2017 18:39 1,9 C 3,9 C 94 % 1012,1 hPa 0,0 l/m 8,0 km/h (2 Bft) W-SW 247 0 min 0,000 mm 0,0 UV-I 0 W/m 1,0 C 0,3 C 11,3 km/h (2 Bft) 100,00 %
16.12.2017 18:40 1,9 C 3,9 C 94 % 1012,0 hPa 0,0 l/m 9,7 km/h (2 Bft) W 270 0 min 0,000 mm 0,0 UV-I 0 W/m 1,0 C -1,1 C 12,9 km/h (3 Bft) 100,00 %
16.12.2017 18:41 1,9 C 3,9 C 94 % 1012,1 hPa 0,0 l/m 11,3 km/h (2 Bft) W-SW 247 0 min 0,000 mm 0,0 UV-I 0 W/m 1,0 C -2,3 C 14,5 km/h (3 Bft) 95,65 %
16.12.2017 18:42 1,9 C 3,9 C 94 % 1012,1 hPa 0,0 l/m 9,7 km/h (2 Bft) W-SW 247 0 min 0,000 mm 0,0 UV-I 0 W/m 1,0 C -1,1 C 14,5 km/h (3 Bft) 100,00 %
16.12.2017 18:43 1,9 C 3,9 C 94 % 1012,1 hPa 0,0 l/m 11,3 km/h (2 Bft) W 270 0 min 0,000 mm 0,0 UV-I 0 W/m 1,0 C -2,3 C 14,5 km/h (3 Bft) 95,65 %
16.12.2017 18:44 1,9 C 3,9 C 94 % 1012,1 hPa 0,0 l/m 11,3 km/h (2 Bft) W 270 0 min 0,000 mm 0,0 UV-I 0 W/m 1,0 C -2,3 C 12,9 km/h (3 Bft) 100,00 %
16.12.2017 18:45 1,9 C 3,9 C 94 % 1012,1 hPa 0,0 l/m 6,4 km/h (2 Bft) W-SW 247 0 min 0,000 mm 0,0 UV-I 0 W/m 1,0 C 1,9 C 12,9 km/h (3 Bft) 95,65 %
16.12.2017 18:46 1,9 C 3,9 C 94 % 1012,1 hPa 0,0 l/m 6,4 km/h (2 Bft) W-SW 247 0 min 0,000 mm 0,0 UV-I 0 W/m 1,0 C 1,9 C 8,0 km/h (2 Bft) 100,00 %
16.12.2017 18:47 1,9 C 3,9 C 94 % 1012,1 hPa 0,0 l/m 6,4 km/h (2 Bft) W-SW 247 0 min 0,000 mm 0,0 UV-I 0 W/m 1,0 C 1,9 C 9,7 km/h (2 Bft) 91,30 %
16.12.2017 18:48 1,9 C 3,9 C 94 % 1012,2 hPa 0,0 l/m 9,7 km/h (2 Bft) W-SW 247 0 min 0,000 mm 0,0 UV-I 0 W/m 1,0 C -1,1 C 17,7 km/h (3 Bft) 95,65 %
16.12.2017 18:49 1,9 C 3,9 C 94 % 1012,1 hPa 0,0 l/m 12,9 km/h (3 Bft) W-SW 247 0 min 0,000 mm 0,0 UV-I 0 W/m 1,0 C -3,4 C 16,1 km/h (3 Bft) 100,00 %
16.12.2017 18:50 1,9 C 3,9 C 94 % 1012,2 hPa 0,0 l/m 9,7 km/h (2 Bft) W-NW 292 0 min 0,000 mm 0,0 UV-I 0 W/m 1,0 C -1,1 C 12,9 km/h (3 Bft) 95,65 %
16.12.2017 18:51 1,9 C 3,9 C 94 % 1012,2 hPa 0,0 l/m 9,7 km/h (2 Bft) W 270 0 min 0,000 mm 0,0 UV-I 0 W/m 1,0 C -1,1 C 14,5 km/h (3 Bft) 100,00 %
16.12.2017 18:52 1,9 C 3,9 C 94 % 1012,2 hPa 0,0 l/m 9,7 km/h (2 Bft) W-SW 247 0 min 0,000 mm 0,0 UV-I 0 W/m 1,0 C -1,1 C 14,5 km/h (3 Bft) 91,30 %
16.12.2017 18:53 1,9 C 3,9 C 94 % 1012,2 hPa 0,0 l/m 11,3 km/h (2 Bft) W-SW 247 0 min 0,000 mm 0,0 UV-I 0 W/m 1,0 C -2,3 C 14,5 km/h (3 Bft) 100,00 %
16.12.2017 18:54 1,9 C 3,9 C 94 % 1012,2 hPa 0,0 l/m 14,5 km/h (3 Bft) W-SW 247 0 min 0,000 mm 0,0 UV-I 0 W/m 1,0 C -4,4 C 17,7 km/h (3 Bft) 91,30 %
16.12.2017 18:55 1,8 C 3,9 C 94 % 1012,3 hPa 0,0 l/m 11,3 km/h (2 Bft) W-SW 247 0 min 0,000 mm 0,0 UV-I 0 W/m 0,9 C -2,4 C 16,1 km/h (3 Bft) 95,65 %
16.12.2017 18:56 1,8 C 3,9 C 94 % 1012,3 hPa 0,0 l/m 11,3 km/h (2 Bft) W 270 0 min 0,000 mm 0,0 UV-I 0 W/m 0,9 C -2,4 C 14,5 km/h (3 Bft) 91,30 %
16.12.2017 18:57 1,8 C 3,9 C 94 % 1012,3 hPa 0,0 l/m 11,3 km/h (2 Bft) W-SW 247 0 min 0,000 mm 0,0 UV-I 0 W/m 0,9 C -2,4 C 12,9 km/h (3 Bft) 95,65 %
16.12.2017 18:58 1,8 C 3,9 C 94 % 1012,3 hPa 0,0 l/m 11,3 km/h (2 Bft) W 270 0 min 0,000 mm 0,0 UV-I 0 W/m 0,9 C -2,4 C 12,9 km/h (3 Bft) 95,65 %
16.12.2017 18:59 1,8 C 3,9 C 94 % 1012,3 hPa 0,0 l/m 8,0 km/h (2 Bft) W-SW 247 0 min 0,000 mm 0,0 UV-I 0 W/m 0,9 C 0,2 C 11,3 km/h (2 Bft) 95,65 %
16.12.2017 19:00 1,8 C 3,9 C 94 % 1012,3 hPa 0,0 l/m 6,4 km/h (2 Bft) W 270 0 min 0,000 mm 0,0 UV-I 0 W/m 0,9 C 1,8 C 11,3 km/h (2 Bft) 86,96 %
16.12.2017 19:01 1,8 C 3,9 C 94 % 1012,3 hPa 0,0 l/m 12,9 km/h (3 Bft) W 270 0 min 0,000 mm 0,0 UV-I 0 W/m 0,9 C -3,5 C 17,7 km/h (3 Bft) 91,30 %
16.12.2017 19:02 1,8 C 3,9 C 94 % 1012,4 hPa 0,0 l/m 9,7 km/h (2 Bft) W 270 0 min 0,000 mm 0,0 UV-I 0 W/m 0,9 C -1,2 C 12,9 km/h (3 Bft) 86,96 %
16.12.2017 19:03 1,8 C 3,9 C 94 % 1012,3 hPa 0,0 l/m 8,0 km/h (2 Bft) W 270 0 min 0,000 mm 0,0 UV-I 0 W/m 0,9 C 0,2 C 11,3 km/h (2 Bft) 91,30 %
16.12.2017 19:04 1,8 C 3,9 C 94 % 1012,4 hPa 0,0 l/m 9,7 km/h (2 Bft) W 270 0 min 0,000 mm 0,0 UV-I 0 W/m 0,9 C -1,2 C 17,7 km/h (3 Bft) 100,00 %
16.12.2017 19:05 1,7 C 3,9 C 95 % 1012,4 hPa 0,0 l/m 8,0 km/h (2 Bft) W-NW 292 0 min 0,000 mm 0,0 UV-I 0 W/m 1,0 C 0,1 C 11,3 km/h (2 Bft) 95,65 %
16.12.2017 19:06 1,7 C 3,9 C 95 % 1012,4 hPa 0,0 l/m 8,0 km/h (2 Bft) W-SW 247 0 min 0,000 mm 0,0 UV-I 0 W/m 1,0 C 0,1 C 14,5 km/h (3 Bft) 91,30 %
16.12.2017 19:07 1,7 C 3,9 C 95 % 1012,4 hPa 0,0 l/m 9,7 km/h (2 Bft) W-SW 247 0 min 0,000 mm 0,0 UV-I 0 W/m 1,0 C -1,3 C 14,5 km/h (3 Bft) 100,00 %
16.12.2017 19:08 1,7 C 3,9 C 95 % 1012,5 hPa 0,0 l/m 14,5 km/h (3 Bft) W 270 0 min 0,000 mm 0,0 UV-I 0 W/m 1,0 C -4,6 C 19,3 km/h (3 Bft) 95,65 %
16.12.2017 19:09 1,7 C 3,9 C 95 % 1012,6 hPa 0,0 l/m 9,7 km/h (2 Bft) W-SW 247 0 min 0,000 mm 0,0 UV-I 0 W/m 1,0 C -1,3 C 11,3 km/h (2 Bft) 95,65 %
16.12.2017 19:10 1,7 C 3,9 C 95 % 1012,6 hPa 0,0 l/m 12,9 km/h (3 Bft) W 270 0 min 0,000 mm 0,0 UV-I 0 W/m 1,0 C -3,6 C 16,1 km/h (3 Bft) 95,65 %
16.12.2017 19:11 1,7 C 3,9 C 95 % 1012,6 hPa 0,0 l/m 6,4 km/h (2 Bft) W 270 0 min 0,000 mm 0,0 UV-I 0 W/m 1,0 C 1,7 C 14,5 km/h (3 Bft) 100,00 %
16.12.2017 19:12 1,7 C 3,9 C 95 % 1012,6 hPa 0,0 l/m 9,7 km/h (2 Bft) W 270 0 min 0,000 mm 0,0 UV-I 0 W/m 1,0 C -1,3 C 14,5 km/h (3 Bft) 95,65 %
16.12.2017 19:13 1,7 C 3,9 C 95 % 1012,6 hPa 0,0 l/m 12,9 km/h (3 Bft) W 270 0 min 0,000 mm 0,0 UV-I 0 W/m 1,0 C -3,6 C 16,1 km/h (3 Bft) 100,00 %
16.12.2017 19:14 1,7 C 3,9 C 94 % 1012,6 hPa 0,0 l/m 9,7 km/h (2 Bft) W 270 0 min 0,000 mm 0,0 UV-I 0 W/m 0,8 C -1,3 C 14,5 km/h (3 Bft) 95,65 %
16.12.2017 19:15 1,7 C 3,9 C 94 % 1012,6 hPa 0,0 l/m 6,4 km/h (2 Bft) W 270 0 min 0,000 mm 0,0 UV-I 0 W/m 0,8 C 1,7 C 9,7 km/h (2 Bft) 95,65 %
16.12.2017 19:16 1,7 C 3,9 C 94 % 1012,7 hPa 0,0 l/m 8,0 km/h (2 Bft) W 270 0 min 0,000 mm 0,0 UV-I 0 W/m 0,8 C 0,1 C 12,9 km/h (3 Bft) 95,65 %
16.12.2017 19:17 1,6 C 3,9 C 94 % 1012,7 hPa 0,0 l/m 11,3 km/h (2 Bft) W 270 0 min 0,000 mm 0,0 UV-I 0 W/m 0,7 C -2,7 C 17,7 km/h (3 Bft) 95,65 %
16.12.2017 19:18 1,6 C 3,9 C 94 % 1012,7 hPa 0,0 l/m 9,7 km/h (2 Bft) W-SW 247 0 min 0,000 mm 0,0 UV-I 0 W/m 0,7 C -1,4 C 12,9 km/h (3 Bft) 100,00 %
16.12.2017 19:19 1,6 C 3,9 C 94 % 1012,7 hPa 0,0 l/m 8,0 km/h (2 Bft) W 270 0 min 0,000 mm 0,0 UV-I 0 W/m 0,7 C 0,0 C 12,9 km/h (3 Bft) 95,65 %
16.12.2017 19:20 1,6 C 3,9 C 94 % 1012,7 hPa 0,0 l/m 9,7 km/h (2 Bft) W-SW 247 0 min 0,000 mm 0,0 UV-I 0 W/m 0,7 C -1,4 C 16,1 km/h (3 Bft) 100,00 %
16.12.2017 19:21 1,6 C 3,9 C 94 % 1012,7 hPa 0,0 l/m 14,5 km/h (3 Bft) W 270 0 min 0,000 mm 0,0 UV-I 0 W/m 0,7 C -4,8 C 20,9 km/h (4 Bft) 91,30 %
16.12.2017 19:22 1,6 C 3,9 C 94 % 1012,8 hPa 0,0 l/m 8,0 km/h (2 Bft) W 270 0 min 0,000 mm 0,0 UV-I 0 W/m 0,7 C 0,0 C 20,9 km/h (4 Bft) 100,00 %
16.12.2017 19:23 1,5 C 3,9 C 94 % 1012,7 hPa 0,0 l/m 8,0 km/h (2 Bft) W-SW 247 0 min 0,000 mm 0,0 UV-I 0 W/m 0,6 C -0,1 C 12,9 km/h (3 Bft) 91,30 %
16.12.2017 19:24 1,5 C 3,9 C 94 % 1012,8 hPa 0,0 l/m 9,7 km/h (2 Bft) W-SW 247 0 min 0,000 mm 0,0 UV-I 0 W/m 0,6 C -1,6 C 14,5 km/h (3 Bft) 100,00 %
16.12.2017 19:25 1,5 C 3,9 C 94 % 1012,8 hPa 0,0 l/m 8,0 km/h (2 Bft) W-SW 247 0 min 0,000 mm 0,0 UV-I 0 W/m 0,6 C -0,1 C 12,9 km/h (3 Bft) 95,65 %
16.12.2017 19:26 1,5 C 3,9 C 94 % 1012,9 hPa 0,0 l/m 8,0 km/h (2 Bft) W 270 0 min 0,000 mm 0,0 UV-I 0 W/m 0,6 C -0,1 C 11,3 km/h (2 Bft) 100,00 %
16.12.2017 19:27 1,5 C 3,9 C 94 % 1012,9 hPa 0,0 l/m 12,9 km/h (3 Bft) W 270 0 min 0,000 mm 0,0 UV-I 0 W/m 0,6 C -3,9 C 17,7 km/h (3 Bft) 100,00 %
16.12.2017 19:28 1,4 C 3,9 C 94 % 1012,9 hPa 0,0 l/m 12,9 km/h (3 Bft) W 270 0 min 0,000 mm 0,0 UV-I 0 W/m 0,5 C -4,0 C 17,7 km/h (3 Bft) 100,00 %
16.12.2017 19:29 1,4 C 3,9 C 94 % 1012,9 hPa 0,0 l/m 12,9 km/h (3 Bft) W 270 0 min 0,000 mm 0,0 UV-I 0 W/m 0,5 C -4,0 C 17,7 km/h (3 Bft) 100,00 %
16.12.2017 19:30 1,4 C 3,9 C 94 % 1012,9 hPa 0,0 l/m 11,3 km/h (2 Bft) W-SW 247 0 min 0,000 mm 0,0 UV-I 0 W/m 0,5 C -2,9 C 16,1 km/h (3 Bft) 91,30 %
16.12.2017 19:31 1,4 C 3,9 C 94 % 1013,0 hPa 0,0 l/m 17,7 km/h (3 Bft) W 270 0 min 0,000 mm 0,0 UV-I 0 W/m 0,5 C -6,7 C 25,7 km/h (4 Bft) 100,00 %
16.12.2017 19:32 1,4 C 3,9 C 94 % 1013,0 hPa 0,0 l/m 11,3 km/h (2 Bft) W 270 0 min 0,000 mm 0,0 UV-I 0 W/m 0,5 C -2,9 C 25,7 km/h (4 Bft) 95,65 %
16.12.2017 19:33 1,4 C 3,9 C 94 % 1013,0 hPa 0,0 l/m 11,3 km/h (2 Bft) W 270 0 min 0,000 mm 0,0 UV-I 0 W/m 0,5 C -2,9 C 14,5 km/h (3 Bft) 95,65 %
16.12.2017 19:34 1,3 C 3,9 C 94 % 1013,0 hPa 0,0 l/m 11,3 km/h (2 Bft) W 270 0 min 0,000 mm 0,0 UV-I 0 W/m 0,4 C -3,0 C 17,7 km/h (3 Bft) 100,00 %
16.12.2017 19:35 1,3 C 3,9 C 94 % 1013,0 hPa 0,0 l/m 12,9 km/h (3 Bft) W 270 0 min 0,000 mm 0,0 UV-I 0 W/m 0,4 C -4,1 C 17,7 km/h (3 Bft) 91,30 %
16.12.2017 19:36 1,3 C 3,9 C 94 % 1013,0 hPa 0,0 l/m 11,3 km/h (2 Bft) W 270 0 min 0,000 mm 0,0 UV-I 0 W/m 0,4 C -3,0 C 17,7 km/h (3 Bft) 100,00 %
16.12.2017 19:37 1,3 C 3,9 C 94 % 1013,0 hPa 0,0 l/m 11,3 km/h (2 Bft) W 270 0 min 0,000 mm 0,0 UV-I 0 W/m 0,4 C -3,0 C 16,1 km/h (3 Bft) 91,30 %
16.12.2017 19:38 1,3 C 3,9 C 94 % 1013,1 hPa 0,2 l/m 11,3 km/h (2 Bft) W 270 0 min 0,000 mm 0,0 UV-I 0 W/m 0,4 C -3,0 C 19,3 km/h (3 Bft) 95,65 %
16.12.2017 19:39 1,3 C 3,9 C 94 % 1013,1 hPa 0,0 l/m 6,4 km/h (2 Bft) W-NW 292 0 min 0,000 mm 0,0 UV-I 0 W/m 0,4 C 1,3 C 11,3 km/h (2 Bft) 95,65 %
16.12.2017 19:40 1,3 C 3,9 C 95 % 1013,1 hPa 0,0 l/m 9,7 km/h (2 Bft) W 270 0 min 0,000 mm 0,0 UV-I 0 W/m 0,6 C -1,8 C 12,9 km/h (3 Bft) 95,65 %
16.12.2017 19:41 1,3 C 3,9 C 95 % 1013,1 hPa 0,0 l/m 6,4 km/h (2 Bft) W-SW 247 0 min 0,000 mm 0,0 UV-I 0 W/m 0,6 C 1,3 C 12,9 km/h (3 Bft) 95,65 %
16.12.2017 19:42 1,3 C 3,9 C 95 % 1013,1 hPa 0,0 l/m 8,0 km/h (2 Bft) W-SW 247 0 min 0,000 mm 0,0 UV-I 0 W/m 0,6 C -0,3 C 11,3 km/h (2 Bft) 100,00 %
16.12.2017 19:43 1,2 C 3,9 C 95 % 1013,1 hPa 0,0 l/m 4,8 km/h (1 Bft) W 270 0 min 0,000 mm 0,0 UV-I 0 W/m 0,5 C 1,2 C 9,7 km/h (2 Bft) 95,65 %
16.12.2017 19:44 1,2 C 3,9 C 95 % 1013,1 hPa 0,0 l/m 9,7 km/h (2 Bft) W-SW 247 0 min 0,000 mm 0,0 UV-I 0 W/m 0,5 C -1,9 C 14,5 km/h (3 Bft) 95,65 %
16.12.2017 19:45 1,2 C 3,9 C 95 % 1013,1 hPa 0,0 l/m 9,7 km/h (2 Bft) W 270 0 min 0,000 mm 0,0 UV-I 0 W/m 0,5 C -1,9 C 14,5 km/h (3 Bft) 95,65 %
16.12.2017 19:46 1,3 C 3,9 C 95 % 1013,1 hPa 0,0 l/m 12,9 km/h (3 Bft) W 270 0 min 0,000 mm 0,0 UV-I 0 W/m 0,6 C -4,1 C 16,1 km/h (3 Bft) 100,00 %
16.12.2017 19:47 1,2 C 3,9 C 95 % 1013,1 hPa 0,0 l/m 8,0 km/h (2 Bft) W-NW 292 0 min 0,000 mm 0,0 UV-I 0 W/m 0,5 C -0,4 C 14,5 km/h (3 Bft) 95,65 %
16.12.2017 19:48 1,3 C 3,9 C 95 % 1013,1 hPa 0,0 l/m 9,7 km/h (2 Bft) W 270 0 min 0,000 mm 0,0 UV-I 0 W/m 0,6 C -1,8 C 12,9 km/h (3 Bft) 95,65 %
16.12.2017 19:49 1,3 C 3,9 C 95 % 1013,1 hPa 0,0 l/m 6,4 km/h (2 Bft) W-SW 247 0 min 0,000 mm 0,0 UV-I 0 W/m 0,6 C 1,3 C 12,9 km/h (3 Bft) 95,65 %
16.12.2017 19:50 1,3 C 3,9 C 95 % 1013,1 hPa 0,0 l/m 8,0 km/h (2 Bft) W 270 0 min 0,000 mm 0,0 UV-I 0 W/m 0,6 C -0,3 C 12,9 km/h (3 Bft) 95,65 %
16.12.2017 19:51 1,3 C 3,9 C 95 % 1013,1 hPa 0,0 l/m 9,7 km/h (2 Bft) W 270 0 min 0,000 mm 0,0 UV-I 0 W/m 0,6 C -1,8 C 12,9 km/h (3 Bft) 95,65 %
16.12.2017 19:52 1,3 C 3,9 C 95 % 1013,2 hPa 0,0 l/m 14,5 km/h (3 Bft) W 270 0 min 0,000 mm 0,0 UV-I 0 W/m 0,6 C -5,1 C 17,7 km/h (3 Bft) 86,96 %
16.12.2017 19:53 1,2 C 3,9 C 95 % 1013,1 hPa 0,0 l/m 8,0 km/h (2 Bft) W-NW 292 0 min 0,000 mm 0,0 UV-I 0 W/m 0,5 C -0,4 C 12,9 km/h (3 Bft) 100,00 %
16.12.2017 19:54 1,3 C 3,9 C 95 % 1013,2 hPa 0,0 l/m 9,7 km/h (2 Bft) W 270 0 min 0,000 mm 0,0 UV-I 0 W/m 0,6 C -1,8 C 12,9 km/h (3 Bft) 100,00 %
16.12.2017 19:55 1,3 C 3,9 C 95 % 1013,3 hPa 0,0 l/m 6,4 km/h (2 Bft) W-SW 247 0 min 0,000 mm 0,0 UV-I 0 W/m 0,6 C 1,3 C 8,0 km/h (2 Bft) 100,00 %
16.12.2017 19:56 1,3 C 3,9 C 95 % 1013,3 hPa 0,0 l/m 4,8 km/h (1 Bft) W 270 0 min 0,000 mm 0,0 UV-I 0 W/m 0,6 C 1,3 C 12,9 km/h (3 Bft) 100,00 %
16.12.2017 19:57 1,2 C 3,9 C 95 % 1013,3 hPa 0,0 l/m 6,4 km/h (2 Bft) W-SW 247 0 min 0,000 mm 0,0 UV-I 0 W/m 0,5 C 1,2 C 11,3 km/h (2 Bft) 95,65 %
16.12.2017 19:58 1,2 C 3,9 C 95 % 1013,3 hPa 0,0 l/m 8,0 km/h (2 Bft) W 270 0 min 0,000 mm 0,0 UV-I 0 W/m 0,5 C -0,4 C 9,7 km/h (2 Bft) 95,65 %
16.12.2017 19:59 1,2 C 3,9 C 95 % 1013,3 hPa 0,0 l/m 9,7 km/h (2 Bft) W 270 0 min 0,000 mm 0,0 UV-I 0 W/m 0,5 C -1,9 C 14,5 km/h (3 Bft) 100,00 %
16.12.2017 20:00 1,3 C 3,9 C 95 % 1013,4 hPa 0,0 l/m 8,0 km/h (2 Bft) W-NW 292 0 min 0,000 mm 0,0 UV-I 0 W/m 0,6 C -0,3 C 16,1 km/h (3 Bft) 100,00 %
16.12.2017 20:01 1,3 C 3,9 C 95 % 1013,3 hPa 0,0 l/m 8,0 km/h (2 Bft) W 270 0 min 0,000 mm 0,0 UV-I 0 W/m 0,6 C -0,3 C 11,3 km/h (2 Bft) 100,00 %
16.12.2017 20:02 1,3 C 3,9 C 95 % 1013,4 hPa 0,0 l/m 8,0 km/h (2 Bft) W 270 0 min 0,000 mm 0,0 UV-I 0 W/m 0,6 C -0,3 C 12,9 km/h (3 Bft) 100,00 %
16.12.2017 20:03 1,3 C 3,9 C 95 % 1013,4 hPa 0,0 l/m 9,7 km/h (2 Bft) W 270 0 min 0,000 mm 0,0 UV-I 0 W/m 0,6 C -1,8 C 16,1 km/h (3 Bft) 100,00 %
16.12.2017 20:04 1,3 C 3,9 C 95 % 1013,4 hPa 0,0 l/m 9,7 km/h (2 Bft) W-SW 247 0 min 0,000 mm 0,0 UV-I 0 W/m 0,6 C -1,8 C 12,9 km/h (3 Bft) 100,00 %
16.12.2017 20:05 1,3 C 3,9 C 95 % 1013,4 hPa 0,0 l/m 11,3 km/h (2 Bft) W 270 0 min 0,000 mm 0,0 UV-I 0 W/m 0,6 C -3,0 C 14,5 km/h (3 Bft) 95,65 %
16.12.2017 20:06 1,3 C 3,9 C 95 % 1013,4 hPa 0,0 l/m 8,0 km/h (2 Bft) W 270 0 min 0,000 mm 0,0 UV-I 0 W/m 0,6 C -0,3 C 12,9 km/h (3 Bft) 100,00 %
16.12.2017 20:07 1,3 C 3,9 C 95 % 1013,5 hPa 0,0 l/m 12,9 km/h (3 Bft) W 270 0 min 0,000 mm 0,0 UV-I 0 W/m 0,6 C -4,1 C 16,1 km/h (3 Bft) 95,65 %
16.12.2017 20:08 1,3 C 3,9 C 95 % 1013,5 hPa 0,0 l/m 8,0 km/h (2 Bft) W 270 0 min 0,000 mm 0,0 UV-I 0 W/m 0,6 C -0,3 C 14,5 km/h (3 Bft) 95,65 %
16.12.2017 20:09 1,3 C 3,9 C 95 % 1013,5 hPa 0,0 l/m 9,7 km/h (2 Bft) W-SW 247 0 min 0,000 mm 0,0 UV-I 0 W/m 0,6 C -1,8 C 14,5 km/h (3 Bft) 100,00 %
16.12.2017 20:10 1,3 C 3,9 C 95 % 1013,6 hPa 0,0 l/m 12,9 km/h (3 Bft) W-SW 247 0 min 0,000 mm 0,0 UV-I 0 W/m 0,6 C -4,1 C 16,1 km/h (3 Bft) 100,00 %
16.12.2017 20:11 1,3 C 3,9 C 95 % 1013,6 hPa 0,0 l/m 12,9 km/h (3 Bft) W-NW 292 0 min 0,000 mm 0,0 UV-I 0 W/m 0,6 C -4,1 C 19,3 km/h (3 Bft) 95,65 %
16.12.2017 20:12 1,3 C 3,9 C 95 % 1013,6 hPa 0,0 l/m 9,7 km/h (2 Bft) W-SW 247 0 min 0,000 mm 0,0 UV-I 0 W/m 0,6 C -1,8 C 14,5 km/h (3 Bft) 95,65 %
16.12.2017 20:13 1,3 C 3,9 C 95 % 1013,7 hPa 0,0 l/m 11,3 km/h (2 Bft) W 270 0 min 0,000 mm 0,0 UV-I 0 W/m 0,6 C -3,0 C 16,1 km/h (3 Bft) 100,00 %
16.12.2017 20:14 1,3 C 3,9 C 95 % 1013,7 hPa 0,0 l/m 8,0 km/h (2 Bft) W 270 0 min 0,000 mm 0,0 UV-I 0 W/m 0,6 C -0,3 C 14,5 km/h (3 Bft) 100,00 %
16.12.2017 20:15 1,3 C 3,9 C 95 % 1013,7 hPa 0,0 l/m 8,0 km/h (2 Bft) W 270 0 min 0,000 mm 0,0 UV-I 0 W/m 0,6 C -0,3 C 14,5 km/h (3 Bft) 100,00 %
16.12.2017 20:16 1,3 C 3,9 C 95 % 1013,8 hPa 0,0 l/m 11,3 km/h (2 Bft) W-SW 247 0 min 0,000 mm 0,0 UV-I 0 W/m 0,6 C -3,0 C 17,7 km/h (3 Bft) 100,00 %
16.12.2017 20:17 1,3 C 3,9 C 95 % 1013,8 hPa 0,0 l/m 9,7 km/h (2 Bft) W 270 0 min 0,000 mm 0,0 UV-I 0 W/m 0,6 C -1,8 C 14,5 km/h (3 Bft) 95,65 %
16.12.2017 20:18 1,3 C 3,9 C 95 % 1013,8 hPa 0,0 l/m 9,7 km/h (2 Bft) W 270 0 min 0,000 mm 0,0 UV-I 0 W/m 0,6 C -1,8 C 14,5 km/h (3 Bft) 100,00 %
16.12.2017 20:19 1,3 C 3,9 C 95 % 1013,9 hPa 0,0 l/m 9,7 km/h (2 Bft) W 270 0 min 0,000 mm 0,0 UV-I 0 W/m 0,6 C -1,8 C 16,1 km/h (3 Bft) 91,30 %
16.12.2017 20:20 1,3 C 3,9 C 95 % 1013,9 hPa 0,0 l/m 9,7 km/h (2 Bft) W 270 0 min 0,000 mm 0,0 UV-I 0 W/m 0,6 C -1,8 C 16,1 km/h (3 Bft) 91,30 %
16.12.2017 20:21 1,3 C 3,9 C 95 % 1013,9 hPa 0,0 l/m 12,9 km/h (3 Bft) W-SW 247 0 min 0,000 mm 0,0 UV-I 0 W/m 0,6 C -4,1 C 17,7 km/h (3 Bft) 100,00 %
16.12.2017 20:22 1,2 C 3,9 C 95 % 1014,0 hPa 0,0 l/m 9,7 km/h (2 Bft) W 270 0 min 0,000 mm 0,0 UV-I 0 W/m 0,5 C -1,9 C 14,5 km/h (3 Bft) 95,65 %
16.12.2017 20:23 1,2 C 3,9 C 95 % 1014,1 hPa 0,0 l/m 12,9 km/h (3 Bft) W 270 0 min 0,000 mm 0,0 UV-I 0 W/m 0,5 C -4,2 C 17,7 km/h (3 Bft) 100,00 %
16.12.2017 20:24 1,2 C 3,9 C 95 % 1014,0 hPa 0,0 l/m 11,3 km/h (2 Bft) W 270 0 min 0,000 mm 0,0 UV-I 0 W/m 0,5 C -3,1 C 16,1 km/h (3 Bft) 100,00 %
16.12.2017 20:25 1,2 C 3,9 C 95 % 1014,1 hPa 0,0 l/m 8,0 km/h (2 Bft) W-SW 247 0 min 0,000 mm 0,0 UV-I 0 W/m 0,5 C -0,4 C 16,1 km/h (3 Bft) 100,00 %
16.12.2017 20:26 1,1 C 3,9 C 95 % 1014,0 hPa 0,0 l/m 12,9 km/h (3 Bft) W-SW 247 0 min 0,000 mm 0,0 UV-I 0 W/m 0,4 C -4,3 C 16,1 km/h (3 Bft) 95,65 %
16.12.2017 20:27 1,1 C 3,9 C 95 % 1014,1 hPa 0,0 l/m 11,3 km/h (2 Bft) W 270 0 min 0,000 mm 0,0 UV-I 0 W/m 0,4 C -3,2 C 14,5 km/h (3 Bft) 95,65 %
16.12.2017 20:28 1,1 C 3,9 C 95 % 1014,1 hPa 0,0 l/m 9,7 km/h (2 Bft) W-SW 247 0 min 0,000 mm 0,0 UV-I 0 W/m 0,4 C -2,0 C 12,9 km/h (3 Bft) 100,00 %
16.12.2017 20:29 1,0 C 3,9 C 95 % 1014,1 hPa 0,0 l/m 11,3 km/h (2 Bft) W 270 0 min 0,000 mm 0,0 UV-I 0 W/m 0,3 C -3,3 C 16,1 km/h (3 Bft) 100,00 %
16.12.2017 20:30 1,0 C 3,9 C 95 % 1014,2 hPa 0,0 l/m 11,3 km/h (2 Bft) W 270 0 min 0,000 mm 0,0 UV-I 0 W/m 0,3 C -3,3 C 16,1 km/h (3 Bft) 100,00 %
16.12.2017 20:31 1,0 C 3,9 C 95 % 1014,2 hPa 0,0 l/m 11,3 km/h (2 Bft) W-SW 247 0 min 0,000 mm 0,0 UV-I 0 W/m 0,3 C -3,3 C 17,7 km/h (3 Bft) 100,00 %
16.12.2017 20:32 1,0 C 3,9 C 95 % 1014,2 hPa 0,0 l/m 8,0 km/h (2 Bft) W-SW 247 0 min 0,000 mm 0,0 UV-I 0 W/m 0,3 C -0,6 C 12,9 km/h (3 Bft) 100,00 %
16.12.2017 20:33 1,0 C 3,9 C 95 % 1014,2 hPa 0,0 l/m 12,9 km/h (3 Bft) W 270 0 min 0,000 mm 0,0 UV-I 0 W/m 0,3 C -4,5 C 16,1 km/h (3 Bft) 95,65 %
16.12.2017 20:34 1,0 C 3,9 C 95 % 1014,2 hPa 0,0 l/m 9,7 km/h (2 Bft) W 270 0 min 0,000 mm 0,0 UV-I 0 W/m 0,3 C -2,1 C 16,1 km/h (3 Bft) 100,00 %
16.12.2017 20:35 1,0 C 3,9 C 95 % 1014,3 hPa 0,0 l/m 9,7 km/h (2 Bft) W 270 0 min 0,000 mm 0,0 UV-I 0 W/m 0,3 C -2,1 C 14,5 km/h (3 Bft) 100,00 %
16.12.2017 20:36 1,0 C 3,9 C 95 % 1014,3 hPa 0,0 l/m 11,3 km/h (2 Bft) W-SW 247 0 min 0,000 mm 0,0 UV-I 0 W/m 0,3 C -3,3 C 16,1 km/h (3 Bft) 100,00 %
16.12.2017 20:37 1,0 C 3,9 C 95 % 1014,3 hPa 0,0 l/m 12,9 km/h (3 Bft) W-SW 247 0 min 0,000 mm 0,0 UV-I 0 W/m 0,3 C -4,5 C 17,7 km/h (3 Bft) 100,00 %
16.12.2017 20:38 1,0 C 3,9 C 95 % 1014,3 hPa 0,0 l/m 12,9 km/h (3 Bft) W 270 0 min 0,000 mm 0,0 UV-I 0 W/m 0,3 C -4,5 C 20,9 km/h (4 Bft) 95,65 %
16.12.2017 20:39 1,0 C 3,9 C 95 % 1014,4 hPa 0,0 l/m 14,5 km/h (3 Bft) W-SW 247 0 min 0,000 mm 0,0 UV-I 0 W/m 0,3 C -5,5 C 20,9 km/h (4 Bft) 100,00 %
16.12.2017 20:40 1,0 C 3,9 C 95 % 1014,4 hPa 0,0 l/m 14,5 km/h (3 Bft) W-SW 247 0 min 0,000 mm 0,0 UV-I 0 W/m 0,3 C -5,5 C 17,7 km/h (3 Bft) 95,65 %
16.12.2017 20:41 1,0 C 3,9 C 95 % 1014,4 hPa 0,0 l/m 11,3 km/h (2 Bft) W-SW 247 0 min 0,000 mm 0,0 UV-I 0 W/m 0,3 C -3,3 C 16,1 km/h (3 Bft) 100,00 %
16.12.2017 20:42 1,0 C 3,9 C 95 % 1014,4 hPa 0,0 l/m 11,3 km/h (2 Bft) W-SW 247 0 min 0,000 mm 0,0 UV-I 0 W/m 0,3 C -3,3 C 16,1 km/h (3 Bft) 100,00 %
16.12.2017 20:43 1,1 C 3,9 C 95 % 1014,5 hPa 0,0 l/m 8,0 km/h (2 Bft) W-SW 247 0 min 0,000 mm 0,0 UV-I 0 W/m 0,4 C -0,5 C 11,3 km/h (2 Bft) 100,00 %
16.12.2017 20:44 1,0 C 3,9 C 95 % 1014,4 hPa 0,0 l/m 6,4 km/h (2 Bft) W-SW 247 0 min 0,000 mm 0,0 UV-I 0 W/m 0,3 C 1,0 C 11,3 km/h (2 Bft) 100,00 %
16.12.2017 20:45 1,1 C 3,9 C 95 % 1014,5 hPa 0,0 l/m 12,9 km/h (3 Bft) W-SW 247 0 min 0,000 mm 0,0 UV-I 0 W/m 0,4 C -4,3 C 19,3 km/h (3 Bft) 100,00 %
16.12.2017 20:46 1,1 C 3,9 C 95 % 1014,4 hPa 0,0 l/m 11,3 km/h (2 Bft) W-SW 247 0 min 0,000 mm 0,0 UV-I 0 W/m 0,4 C -3,2 C 14,5 km/h (3 Bft) 100,00 %
16.12.2017 20:47 1,1 C 3,9 C 95 % 1014,5 hPa 0,0 l/m 12,9 km/h (3 Bft) W 270 0 min 0,000 mm 0,0 UV-I 0 W/m 0,4 C -4,3 C 19,3 km/h (3 Bft) 95,65 %
16.12.2017 20:48 1,1 C 3,9 C 95 % 1014,5 hPa 0,2 l/m 11,3 km/h (2 Bft) W-SW 247 0 min 0,000 mm 0,0 UV-I 0 W/m 0,4 C -3,2 C 16,1 km/h (3 Bft) 100,00 %
16.12.2017 20:49 1,1 C 3,9 C 95 % 1014,5 hPa 0,0 l/m 12,9 km/h (3 Bft) W 270 0 min 0,000 mm 0,0 UV-I 0 W/m 0,4 C -4,3 C 16,1 km/h (3 Bft) 95,65 %
16.12.2017 20:50 1,1 C 3,9 C 95 % 1014,5 hPa 0,0 l/m 12,9 km/h (3 Bft) W 270 0 min 0,000 mm 0,0 UV-I 0 W/m 0,4 C -4,3 C 22,5 km/h (4 Bft) 95,65 %
16.12.2017 20:51 1,1 C 3,9 C 95 % 1014,6 hPa 0,0 l/m 9,7 km/h (2 Bft) W 270 0 min 0,000 mm 0,0 UV-I 0 W/m 0,4 C -2,0 C 17,7 km/h (3 Bft) 95,65 %
16.12.2017 20:52 1,1 C 3,9 C 95 % 1014,6 hPa 0,0 l/m 9,7 km/h (2 Bft) W-SW 247 0 min 0,000 mm 0,0 UV-I 0 W/m 0,4 C -2,0 C 16,1 km/h (3 Bft) 86,96 %
16.12.2017 20:53 1,1 C 3,9 C 95 % 1014,6 hPa 0,0 l/m 11,3 km/h (2 Bft) W 270 0 min 0,000 mm 0,0 UV-I 0 W/m 0,4 C -3,2 C 24,1 km/h (4 Bft) 95,65 %
16.12.2017 20:54 1,1 C 3,9 C 95 % 1014,6 hPa 0,0 l/m 14,5 km/h (3 Bft) W 270 0 min 0,000 mm 0,0 UV-I 0 W/m 0,4 C -5,4 C 19,3 km/h (3 Bft) 86,96 %
16.12.2017 20:55 1,2 C 3,9 C 95 % 1014,7 hPa 0,0 l/m 9,7 km/h (2 Bft) W-SW 247 0 min 0,000 mm 0,0 UV-I 0 W/m 0,5 C -1,9 C 12,9 km/h (3 Bft) 100,00 %
16.12.2017 20:56 1,2 C 3,9 C 95 % 1014,8 hPa 0,0 l/m 12,9 km/h (3 Bft) W 270 0 min 0,000 mm 0,0 UV-I 0 W/m 0,5 C -4,2 C 22,5 km/h (4 Bft) 91,30 %
16.12.2017 20:57 1,2 C 3,9 C 95 % 1014,8 hPa 0,0 l/m 14,5 km/h (3 Bft) W 270 0 min 0,000 mm 0,0 UV-I 0 W/m 0,5 C -5,2 C 19,3 km/h (3 Bft) 100,00 %
16.12.2017 20:58 1,2 C 3,9 C 95 % 1014,8 hPa 0,0 l/m 14,5 km/h (3 Bft) W-SW 247 0 min 0,000 mm 0,0 UV-I 0 W/m 0,5 C -5,2 C 22,5 km/h (4 Bft) 91,30 %
16.12.2017 20:59 1,2 C 3,9 C 95 % 1014,8 hPa 0,0 l/m 16,1 km/h (3 Bft) W-SW 247 0 min 0,000 mm 0,0 UV-I 0 W/m 0,5 C -6,1 C 19,3 km/h (3 Bft) 95,65 %
16.12.2017 21:00 1,2 C 3,9 C 95 % 1014,9 hPa 0,0 l/m 9,7 km/h (2 Bft) W-SW 247 0 min 0,000 mm 0,0 UV-I 0 W/m 0,5 C -1,9 C 16,1 km/h (3 Bft) 95,65 %
16.12.2017 21:01 1,3 C 3,9 C 95 % 1014,9 hPa 0,0 l/m 11,3 km/h (2 Bft) W-SW 247 0 min 0,000 mm 0,0 UV-I 0 W/m 0,6 C -3,0 C 12,9 km/h (3 Bft) 86,96 %
16.12.2017 21:02 1,3 C 3,9 C 95 % 1014,9 hPa 0,0 l/m 8,0 km/h (2 Bft) W-SW 247 0 min 0,000 mm 0,0 UV-I 0 W/m 0,6 C -0,3 C 17,7 km/h (3 Bft) 95,65 %
16.12.2017 21:03 1,3 C 3,9 C 94 % 1015,0 hPa 0,0 l/m 9,7 km/h (2 Bft) W 270 0 min 0,000 mm 0,0 UV-I 0 W/m 0,4 C -1,8 C 16,1 km/h (3 Bft) 95,65 %
16.12.2017 21:04 1,3 C 3,9 C 94 % 1014,9 hPa 0,0 l/m 6,4 km/h (2 Bft) W 270 0 min 0,000 mm 0,0 UV-I 0 W/m 0,4 C 1,3 C 11,3 km/h (2 Bft) 91,30 %
16.12.2017 21:05 1,3 C 3,9 C 94 % 1015,0 hPa 0,0 l/m 12,9 km/h (3 Bft) W-SW 247 0 min 0,000 mm 0,0 UV-I 0 W/m 0,4 C -4,1 C 16,1 km/h (3 Bft) 95,65 %
16.12.2017 21:06 1,3 C 3,9 C 94 % 1015,0 hPa 0,0 l/m 11,3 km/h (2 Bft) W 270 0 min 0,000 mm 0,0 UV-I 0 W/m 0,4 C -3,0 C 14,5 km/h (3 Bft) 95,65 %
16.12.2017 21:07 1,3 C 3,9 C 94 % 1015,0 hPa 0,0 l/m 8,0 km/h (2 Bft) W-SW 247 0 min 0,000 mm 0,0 UV-I 0 W/m 0,4 C -0,3 C 12,9 km/h (3 Bft) 95,65 %
16.12.2017 21:08 1,3 C 3,9 C 94 % 1015,0 hPa 0,0 l/m 17,7 km/h (3 Bft) W-SW 247 0 min 0,000 mm 0,0 UV-I 0 W/m 0,4 C -6,9 C 20,9 km/h (4 Bft) 86,96 %
16.12.2017 21:09 1,3 C 3,9 C 94 % 1015,0 hPa 0,0 l/m 12,9 km/h (3 Bft) W 270 0 min 0,000 mm 0,0 UV-I 0 W/m 0,4 C -4,1 C 20,9 km/h (4 Bft) 95,65 %
16.12.2017 21:10 1,3 C 3,9 C 94 % 1015,0 hPa 0,0 l/m 11,3 km/h (2 Bft) W-SW 247 0 min 0,000 mm 0,0 UV-I 0 W/m 0,4 C -3,0 C 16,1 km/h (3 Bft) 95,65 %
16.12.2017 21:11 1,3 C 3,9 C 94 % 1015,0 hPa 0,0 l/m 12,9 km/h (3 Bft) W-SW 247 0 min 0,000 mm 0,0 UV-I 0 W/m 0,4 C -4,1 C 17,7 km/h (3 Bft) 95,65 %
16.12.2017 21:12 1,2 C 3,9 C 94 % 1015,0 hPa 0,0 l/m 14,5 km/h (3 Bft) W 270 0 min 0,000 mm 0,0 UV-I 0 W/m 0,3 C -5,2 C 20,9 km/h (4 Bft) 95,65 %
16.12.2017 21:13 1,3 C 3,9 C 94 % 1015,0 hPa 0,0 l/m 12,9 km/h (3 Bft) W 270 0 min 0,000 mm 0,0 UV-I 0 W/m 0,4 C -4,1 C 17,7 km/h (3 Bft) 95,65 %
16.12.2017 21:14 1,3 C 3,9 C 94 % 1015,0 hPa 0,0 l/m 12,9 km/h (3 Bft) W-SW 247 0 min 0,000 mm 0,0 UV-I 0 W/m 0,4 C -4,1 C 16,1 km/h (3 Bft) 95,65 %
16.12.2017 21:15 1,3 C 3,9 C 94 % 1015,1 hPa 0,0 l/m 12,9 km/h (3 Bft) W-SW 247 0 min 0,000 mm 0,0 UV-I 0 W/m 0,4 C -4,1 C 16,1 km/h (3 Bft) 95,65 %
16.12.2017 21:16 1,3 C 3,9 C 94 % 1015,1 hPa 0,0 l/m 6,4 km/h (2 Bft) W-SW 247 0 min 0,000 mm 0,0 UV-I 0 W/m 0,4 C 1,3 C 11,3 km/h (2 Bft) 91,30 %
16.12.2017 21:17 1,3 C 3,9 C 93 % 1015,1 hPa 0,0 l/m 12,9 km/h (3 Bft) W-SW 247 0 min 0,000 mm 0,0 UV-I 0 W/m 0,3 C -4,1 C 16,1 km/h (3 Bft) 95,65 %
16.12.2017 21:18 1,3 C 3,9 C 93 % 1015,1 hPa 0,0 l/m 12,9 km/h (3 Bft) W 270 0 min 0,000 mm 0,0 UV-I 0 W/m 0,3 C -4,1 C 16,1 km/h (3 Bft) 100,00 %
16.12.2017 21:19 1,3 C 3,9 C 93 % 1015,1 hPa 0,0 l/m 11,3 km/h (2 Bft) W-SW 247 0 min 0,000 mm 0,0 UV-I 0 W/m 0,3 C -3,0 C 16,1 km/h (3 Bft) 95,65 %
16.12.2017 21:20 1,2 C 3,9 C 93 % 1015,1 hPa 0,0 l/m 9,7 km/h (2 Bft) W 270 0 min 0,000 mm 0,0 UV-I 0 W/m 0,2 C -1,9 C 17,7 km/h (3 Bft) 95,65 %
16.12.2017 21:21 1,2 C 3,9 C 93 % 1015,1 hPa 0,0 l/m 11,3 km/h (2 Bft) W 270 0 min 0,000 mm 0,0 UV-I 0 W/m 0,2 C -3,1 C 14,5 km/h (3 Bft) 91,30 %
16.12.2017 21:22 1,2 C 3,9 C 93 % 1015,1 hPa 0,0 l/m 12,9 km/h (3 Bft) W-SW 247 0 min 0,000 mm 0,0 UV-I 0 W/m 0,2 C -4,2 C 17,7 km/h (3 Bft) 95,65 %
16.12.2017 21:23 1,2 C 3,9 C 93 % 1015,2 hPa 0,0 l/m 17,7 km/h (3 Bft) W-SW 247 0 min 0,000 mm 0,0 UV-I 0 W/m 0,2 C -7,0 C 24,1 km/h (4 Bft) 95,65 %
16.12.2017 21:24 1,2 C 3,9 C 93 % 1015,2 hPa 0,0 l/m 14,5 km/h (3 Bft) W 270 0 min 0,000 mm 0,0 UV-I 0 W/m 0,2 C -5,2 C 19,3 km/h (3 Bft) 100,00 %
16.12.2017 21:25 1,2 C 3,9 C 93 % 1015,2 hPa 0,0 l/m 14,5 km/h (3 Bft) W-SW 247 0 min 0,000 mm 0,0 UV-I 0 W/m 0,2 C -5,2 C 20,9 km/h (4 Bft) 95,65 %
16.12.2017 21:26 1,3 C 3,9 C 93 % 1015,2 hPa 0,0 l/m 12,9 km/h (3 Bft) W 270 0 min 0,000 mm 0,0 UV-I 0 W/m 0,3 C -4,1 C 17,7 km/h (3 Bft) 100,00 %
16.12.2017 21:27 1,2 C 3,9 C 93 % 1015,3 hPa 0,0 l/m 11,3 km/h (2 Bft) W-SW 247 0 min 0,000 mm 0,0 UV-I 0 W/m 0,2 C -3,1 C 16,1 km/h (3 Bft) 95,65 %
16.12.2017 21:28 1,2 C 3,9 C 93 % 1015,3 hPa 0,0 l/m 16,1 km/h (3 Bft) W-SW 247 0 min 0,000 mm 0,0 UV-I 0 W/m 0,2 C -6,1 C 17,7 km/h (3 Bft) 100,00 %
16.12.2017 21:29 1,3 C 3,9 C 93 % 1015,3 hPa 0,0 l/m 8,0 km/h (2 Bft) W-SW 247 0 min 0,000 mm 0,0 UV-I 0 W/m 0,3 C -0,3 C 12,9 km/h (3 Bft) 95,65 %
16.12.2017 21:30 1,3 C 3,9 C 93 % 1015,3 hPa 0,0 l/m 11,3 km/h (2 Bft) W 270 0 min 0,000 mm 0,0 UV-I 0 W/m 0,3 C -3,0 C 14,5 km/h (3 Bft) 91,30 %
16.12.2017 21:31 1,2 C 3,9 C 93 % 1015,3 hPa 0,0 l/m 12,9 km/h (3 Bft) W-SW 247 0 min 0,000 mm 0,0 UV-I 0 W/m 0,2 C -4,2 C 17,7 km/h (3 Bft) 95,65 %
16.12.2017 21:32 1,3 C 3,9 C 93 % 1015,3 hPa 0,0 l/m 11,3 km/h (2 Bft) W 270 0 min 0,000 mm 0,0 UV-I 0 W/m 0,3 C -3,0 C 16,1 km/h (3 Bft) 100,00 %
16.12.2017 21:33 1,3 C 3,9 C 93 % 1015,4 hPa 0,0 l/m 12,9 km/h (3 Bft) W-SW 247 0 min 0,000 mm 0,0 UV-I 0 W/m 0,3 C -4,1 C 19,3 km/h (3 Bft) 100,00 %
16.12.2017 21:34 1,3 C 3,9 C 93 % 1015,5 hPa 0,0 l/m 11,3 km/h (2 Bft) W-SW 247 0 min 0,000 mm 0,0 UV-I 0 W/m 0,3 C -3,0 C 14,5 km/h (3 Bft) 100,00 %
16.12.2017 21:35 1,3 C 3,9 C 93 % 1015,5 hPa 0,0 l/m 12,9 km/h (3 Bft) W-SW 247 0 min 0,000 mm 0,0 UV-I 0 W/m 0,3 C -4,1 C 16,1 km/h (3 Bft) 95,65 %
16.12.2017 21:36 1,2 C 3,9 C 93 % 1015,5 hPa 0,0 l/m 14,5 km/h (3 Bft) W-SW 247 0 min 0,000 mm 0,0 UV-I 0 W/m 0,2 C -5,2 C 19,3 km/h (3 Bft) 95,65 %
16.12.2017 21:37 1,2 C 3,9 C 93 % 1015,5 hPa 0,0 l/m 17,7 km/h (3 Bft) W-SW 247 0 min 0,000 mm 0,0 UV-I 0 W/m 0,2 C -7,0 C 22,5 km/h (4 Bft) 100,00 %
16.12.2017 21:38 1,2 C 3,9 C 93 % 1015,5 hPa 0,0 l/m 12,9 km/h (3 Bft) W-SW 247 0 min 0,000 mm 0,0 UV-I 0 W/m 0,2 C -4,2 C 14,5 km/h (3 Bft) 100,00 %
16.12.2017 21:39 1,3 C 3,9 C 93 % 1015,6 hPa 0,0 l/m 17,7 km/h (3 Bft) W-SW 247 0 min 0,000 mm 0,0 UV-I 0 W/m 0,3 C -6,9 C 22,5 km/h (4 Bft) 100,00 %
16.12.2017 21:40 1,3 C 3,9 C 93 % 1015,6 hPa 0,0 l/m 14,5 km/h (3 Bft) W-SW 247 0 min 0,000 mm 0,0 UV-I 0 W/m 0,3 C -5,1 C 19,3 km/h (3 Bft) 100,00 %
16.12.2017 21:41 1,3 C 3,9 C 93 % 1015,6 hPa 0,0 l/m 12,9 km/h (3 Bft) W 270 0 min 0,000 mm 0,0 UV-I 0 W/m 0,3 C -4,1 C 17,7 km/h (3 Bft) 100,00 %
16.12.2017 21:42 1,3 C 3,9 C 93 % 1015,7 hPa 0,0 l/m 12,9 km/h (3 Bft) W-SW 247 0 min 0,000 mm 0,0 UV-I 0 W/m 0,3 C -4,1 C 17,7 km/h (3 Bft) 100,00 %
16.12.2017 21:43 1,3 C 3,9 C 93 % 1015,7 hPa 0,0 l/m 14,5 km/h (3 Bft) W-SW 247 0 min 0,000 mm 0,0 UV-I 0 W/m 0,3 C -5,1 C 19,3 km/h (3 Bft) 95,65 %
16.12.2017 21:44 1,3 C 3,9 C 93 % 1015,7 hPa 0,0 l/m 14,5 km/h (3 Bft) W-SW 247 0 min 0,000 mm 0,0 UV-I 0 W/m 0,3 C -5,1 C 17,7 km/h (3 Bft) 100,00 %
16.12.2017 21:45 1,3 C 3,9 C 93 % 1015,7 hPa 0,0 l/m 14,5 km/h (3 Bft) W-SW 247 0 min 0,000 mm 0,0 UV-I 0 W/m 0,3 C -5,1 C 16,1 km/h (3 Bft) 100,00 %
16.12.2017 21:46 1,3 C 3,9 C 93 % 1015,8 hPa 0,0 l/m 12,9 km/h (3 Bft) W-SW 247 0 min 0,000 mm 0,0 UV-I 0 W/m 0,3 C -4,1 C 16,1 km/h (3 Bft) 100,00 %
16.12.2017 21:47 1,3 C 3,9 C 93 % 1015,8 hPa 0,0 l/m 11,3 km/h (2 Bft) W-SW 247 0 min 0,000 mm 0,0 UV-I 0 W/m 0,3 C -3,0 C 17,7 km/h (3 Bft) 100,00 %
16.12.2017 21:48 1,3 C 3,9 C 93 % 1015,7 hPa 0,0 l/m 11,3 km/h (2 Bft) W-SW 247 0 min 0,000 mm 0,0 UV-I 0 W/m 0,3 C -3,0 C 14,5 km/h (3 Bft) 100,00 %
16.12.2017 21:49 1,3 C 3,9 C 93 % 1015,7 hPa 0,0 l/m 8,0 km/h (2 Bft) W-SW 247 0 min 0,000 mm 0,0 UV-I 0 W/m 0,3 C -0,3 C 11,3 km/h (2 Bft) 100,00 %
16.12.2017 21:50 1,3 C 3,9 C 93 % 1015,7 hPa 0,0 l/m 11,3 km/h (2 Bft) SW 225 0 min 0,000 mm 0,0 UV-I 0 W/m 0,3 C -3,0 C 17,7 km/h (3 Bft) 95,65 %
16.12.2017 21:51 1,3 C 3,9 C 93 % 1015,7 hPa 0,0 l/m 11,3 km/h (2 Bft) W-SW 247 0 min 0,000 mm 0,0 UV-I 0 W/m 0,3 C -3,0 C 19,3 km/h (3 Bft) 95,65 %
16.12.2017 21:52 1,3 C 3,9 C 93 % 1015,7 hPa 0,0 l/m 11,3 km/h (2 Bft) W-SW 247 0 min 0,000 mm 0,0 UV-I 0 W/m 0,3 C -3,0 C 16,1 km/h (3 Bft) 100,00 %
16.12.2017 21:53 1,2 C 3,9 C 93 % 1015,7 hPa 0,0 l/m 11,3 km/h (2 Bft) W-SW 247 0 min 0,000 mm 0,0 UV-I 0 W/m 0,2 C -3,1 C 16,1 km/h (3 Bft) 100,00 %
16.12.2017 21:54 1,2 C 3,9 C 93 % 1015,7 hPa 0,0 l/m 9,7 km/h (2 Bft) SW 225 0 min 0,000 mm 0,0 UV-I 0 W/m 0,2 C -1,9 C 14,5 km/h (3 Bft) 100,00 %
16.12.2017 21:55 1,2 C 3,9 C 92 % 1015,7 hPa 0,0 l/m 9,7 km/h (2 Bft) SW 225 0 min 0,000 mm 0,0 UV-I 0 W/m 0,0 C -1,9 C 14,5 km/h (3 Bft) 100,00 %
16.12.2017 21:56 1,2 C 3,9 C 92 % 1015,7 hPa 0,0 l/m 11,3 km/h (2 Bft) W-SW 247 0 min 0,000 mm 0,0 UV-I 0 W/m 0,0 C -3,1 C 14,5 km/h (3 Bft) 95,65 %
16.12.2017 21:57 1,2 C 3,9 C 92 % 1015,7 hPa 0,0 l/m 12,9 km/h (3 Bft) W-SW 247 0 min 0,000 mm 0,0 UV-I 0 W/m 0,0 C -4,2 C 22,5 km/h (4 Bft) 95,65 %
16.12.2017 21:58 1,3 C 3,9 C 92 % 1015,7 hPa 0,0 l/m 11,3 km/h (2 Bft) W-SW 247 0 min 0,000 mm 0,0 UV-I 0 W/m 0,1 C -3,0 C 14,5 km/h (3 Bft) 100,00 %
16.12.2017 21:59 1,2 C 3,9 C 92 % 1015,7 hPa 0,0 l/m 9,7 km/h (2 Bft) SW 225 0 min 0,000 mm 0,0 UV-I 0 W/m 0,0 C -1,9 C 14,5 km/h (3 Bft) 100,00 %
16.12.2017 22:00 1,2 C 3,9 C 92 % 1015,7 hPa 0,0 l/m 11,3 km/h (2 Bft) W-SW 247 0 min 0,000 mm 0,0 UV-I 0 W/m 0,0 C -3,1 C 16,1 km/h (3 Bft) 100,00 %
16.12.2017 22:01 1,3 C 3,9 C 92 % 1015,8 hPa 0,0 l/m 12,9 km/h (3 Bft) W-SW 247 0 min 0,000 mm 0,0 UV-I 0 W/m 0,1 C -4,1 C 17,7 km/h (3 Bft) 100,00 %
16.12.2017 22:02 1,2 C 3,9 C 92 % 1015,8 hPa 0,0 l/m 11,3 km/h (2 Bft) W-SW 247 0 min 0,000 mm 0,0 UV-I 0 W/m 0,0 C -3,1 C 19,3 km/h (3 Bft) 100,00 %
16.12.2017 22:03 1,2 C 3,9 C 92 % 1015,7 hPa 0,0 l/m 12,9 km/h (3 Bft) W-SW 247 0 min 0,000 mm 0,0 UV-I 0 W/m 0,0 C -4,2 C 17,7 km/h (3 Bft) 100,00 %
16.12.2017 22:04 1,3 C 3,9 C 92 % 1015,7 hPa 0,0 l/m 12,9 km/h (3 Bft) W-SW 247 0 min 0,000 mm 0,0 UV-I 0 W/m 0,1 C -4,1 C 17,7 km/h (3 Bft) 95,65 %
16.12.2017 22:05 1,2 C 3,9 C 92 % 1015,7 hPa 0,0 l/m 11,3 km/h (2 Bft) W-SW 247 0 min 0,000 mm 0,0 UV-I 0 W/m 0,0 C -3,1 C 17,7 km/h (3 Bft) 100,00 %
16.12.2017 22:06 1,3 C 3,9 C 92 % 1015,7 hPa 0,0 l/m 11,3 km/h (2 Bft) W-SW 247 0 min 0,000 mm 0,0 UV-I 0 W/m 0,1 C -3,0 C 16,1 km/h (3 Bft) 100,00 %
16.12.2017 22:07 1,2 C 3,9 C 92 % 1015,8 hPa 0,0 l/m 11,3 km/h (2 Bft) SW 225 0 min 0,000 mm 0,0 UV-I 0 W/m 0,0 C -3,1 C 14,5 km/h (3 Bft) 100,00 %
16.12.2017 22:08 1,2 C 3,9 C 92 % 1015,7 hPa 0,0 l/m 14,5 km/h (3 Bft) W-SW 247 0 min 0,000 mm 0,0 UV-I 0 W/m 0,0 C -5,2 C 17,7 km/h (3 Bft) 100,00 %
16.12.2017 22:09 1,2 C 3,9 C 92 % 1015,7 hPa 0,0 l/m 11,3 km/h (2 Bft) W-SW 247 0 min 0,000 mm 0,0 UV-I 0 W/m 0,0 C -3,1 C 14,5 km/h (3 Bft) 100,00 %
16.12.2017 22:10 1,2 C 3,9 C 92 % 1015,7 hPa 0,0 l/m 12,9 km/h (3 Bft) W-SW 247 0 min 0,000 mm 0,0 UV-I 0 W/m 0,0 C -4,2 C 17,7 km/h (3 Bft) 100,00 %
16.12.2017 22:11 1,2 C 3,9 C 92 % 1015,7 hPa 0,0 l/m 11,3 km/h (2 Bft) W-SW 247 0 min 0,000 mm 0,0 UV-I 0 W/m 0,0 C -3,1 C 16,1 km/h (3 Bft) 91,30 %
16.12.2017 22:12 1,2 C 3,9 C 92 % 1015,8 hPa 0,0 l/m 14,5 km/h (3 Bft) W-SW 247 0 min 0,000 mm 0,0 UV-I 0 W/m 0,0 C -5,2 C 20,9 km/h (4 Bft) 100,00 %
16.12.2017 22:13 1,2 C 3,9 C 92 % 1015,8 hPa 0,0 l/m 11,3 km/h (2 Bft) W-SW 247 0 min 0,000 mm 0,0 UV-I 0 W/m 0,0 C -3,1 C 14,5 km/h (3 Bft) 100,00 %
16.12.2017 22:14 1,2 C 3,9 C 92 % 1015,8 hPa 0,0 l/m 12,9 km/h (3 Bft) W-SW 247 0 min 0,000 mm 0,0 UV-I 0 W/m 0,0 C -4,2 C 19,3 km/h (3 Bft) 100,00 %
16.12.2017 22:15 1,2 C 3,9 C 92 % 1015,7 hPa 0,0 l/m 12,9 km/h (3 Bft) W-SW 247 0 min 0,000 mm 0,0 UV-I 0 W/m 0,0 C -4,2 C 19,3 km/h (3 Bft) 95,65 %
16.12.2017 22:16 1,2 C 3,9 C 92 % 1015,7 hPa 0,0 l/m 14,5 km/h (3 Bft) W-SW 247 0 min 0,000 mm 0,0 UV-I 0 W/m 0,0 C -5,2 C 17,7 km/h (3 Bft) 100,00 %
16.12.2017 22:17 1,2 C 3,9 C 92 % 1015,7 hPa 0,0 l/m 9,7 km/h (2 Bft) W-SW 247 0 min 0,000 mm 0,0 UV-I 0 W/m 0,0 C -1,9 C 14,5 km/h (3 Bft) 95,65 %
16.12.2017 22:18 1,2 C 3,9 C 92 % 1015,7 hPa 0,0 l/m 12,9 km/h (3 Bft) W-SW 247 0 min 0,000 mm 0,0 UV-I 0 W/m 0,0 C -4,2 C 19,3 km/h (3 Bft) 100,00 %
16.12.2017 22:19 1,2 C 3,9 C 92 % 1015,8 hPa 0,0 l/m 11,3 km/h (2 Bft) W-SW 247 0 min 0,000 mm 0,0 UV-I 0 W/m 0,0 C -3,1 C 14,5 km/h (3 Bft) 91,30 %
16.12.2017 22:20 1,2 C 3,9 C 92 % 1015,7 hPa 0,0 l/m 12,9 km/h (3 Bft) W-SW 247 0 min 0,000 mm 0,0 UV-I 0 W/m 0,0 C -4,2 C 19,3 km/h (3 Bft) 100,00 %
16.12.2017 22:21 1,2 C 3,9 C 92 % 1015,7 hPa 0,0 l/m 16,1 km/h (3 Bft) W-SW 247 0 min 0,000 mm 0,0 UV-I 0 W/m 0,0 C -6,1 C 20,9 km/h (4 Bft) 95,65 %
16.12.2017 22:22 1,2 C 3,9 C 92 % 1015,7 hPa 0,0 l/m 11,3 km/h (2 Bft) W-SW 247 0 min 0,000 mm 0,0 UV-I 0 W/m 0,0 C -3,1 C 14,5 km/h (3 Bft) 100,00 %
16.12.2017 22:23 1,2 C 3,9 C 92 % 1015,7 hPa 0,0 l/m 12,9 km/h (3 Bft) W-SW 247 0 min 0,000 mm 0,0 UV-I 0 W/m 0,0 C -4,2 C 19,3 km/h (3 Bft) 95,65 %
16.12.2017 22:24 1,2 C 3,9 C 91 % 1015,8 hPa 0,0 l/m 11,3 km/h (2 Bft) W-SW 247 0 min 0,000 mm 0,0 UV-I 0 W/m -0,1 C -3,1 C 17,7 km/h (3 Bft) 100,00 %
16.12.2017 22:25 1,2 C 3,9 C 91 % 1015,8 hPa 0,0 l/m 11,3 km/h (2 Bft) W-SW 247 0 min 0,000 mm 0,0 UV-I 0 W/m -0,1 C -3,1 C 14,5 km/h (3 Bft) 91,30 %
16.12.2017 22:26 1,2 C 3,9 C 91 % 1015,8 hPa 0,0 l/m 12,9 km/h (3 Bft) W-SW 247 0 min 0,000 mm 0,0 UV-I 0 W/m -0,1 C -4,2 C 19,3 km/h (3 Bft) 95,65 %
16.12.2017 22:27 1,2 C 3,9 C 91 % 1015,8 hPa 0,0 l/m 12,9 km/h (3 Bft) W-SW 247 0 min 0,000 mm 0,0 UV-I 0 W/m -0,1 C -4,2 C 20,9 km/h (4 Bft) 95,65 %
16.12.2017 22:28 1,2 C 3,9 C 91 % 1015,8 hPa 0,0 l/m 14,5 km/h (3 Bft) W-SW 247 0 min 0,000 mm 0,0 UV-I 0 W/m -0,1 C -5,2 C 22,5 km/h (4 Bft) 95,65 %
16.12.2017 22:29 1,2 C 3,9 C 91 % 1015,9 hPa 0,0 l/m 12,9 km/h (3 Bft) W-SW 247 0 min 0,000 mm 0,0 UV-I 0 W/m -0,1 C -4,2 C 17,7 km/h (3 Bft) 95,65 %
16.12.2017 22:30 1,2 C 3,9 C 91 % 1015,8 hPa 0,0 l/m 12,9 km/h (3 Bft) SW 225 0 min 0,000 mm 0,0 UV-I 0 W/m -0,1 C -4,2 C 20,9 km/h (4 Bft) 95,65 %
16.12.2017 22:31 1,2 C 3,9 C 91 % 1015,8 hPa 0,0 l/m 12,9 km/h (3 Bft) SW 225 0 min 0,000 mm 0,0 UV-I 0 W/m -0,1 C -4,2 C 17,7 km/h (3 Bft) 100,00 %
16.12.2017 22:32 1,2 C 3,9 C 91 % 1015,8 hPa 0,0 l/m 12,9 km/h (3 Bft) W-SW 247 0 min 0,000 mm 0,0 UV-I 0 W/m -0,1 C -4,2 C 19,3 km/h (3 Bft) 91,30 %
16.12.2017 22:33 1,2 C 3,9 C 91 % 1015,8 hPa 0,0 l/m 12,9 km/h (3 Bft) W-SW 247 0 min 0,000 mm 0,0 UV-I 0 W/m -0,1 C -4,2 C 17,7 km/h (3 Bft) 95,65 %
16.12.2017 22:34 1,2 C 3,9 C 91 % 1015,8 hPa 0,0 l/m 11,3 km/h (2 Bft) W-SW 247 0 min 0,000 mm 0,0 UV-I 0 W/m -0,1 C -3,1 C 16,1 km/h (3 Bft) 95,65 %
16.12.2017 22:35 1,2 C 3,9 C 91 % 1015,8 hPa 0,0 l/m 9,7 km/h (2 Bft) W-SW 247 0 min 0,000 mm 0,0 UV-I 0 W/m -0,1 C -1,9 C 12,9 km/h (3 Bft) 100,00 %
16.12.2017 22:36 1,2 C 3,9 C 91 % 1015,9 hPa 0,0 l/m 11,3 km/h (2 Bft) SW 225 0 min 0,000 mm 0,0 UV-I 0 W/m -0,1 C -3,1 C 16,1 km/h (3 Bft) 91,30 %
16.12.2017 22:37 1,2 C 3,9 C 91 % 1015,8 hPa 0,0 l/m 9,7 km/h (2 Bft) W-SW 247 0 min 0,000 mm 0,0 UV-I 0 W/m -0,1 C -1,9 C 12,9 km/h (3 Bft) 100,00 %
16.12.2017 22:38 1,2 C 3,9 C 91 % 1015,8 hPa 0,0 l/m 11,3 km/h (2 Bft) SW 225 0 min 0,000 mm 0,0 UV-I 0 W/m -0,1 C -3,1 C 16,1 km/h (3 Bft) 95,65 %
16.12.2017 22:39 1,2 C 3,9 C 91 % 1015,8 hPa 0,0 l/m 12,9 km/h (3 Bft) SW 225 0 min 0,000 mm 0,0 UV-I 0 W/m -0,1 C -4,2 C 17,7 km/h (3 Bft) 100,00 %
16.12.2017 22:40 1,2 C 3,9 C 91 % 1015,8 hPa 0,0 l/m 11,3 km/h (2 Bft) SW 225 0 min 0,000 mm 0,0 UV-I 0 W/m -0,1 C -3,1 C 14,5 km/h (3 Bft) 95,65 %
16.12.2017 22:41 1,2 C 3,9 C 91 % 1015,9 hPa 0,0 l/m 9,7 km/h (2 Bft) SW 225 0 min 0,000 mm 0,0 UV-I 0 W/m -0,1 C -1,9 C 14,5 km/h (3 Bft) 95,65 %
16.12.2017 22:42 1,2 C 3,9 C 91 % 1015,8 hPa 0,0 l/m 8,0 km/h (2 Bft) W-SW 247 0 min 0,000 mm 0,0 UV-I 0 W/m -0,1 C -0,4 C 12,9 km/h (3 Bft) 100,00 %
16.12.2017 22:43 1,2 C 3,9 C 91 % 1015,8 hPa 0,0 l/m 6,4 km/h (2 Bft) SW 225 0 min 0,000 mm 0,0 UV-I 0 W/m -0,1 C 1,2 C 8,0 km/h (2 Bft) 100,00 %
16.12.2017 22:44 1,2 C 3,9 C 91 % 1015,9 hPa 0,0 l/m 8,0 km/h (2 Bft) SW 225 0 min 0,000 mm 0,0 UV-I 0 W/m -0,1 C -0,4 C 12,9 km/h (3 Bft) 100,00 %
16.12.2017 22:45 1,2 C 3,9 C 91 % 1015,9 hPa 0,0 l/m 8,0 km/h (2 Bft) SW 225 0 min 0,000 mm 0,0 UV-I 0 W/m -0,1 C -0,4 C 9,7 km/h (2 Bft) 95,65 %
16.12.2017 22:46 1,2 C 3,9 C 91 % 1015,9 hPa 0,0 l/m 8,0 km/h (2 Bft) S-SW 202 0 min 0,000 mm 0,0 UV-I 0 W/m -0,1 C -0,4 C 9,7 km/h (2 Bft) 100,00 %
16.12.2017 22:47 1,2 C 3,9 C 91 % 1015,9 hPa 0,0 l/m 6,4 km/h (2 Bft) SW 225 0 min 0,000 mm 0,0 UV-I 0 W/m -0,1 C 1,2 C 9,7 km/h (2 Bft) 95,65 %
16.12.2017 22:48 1,1 C 3,9 C 91 % 1015,9 hPa 0,0 l/m 8,0 km/h (2 Bft) S-SW 202 0 min 0,000 mm 0,0 UV-I 0 W/m -0,2 C -0,5 C 11,3 km/h (2 Bft) 95,65 %
16.12.2017 22:49 1,1 C 3,9 C 92 % 1015,9 hPa 0,0 l/m 8,0 km/h (2 Bft) S-SW 202 0 min 0,000 mm 0,0 UV-I 0 W/m -0,1 C -0,5 C 12,9 km/h (3 Bft) 100,00 %
16.12.2017 22:50 1,1 C 3,9 C 92 % 1016,0 hPa 0,0 l/m 6,4 km/h (2 Bft) S-SW 202 0 min 0,000 mm 0,0 UV-I 0 W/m -0,1 C 1,1 C 9,7 km/h (2 Bft) 100,00 %
16.12.2017 22:51 1,1 C 3,9 C 92 % 1016,0 hPa 0,0 l/m 8,0 km/h (2 Bft) S-SW 202 0 min 0,000 mm 0,0 UV-I 0 W/m -0,1 C -0,5 C 12,9 km/h (3 Bft) 100,00 %
16.12.2017 22:52 1,1 C 3,9 C 92 % 1016,0 hPa 0,0 l/m 9,7 km/h (2 Bft) S-SW 202 0 min 0,000 mm 0,0 UV-I 0 W/m -0,1 C -2,0 C 12,9 km/h (3 Bft) 100,00 %
16.12.2017 22:53 1,1 C 3,9 C 92 % 1016,1 hPa 0,0 l/m 9,7 km/h (2 Bft) S-SW 202 0 min 0,000 mm 0,0 UV-I 0 W/m -0,1 C -2,0 C 12,9 km/h (3 Bft) 100,00 %
16.12.2017 22:54 1,1 C 3,9 C 92 % 1016,1 hPa 0,0 l/m 9,7 km/h (2 Bft) S-SW 202 0 min 0,000 mm 0,0 UV-I 0 W/m -0,1 C -2,0 C 12,9 km/h (3 Bft) 91,30 %
16.12.2017 22:55 1,1 C 3,9 C 92 % 1016,1 hPa 0,0 l/m 9,7 km/h (2 Bft) S-SW 202 0 min 0,000 mm 0,0 UV-I 0 W/m -0,1 C -2,0 C 16,1 km/h (3 Bft) 95,65 %
16.12.2017 22:56 1,1 C 3,9 C 92 % 1016,1 hPa 0,0 l/m 8,0 km/h (2 Bft) S-SW 202 0 min 0,000 mm 0,0 UV-I 0 W/m -0,1 C -0,5 C 9,7 km/h (2 Bft) 100,00 %
16.12.2017 22:57 1,1 C 3,9 C 92 % 1016,1 hPa 0,0 l/m 8,0 km/h (2 Bft) S-SW 202 0 min 0,000 mm 0,0 UV-I 0 W/m -0,1 C -0,5 C 11,3 km/h (2 Bft) 100,00 %
16.12.2017 22:58 1,1 C 3,9 C 92 % 1016,1 hPa 0,0 l/m 8,0 km/h (2 Bft) S-SW 202 0 min 0,000 mm 0,0 UV-I 0 W/m -0,1 C -0,5 C 11,3 km/h (2 Bft) 100,00 %
16.12.2017 22:59 1,1 C 3,9 C 92 % 1016,1 hPa 0,0 l/m 11,3 km/h (2 Bft) S-SW 202 0 min 0,000 mm 0,0 UV-I 0 W/m -0,1 C -3,2 C 14,5 km/h (3 Bft) 100,00 %
16.12.2017 23:00 1,1 C 3,9 C 92 % 1016,2 hPa 0,0 l/m 6,4 km/h (2 Bft) S-SW 202 0 min 0,000 mm 0,0 UV-I 0 W/m -0,1 C 1,1 C 11,3 km/h (2 Bft) 95,65 %
16.12.2017 23:01 1,1 C 3,9 C 92 % 1016,2 hPa 0,0 l/m 6,4 km/h (2 Bft) S-SW 202 0 min 0,000 mm 0,0 UV-I 0 W/m -0,1 C 1,1 C 9,7 km/h (2 Bft) 91,30 %
16.12.2017 23:02 1,1 C 3,9 C 92 % 1016,2 hPa 0,0 l/m 9,7 km/h (2 Bft) S-SW 202 0 min 0,000 mm 0,0 UV-I 0 W/m -0,1 C -2,0 C 12,9 km/h (3 Bft) 95,65 %
16.12.2017 23:03 1,1 C 3,9 C 92 % 1016,2 hPa 0,0 l/m 11,3 km/h (2 Bft) S-SW 202 0 min 0,000 mm 0,0 UV-I 0 W/m -0,1 C -3,2 C 16,1 km/h (3 Bft) 95,65 %
16.12.2017 23:04 1,1 C 3,9 C 92 % 1016,2 hPa 0,0 l/m 8,0 km/h (2 Bft) S-SW 202 0 min 0,000 mm 0,0 UV-I 0 W/m -0,1 C -0,5 C 11,3 km/h (2 Bft) 100,00 %
16.12.2017 23:05 1,2 C 3,9 C 92 % 1016,2 hPa 0,0 l/m 9,7 km/h (2 Bft) S-SW 202 0 min 0,000 mm 0,0 UV-I 0 W/m 0,0 C -1,9 C 11,3 km/h (2 Bft) 95,65 %
16.12.2017 23:06 1,1 C 3,9 C 92 % 1016,2 hPa 0,0 l/m 12,9 km/h (3 Bft) S-SW 202 0 min 0,000 mm 0,0 UV-I 0 W/m -0,1 C -4,3 C 16,1 km/h (3 Bft) 100,00 %
16.12.2017 23:07 1,1 C 3,9 C 92 % 1016,2 hPa 0,0 l/m 11,3 km/h (2 Bft) S-SW 202 0 min 0,000 mm 0,0 UV-I 0 W/m -0,1 C -3,2 C 14,5 km/h (3 Bft) 95,65 %
16.12.2017 23:08 1,1 C 3,9 C 92 % 1016,3 hPa 0,0 l/m 9,7 km/h (2 Bft) S-SW 202 0 min 0,000 mm 0,0 UV-I 0 W/m -0,1 C -2,0 C 11,3 km/h (2 Bft) 95,65 %
16.12.2017 23:09 1,1 C 3,9 C 92 % 1016,2 hPa 0,0 l/m 8,0 km/h (2 Bft) S-SW 202 0 min 0,000 mm 0,0 UV-I 0 W/m -0,1 C -0,5 C 11,3 km/h (2 Bft) 95,65 %
16.12.2017 23:10 1,1 C 3,9 C 92 % 1016,3 hPa 0,0 l/m 9,7 km/h (2 Bft) SW 225 0 min 0,000 mm 0,0 UV-I 0 W/m -0,1 C -2,0 C 14,5 km/h (3 Bft) 95,65 %
16.12.2017 23:11 1,1 C 3,9 C 92 % 1016,3 hPa 0,0 l/m 8,0 km/h (2 Bft) S-SW 202 0 min 0,000 mm 0,0 UV-I 0 W/m -0,1 C -0,5 C 11,3 km/h (2 Bft) 95,65 %
16.12.2017 23:12 1,1 C 3,9 C 92 % 1016,3 hPa 0,0 l/m 8,0 km/h (2 Bft) S-SW 202 0 min 0,000 mm 0,0 UV-I 0 W/m -0,1 C -0,5 C 11,3 km/h (2 Bft) 91,30 %
16.12.2017 23:13 1,1 C 3,9 C 92 % 1016,3 hPa 0,0 l/m 8,0 km/h (2 Bft) S-SW 202 0 min 0,000 mm 0,0 UV-I 0 W/m -0,1 C -0,5 C 9,7 km/h (2 Bft) 95,65 %
16.12.2017 23:14 1,1 C 3,9 C 92 % 1016,4 hPa 0,0 l/m 9,7 km/h (2 Bft) S-SW 202 0 min 0,000 mm 0,0 UV-I 0 W/m -0,1 C -2,0 C 12,9 km/h (3 Bft) 95,65 %
16.12.2017 23:15 1,1 C 3,9 C 92 % 1016,4 hPa 0,0 l/m 11,3 km/h (2 Bft) S-SW 202 0 min 0,000 mm 0,0 UV-I 0 W/m -0,1 C -3,2 C 14,5 km/h (3 Bft) 95,65 %
16.12.2017 23:16 1,1 C 3,9 C 92 % 1016,4 hPa 0,0 l/m 9,7 km/h (2 Bft) S-SW 202 0 min 0,000 mm 0,0 UV-I 0 W/m -0,1 C -2,0 C 14,5 km/h (3 Bft) 95,65 %
16.12.2017 23:17 1,1 C 3,9 C 92 % 1016,4 hPa 0,0 l/m 8,0 km/h (2 Bft) S-SW 202 0 min 0,000 mm 0,0 UV-I 0 W/m -0,1 C -0,5 C 11,3 km/h (2 Bft) 100,00 %
16.12.2017 23:18 1,1 C 3,9 C 92 % 1016,4 hPa 0,0 l/m 8,0 km/h (2 Bft) S-SW 202 0 min 0,000 mm 0,0 UV-I 0 W/m -0,1 C -0,5 C 12,9 km/h (3 Bft) 95,65 %
16.12.2017 23:19 1,1 C 3,9 C 92 % 1016,5 hPa 0,0 l/m 8,0 km/h (2 Bft) S-SW 202 0 min 0,000 mm 0,0 UV-I 0 W/m -0,1 C -0,5 C 11,3 km/h (2 Bft) 95,65 %
16.12.2017 23:20 1,1 C 3,9 C 92 % 1016,5 hPa 0,0 l/m 12,9 km/h (3 Bft) S-SW 202 0 min 0,000 mm 0,0 UV-I 0 W/m -0,1 C -4,3 C 16,1 km/h (3 Bft) 100,00 %
16.12.2017 23:21 1,1 C 3,9 C 92 % 1016,5 hPa 0,0 l/m 8,0 km/h (2 Bft) S-SW 202 0 min 0,000 mm 0,0 UV-I 0 W/m -0,1 C -0,5 C 11,3 km/h (2 Bft) 95,65 %
16.12.2017 23:22 1,1 C 3,9 C 92 % 1016,5 hPa 0,0 l/m 8,0 km/h (2 Bft) SW 225 0 min 0,000 mm 0,0 UV-I 0 W/m -0,1 C -0,5 C 12,9 km/h (3 Bft) 91,30 %
16.12.2017 23:23 1,1 C 3,9 C 92 % 1016,5 hPa 0,0 l/m 9,7 km/h (2 Bft) S-SW 202 0 min 0,000 mm 0,0 UV-I 0 W/m -0,1 C -2,0 C 14,5 km/h (3 Bft) 95,65 %
16.12.2017 23:24 1,1 C 3,9 C 92 % 1016,5 hPa 0,0 l/m 12,9 km/h (3 Bft) S-SW 202 0 min 0,000 mm 0,0 UV-I 0 W/m -0,1 C -4,3 C 16,1 km/h (3 Bft) 100,00 %
16.12.2017 23:25 1,1 C 3,9 C 92 % 1016,5 hPa 0,0 l/m 8,0 km/h (2 Bft) SW 225 0 min 0,000 mm 0,0 UV-I 0 W/m -0,1 C -0,5 C 12,9 km/h (3 Bft) 95,65 %
16.12.2017 23:26 1,1 C 3,9 C 92 % 1016,5 hPa 0,0 l/m 8,0 km/h (2 Bft) SW 225 0 min 0,000 mm 0,0 UV-I 0 W/m -0,1 C -0,5 C 11,3 km/h (2 Bft) 91,30 %
16.12.2017 23:27 1,1 C 3,9 C 92 % 1016,5 hPa 0,0 l/m 6,4 km/h (2 Bft) S-SW 202 0 min 0,000 mm 0,0 UV-I 0 W/m -0,1 C 1,1 C 11,3 km/h (2 Bft) 100,00 %
16.12.2017 23:28 1,1 C 3,9 C 92 % 1016,5 hPa 0,0 l/m 8,0 km/h (2 Bft) S-SW 202 0 min 0,000 mm 0,0 UV-I 0 W/m -0,1 C -0,5 C 11,3 km/h (2 Bft) 95,65 %
16.12.2017 23:29 1,1 C 3,9 C 92 % 1016,5 hPa 0,0 l/m 6,4 km/h (2 Bft) S-SW 202 0 min 0,000 mm 0,0 UV-I 0 W/m -0,1 C 1,1 C 9,7 km/h (2 Bft) 95,65 %
16.12.2017 23:30 1,1 C 3,9 C 92 % 1016,5 hPa 0,0 l/m 9,7 km/h (2 Bft) S-SW 202 0 min 0,000 mm 0,0 UV-I 0 W/m -0,1 C -2,0 C 16,1 km/h (3 Bft) 95,65 %
16.12.2017 23:31 1,1 C 3,9 C 92 % 1016,5 hPa 0,0 l/m 11,3 km/h (2 Bft) S-SW 202 0 min 0,000 mm 0,0 UV-I 0 W/m -0,1 C -3,2 C 14,5 km/h (3 Bft) 100,00 %
16.12.2017 23:32 1,1 C 3,9 C 92 % 1016,6 hPa 0,0 l/m 8,0 km/h (2 Bft) S 180 0 min 0,000 mm 0,0 UV-I 0 W/m -0,1 C -0,5 C 11,3 km/h (2 Bft) 95,65 %
16.12.2017 23:33 1,1 C 3,9 C 92 % 1016,6 hPa 0,0 l/m 6,4 km/h (2 Bft) SW 225 0 min 0,000 mm 0,0 UV-I 0 W/m -0,1 C 1,1 C 11,3 km/h (2 Bft) 100,00 %
16.12.2017 23:34 1,1 C 3,9 C 92 % 1016,6 hPa 0,0 l/m 6,4 km/h (2 Bft) SW 225 0 min 0,000 mm 0,0 UV-I 0 W/m -0,1 C 1,1 C 9,7 km/h (2 Bft) 95,65 %
16.12.2017 23:35 1,1 C 3,9 C 92 % 1016,5 hPa 0,0 l/m 9,7 km/h (2 Bft) S-SW 202 0 min 0,000 mm 0,0 UV-I 0 W/m -0,1 C -2,0 C 12,9 km/h (3 Bft) 95,65 %
16.12.2017 23:36 1,1 C 3,9 C 92 % 1016,6 hPa 0,0 l/m 8,0 km/h (2 Bft) SW 225 0 min 0,000 mm 0,0 UV-I 0 W/m -0,1 C -0,5 C 11,3 km/h (2 Bft) 95,65 %
16.12.2017 23:37 1,1 C 3,9 C 92 % 1016,6 hPa 0,0 l/m 9,7 km/h (2 Bft) SW 225 0 min 0,000 mm 0,0 UV-I 0 W/m -0,1 C -2,0 C 12,9 km/h (3 Bft) 95,65 %
16.12.2017 23:38 1,1 C 3,9 C 92 % 1016,6 hPa 0,0 l/m 9,7 km/h (2 Bft) SW 225 0 min 0,000 mm 0,0 UV-I 0 W/m -0,1 C -2,0 C 16,1 km/h (3 Bft) 95,65 %
16.12.2017 23:39 1,1 C 3,9 C 92 % 1016,6 hPa 0,0 l/m 8,0 km/h (2 Bft) SW 225 0 min 0,000 mm 0,0 UV-I 0 W/m -0,1 C -0,5 C 16,1 km/h (3 Bft) 100,00 %
16.12.2017 23:40 1,1 C 3,9 C 92 % 1016,7 hPa 0,0 l/m 11,3 km/h (2 Bft) SW 225 0 min 0,000 mm 0,0 UV-I 0 W/m -0,1 C -3,2 C 19,3 km/h (3 Bft) 95,65 %
16.12.2017 23:41 1,1 C 3,9 C 92 % 1016,7 hPa 0,0 l/m 11,3 km/h (2 Bft) SW 225 0 min 0,000 mm 0,0 UV-I 0 W/m -0,1 C -3,2 C 16,1 km/h (3 Bft) 95,65 %
16.12.2017 23:42 1,0 C 3,9 C 92 % 1016,7 hPa 0,0 l/m 9,7 km/h (2 Bft) W-SW 247 0 min 0,000 mm 0,0 UV-I 0 W/m -0,2 C -2,1 C 14,5 km/h (3 Bft) 95,65 %
16.12.2017 23:43 0,9 C 3,9 C 93 % 1016,7 hPa 0,0 l/m 8,0 km/h (2 Bft) SW 225 0 min 0,000 mm 0,0 UV-I 0 W/m -0,1 C -0,7 C 11,3 km/h (2 Bft) 95,65 %
16.12.2017 23:44 0,9 C 3,9 C 93 % 1016,7 hPa 0,0 l/m 9,7 km/h (2 Bft) W-SW 247 0 min 0,000 mm 0,0 UV-I 0 W/m -0,1 C -2,2 C 12,9 km/h (3 Bft) 95,65 %
16.12.2017 23:45 0,9 C 3,9 C 93 % 1016,6 hPa 0,0 l/m 11,3 km/h (2 Bft) W-SW 247 0 min 0,000 mm 0,0 UV-I 0 W/m -0,1 C -3,5 C 17,7 km/h (3 Bft) 95,65 %
16.12.2017 23:46 0,8 C 3,9 C 93 % 1016,6 hPa 0,0 l/m 14,5 km/h (3 Bft) SW 225 0 min 0,000 mm 0,0 UV-I 0 W/m -0,2 C -5,7 C 19,3 km/h (3 Bft) 95,65 %
16.12.2017 23:47 0,8 C 3,9 C 93 % 1016,6 hPa 0,0 l/m 14,5 km/h (3 Bft) SW 225 0 min 0,000 mm 0,0 UV-I 0 W/m -0,2 C -5,7 C 17,7 km/h (3 Bft) 100,00 %
16.12.2017 23:48 0,8 C 3,9 C 93 % 1016,7 hPa 0,0 l/m 9,7 km/h (2 Bft) W-SW 247 0 min 0,000 mm 0,0 UV-I 0 W/m -0,2 C -2,3 C 16,1 km/h (3 Bft) 91,30 %
16.12.2017 23:49 0,7 C 3,9 C 93 % 1016,8 hPa 0,0 l/m 11,3 km/h (2 Bft) SW 225 0 min 0,000 mm 0,0 UV-I 0 W/m -0,3 C -3,7 C 17,7 km/h (3 Bft) 95,65 %
16.12.2017 23:50 0,7 C 3,9 C 94 % 1016,7 hPa 0,0 l/m 11,3 km/h (2 Bft) SW 225 0 min 0,000 mm 0,0 UV-I 0 W/m -0,2 C -3,7 C 16,1 km/h (3 Bft) 95,65 %
16.12.2017 23:51 0,7 C 3,9 C 94 % 1016,7 hPa 0,0 l/m 8,0 km/h (2 Bft) SW 225 0 min 0,000 mm 0,0 UV-I 0 W/m -0,2 C -0,9 C 12,9 km/h (3 Bft) 95,65 %
16.12.2017 23:52 0,7 C 3,9 C 94 % 1016,7 hPa 0,0 l/m 6,4 km/h (2 Bft) W-SW 247 0 min 0,000 mm 0,0 UV-I 0 W/m -0,2 C 0,7 C 9,7 km/h (2 Bft) 100,00 %
16.12.2017 23:53 0,7 C 3,9 C 94 % 1016,7 hPa 0,0 l/m 9,7 km/h (2 Bft) W-SW 247 0 min 0,000 mm 0,0 UV-I 0 W/m -0,2 C -2,4 C 12,9 km/h (3 Bft) 95,65 %
16.12.2017 23:54 0,6 C 3,9 C 94 % 1016,7 hPa 0,0 l/m 8,0 km/h (2 Bft) SW 225 0 min 0,000 mm 0,0 UV-I 0 W/m -0,3 C -1,0 C 12,9 km/h (3 Bft) 100,00 %
16.12.2017 23:55 0,7 C 3,9 C 94 % 1016,7 hPa 0,0 l/m 9,7 km/h (2 Bft) SW 225 0 min 0,000 mm 0,0 UV-I 0 W/m -0,2 C -2,4 C 12,9 km/h (3 Bft) 95,65 %
16.12.2017 23:56 0,6 C 3,9 C 94 % 1016,7 hPa 0,0 l/m 8,0 km/h (2 Bft) SW 225 0 min 0,000 mm 0,0 UV-I 0 W/m -0,3 C -1,0 C 11,3 km/h (2 Bft) 95,65 %
16.12.2017 23:57 0,6 C 3,9 C 94 % 1016,8 hPa 0,0 l/m 8,0 km/h (2 Bft) W-SW 247 0 min 0,000 mm 0,0 UV-I 0 W/m -0,3 C -1,0 C 11,3 km/h (2 Bft) 91,30 %
16.12.2017 23:58 0,6 C 3,9 C 95 % 1016,7 hPa 0,0 l/m 8,0 km/h (2 Bft) SW 225 0 min 0,000 mm 0,0 UV-I 0 W/m -0,1 C -1,0 C 9,7 km/h (2 Bft) 100,00 %
16.12.2017 23:59 0,6 C 3,9 C 95 % 1016,8 hPa 0,0 l/m 8,0 km/h (2 Bft) W-SW 247 0 min 0,000 mm 0,0 UV-I 0 W/m -0,1 C -1,0 C 11,3 km/h (2 Bft) 95,65 %
_ Min-Zeit 06:06 00:00 00:00 00:42 - 04:04 - - - - - - 04:50 21:23 04:04 10:41
Minimum _ -1,1 C 3,9 C 82 % 1001,8 hPa - 0,0 km/h (0 Bft) - - - - - - -2,0 C -7,0 C 0,0 km/h (0 Bft) 34,78 %
_ Max-Zeit 13:25 00:00 19:05 23:49 14:51 19:31 - - 10:35 11:00 00:00 10:30 14:20 13:17 19:31 00:00
Maximum _ 4,0 C 3,9 C 95 % 1016,8 hPa 0,2 l/m 17,7 km/h
W (3 Bft)
- - 5 min 0,051 mm 0,0 UV-I 319 W/m 1,7 C 3,9 C 25,7 km/h
W (4 Bft)
100,00 %
Durchschnitt _ 1,4 C 3,9 C 91 % 1007,9 hPa #0,6 l/m 7,1 km/h (2 Bft) W-SW - #16 min. #0,279 mm 0,0 UV-I 62 W/m 0,1 C -0,1 C 10,4 km/h (2 Bft) 96,90 %